     2              OBSERVATION DATA    G (GPS)             RINEX VERSION / TYPE
ASRINEXO V2.9.9 LH AIUB 01-FEB- 1 16:27                     PGM / RUN BY / DATE
BERN ASHTECH Z-12                                           COMMENT
BIT 2 OF LLI (+4) FLAGS DATA COLLECTED UNDER "AS" CONDITION COMMENT
USNB                                                        MARKER NAME
                                                            OBSERVER / AGENCY
? ASHTECH Z-XII3 1D15                                       REC # / TYPE / VERS
? CHOKE RING                                                ANT # / TYPE
  1112205.4000 -4842898.8000  3985516.7200                  APPROX POSITION XYZ
        0.0000        0.0000        0.0000                  ANTENNA: DELTA H/E/N
     1     1                                                WAVELENGTH FACT L1/2
     5    C1    L1    L2    P1    P2                        # / TYPES OF OBSERV
  2000     4    27     0     0   30.000000                  TIME OF FIRST OBS
                                                            END OF HEADER
 00  4 27  0  0 30.0000000  0  6 17 26 06 23 09 10
  20481314.596   -22878583.006 9 -17813161.82848  20481317.121    20481326.9874
  20140191.517   -23186938.907 9 -18051644.82448  20140194.677    20140203.8374
  22500340.850   -11942141.492 8  -9044899.62746  22500345.190    22500357.9044
  22651194.298   -11015514.214 8  -8572001.62547  22651197.880    22651210.1694
  23597810.202    -4672599.214 8  -3625976.81646  23597813.797    23597829.6854
  23703494.789    -6262345.860 8  -4580986.62045  23703484.404    23703498.4974
 00  4 27  0  1  0.0000000  0  6 17 26 06 23 09 10
  20472145.267   -22926758.681 9 -17850701.26248  20472149.596    20472159.2444
  20146887.067   -23151747.115 9 -18024222.64148  20146891.587    20146900.6294
  22516269.792   -11858428.416 8  -8979668.77046  22516275.185    22516288.2254
  22640681.322   -11070763.840 8  -8615053.21847  22640683.990    22640697.3494
  23578204.728    -4775633.129 8  -3706262.72446  23578207.076    23578222.0914
  23718142.689    -6185274.622 7  -4520931.14945  23718149.369    23718164.5344
 00  4 27  0  1 30.0000000  0  6 17 26 06 23 09 10
  20463060.235   -22974513.067 9 -17887912.41648  20463062.114    20463072.2384
  20153686.505   -23116025.755 9 -17996387.81048  20153688.953    20153697.8474
  22532258.086   -11774441.171 8  -8914224.27746  22532258.349    22532271.3964
  22630187.131   -11125926.518 8  -8658037.05047  22630187.962    22630199.1364
  23558605.259    -4878601.163 8  -3786497.27846  23558612.990    23558627.2184
  23732832.437    -6108151.729 8  -4460835.46545  23732826.084    23732840.6244
 00  4 27  0  2  0.0000000  0  6 17 26 06 23 09 10
  20454057.295   -23021822.399 9 -17924776.77348  20454059.213    20454069.5644
  20160584.936   -23079767.633 9 -17968134.72048  20160588.444    20160597.3094
  22548287.492   -11690181.686 8  -8848567.64046  22548291.872    22548304.6374
  22619702.852   -11181006.190 8  -8700956.21847  22619706.271    22619717.0354
  23539031.912    -4981505.127 8  -3866681.92146  23539030.459    23539045.2064
  23747504.575    -6030987.230 8  -4400707.30545  23747510.150    23747525.1334
 00  4 27  0  2 30.0000000  0  6 17 26 06 23 09 10
  20445138.461   -23068687.168 9 -17961294.71448  20445141.164    20445151.6664
  20167586.751   -23042971.992 9 -17939462.79448  20167590.505    20167599.9464
  22564369.556   -11605656.190 8  -8782703.71646  22564375.484    22564388.3364
  22609242.492   -11235999.192 8  -8743807.86547  22609242.061    22609251.8204
  23519456.388    -5084335.055 8  -3946808.88846  23519462.249    23519476.9274
  23762204.529    -5953774.990 8  -4340541.93645  23762203.140    23762217.5914
 00  4 27  0  3  0.0000000  0  6 17 26 06 23 09 10
  20436306.332   -23115115.240 9 -17997472.38348  20436306.256    20436316.1174
  20174692.012   -23005635.749 9 -17910369.61548  20174695.552    20174704.4634
  22580510.493   -11520853.782 8  -8716624.01346  22580512.783    22580525.8444
  22598795.824   -11290888.476 8  -8786578.70447  22598796.982    22598807.2074
  23499899.879    -5187095.958 8  -4026882.07546  23499907.223    23499922.5894
  23776899.220    -5876502.798 7  -4280329.88145  23776906.740    23776921.9154
 00  4 27  0  3 30.0000000  0  6 17 26 06 23 09 10
  20427549.789   -23161111.148 9 -18033313.29748  20427553.303    20427563.9734
  20181897.911   -22967771.953 9 -17880865.35648  20181900.852    20181909.8224
  22596707.437   -11435756.777 8  -8650314.76546  22596707.577    22596719.1424
  22588368.725   -11345672.511 8  -8829267.52347  22588371.413    22588382.8294
  23480366.119    -5289762.273 8  -4106881.53246  23480370.902    23480384.8534
  23791623.848    -5799167.782 8  -4220068.86245  23791623.028    23791637.6144
 00  4 27  0  4  0.0000000  0  6 17 26 06 23 09 10
  20418879.391   -23206686.129 9 -18068826.21248  20418881.042    20418891.4434
  20189201.916   -22929388.312 9 -17850956.02648  20189204.969    20189214.1604
  22612950.799   -11350376.312 8  -8583784.66446  22612954.667    22612968.3324
  22577963.762   -11400337.374 8  -8871863.48447  22577967.974    22577980.3124
  23460848.015    -5392302.690 8  -4186782.91746  23460857.094    23460871.8834
  23806353.348    -5721765.305 8  -4159755.26145  23806353.271    23806367.4604
 00  4 27  0  4 30.0000000  0  6 17 26 06 23 09 10
  20410283.942   -23251851.567 9 -18104020.01648  20410286.350    20410296.7374
  20196604.801   -22890490.115 9 -17820645.74748  20196607.186    20196616.2344
  22629249.450   -11264715.168 8  -8517035.83646  22629255.350    22629269.3204
  22567587.916   -11454879.595 8  -8914363.88447  22567589.219    22567600.9564
  23441367.398    -5494723.150 8  -4266590.78746  23441366.508    23441381.5794
  23821094.726    -5644303.771 8  -4099395.61545  23821092.969    23821108.1664
 00  4 27  0  5  0.0000000  0  6 17 26 06 23 09 10
  20401767.779   -23296599.061 9 -18138888.14948  20401770.819    20401781.0654
  20204099.721   -22851092.215 9 -17789946.08548  20204104.012    20204113.0884
  22645607.185   -11178774.485 8  -8450069.17746  22645608.143    22645622.5994
  22557231.547   -11509297.027 8  -8956767.04747  22557234.276    22557245.6004
  23421898.222    -5597032.448 8  -4346312.05346  23421897.500    23421912.4744
  23835834.990    -5566797.360 8  -4039001.04645  23835841.881    23835857.6574
 00  4 27  0  5 30.0000000  0  6 17 26 06 23 09 10
  20393333.149   -23340918.675 9 -18173422.86448  20393336.946    20393347.2324
  20211693.421   -22811200.571 9 -17758861.67948  20211695.176    20211704.3904
  22662010.230   -11092577.851 8  -8382903.09446  22662012.353    22662025.2344
  22546896.960   -11563601.751 8  -8999082.39147  22546899.824    22546912.3364
  23402453.969    -5699219.213 8  -4425937.82846  23402452.953    23402466.3244
  23850598.520    -5489265.902 8  -3978587.00045  23850594.841    23850611.0104
 00  4 27  0  6  0.0000000  0  6 17 26 06 23 09 10
  20384982.567   -23384807.014 9 -18207621.53248  20384985.387    20384995.7804
  20219380.695   -22770802.545 9 -17727382.69048  20219382.680    20219392.1464
  22678462.495   -11006134.763 8  -8315544.98646  22678462.063    22678474.5194
  22536586.520   -11617779.309 8  -9041298.63847  22536590.083    22536602.1674
  23383026.041    -5801299.325 8  -4505480.49646  23383027.164    23383040.4884
  23865355.660    -5411720.910 8  -3918162.35445  23865353.207    23865366.9044
 00  4 27  0  6 30.0000000  0  6 17 26 06 23 09 10
  20376715.591   -23428251.417 9 -18241474.26948  20376718.231    20376728.1824
  20227162.667   -22729898.098 9 -17695509.08748  20227166.474    20227175.6584
  22694956.272   -10919425.687 8  -8247979.56746  22694962.212    22694974.5734
  22526301.836   -11671827.033 8  -9083413.68547  22526305.524    22526317.3424
  23363620.914    -5903279.998 8  -4584945.70946  23363620.350    23363635.4824
  23880108.740    -5334159.636 8  -3857725.01645  23880113.544    23880127.3994
 00  4 27  0  7  0.0000000  0  6 17 26 06 23 09 10
  20368533.260   -23471253.999 9 -18274982.73648  20368535.234    20368544.8494
  20235044.563   -22688483.995 9 -17663238.35148  20235047.765    20235056.7774
  22711511.511   -10832447.011 8  -8180204.08446  22711512.634    22711526.5254
  22516044.028   -11725744.188 8  -9125427.00347  22516045.544    22516057.4724
  23344238.567    -6005141.998 8  -4664318.43546  23344237.231    23344250.3364
  23894874.041    -5256565.652 8  -3797262.20245  23894877.528    23894892.4994
 00  4 27  0  7 30.0000000  0  6 17 26 06 23 09 10
  20360434.412   -23513811.589 9 -18308144.45248  20360436.865    20360446.8594
  20243023.613   -22646556.000 9 -17630567.18248  20243026.276    20243035.4674
  22728114.579   -10745193.752 8  -8112214.61746  22728117.304    22728130.3754
  22505810.649   -11779531.266 8  -9167338.95547  22505809.818    22505822.0074
  23324875.492    -6106860.378 8  -4743579.26246  23324879.615    23324893.9114
  23909647.139    -5178924.208 8  -3736762.47145  23909651.271    23909668.9834
 00  4 27  0  8  0.0000000  0  6 17 26 06 23 09 10
  20352422.232   -23555913.448 9 -18340951.05048  20352424.936    20352434.8374
  20251099.078   -22604118.141 9 -17597498.70848  20251101.510    20251111.3314
  22744771.681   -10657651.548 8  -8044000.04846  22744775.581    22744789.8464
  22495597.703   -11833192.011 8  -9209152.45447  22495598.940    22495610.9134
  23305557.281    -6208422.280 8  -4822718.13246  23305553.511    23305567.3314
  23924441.412    -5101221.190 8  -3676214.74645  23924439.360    23924454.5514
 00  4 27  0  8 30.0000000  0  6 17 26 06 23 09 10
  20344498.429   -23597563.297 9 -18373405.44048  20344499.478    20344508.7284
  20259268.476   -22561189.922 9 -17564048.14448  20259270.834    20259280.0174
  22761487.323   -10569828.479 8  -7975566.58146  22761488.399    22761502.3814
  22485403.287   -11886745.833 8  -9250882.64347  22485408.112    22485420.1504
  23286254.720    -6309807.947 8  -4901719.69246  23286259.759    23286274.1904
  23939234.644    -5023447.935 8  -3615612.26845  23939239.679    23939252.7774
 00  4 27  0  9  0.0000000  0  6 17 26 06 23 09 10
  20336656.918   -23638757.053 9 -18405504.42648  20336660.284    20336670.0974
  20267527.096   -22517779.159 9 -17530221.56048  20267531.385    20267540.8964
  22778246.115   -10481741.699 8  -7906927.66646  22778250.758    22778265.2364
  22475227.204   -11940211.202 8  -9292543.88347  22475232.702    22475245.0074
  23266996.412    -6411009.961 8  -4980578.16946  23267001.360    23267016.4084
  23954046.084    -4945616.665 8  -3554964.51345  23954049.815    23954063.7784
 00  4 27  0  9 30.0000000  0  6 17 26 06 23 09 10
  20328906.507   -23679481.986 9 -18437238.09248  20328910.359    20328920.7704
  20275879.667   -22473893.037 9 -17496024.57148  20275882.709    20275891.9094
  22795053.869   -10393407.776 8  -7838096.14646  22795059.617    22795074.4344
  22465072.144   -11993587.359 8  -9334135.58847  22465075.793    22465087.8134
  23247769.539    -6512043.105 8  -5059305.04346  23247775.531    23247790.0864
  23968857.534    -4867738.754 8  -3494280.49245  23968869.467    23968884.0694
 00  4 27  0 10  0.0000000  0  6 17 26 06 23 09 10
  20321245.691   -23719748.236 9 -18468614.34648  20321247.737    20321257.9984
  20284322.792   -22429523.948 9 -17461451.24248  20284325.675    20284335.2784
  22811913.238   -10304836.490 8  -7769079.70246  22811914.764    22811928.8114
  22454933.249   -12046879.666 8  -9375661.96647  22454934.570    22454946.5004
  23228575.146    -6612931.150 8  -5137918.84446  23228577.193    23228591.4874
  23983695.067    -4789824.303 8  -3433568.02145  23983696.475    23983712.0544
 00  4 27  0 10 30.0000000  0  6 17 26 06 23 09 10
  20313663.769   -23759574.962 9 -18499648.11148  20313668.982    20313678.9644
  20292857.326   -22384671.482 9 -17426501.26048  20292860.441    20292870.0774
  22828805.534   -10216032.591 8  -7699881.96346  22828813.136    22828828.0094
  22444807.467   -12100082.145 8  -9417118.34547  22444810.495    22444821.7464
  23209406.752    -6713692.400 8  -5216433.86746  23209403.120    23209417.3944
  23998533.764    -4711870.489 8  -3372824.83745  23998530.857    23998545.2414
 00  4 27  0 11  0.0000000  0  6 17 26 06 23 09 10
  20306175.373   -23798952.116 9 -18530331.56048  20306176.217    20306185.8574
  20301486.108   -22339323.951 9 -17391165.50148  20301489.905    20301499.3514
  22845756.264   -10126990.351 8  -7630498.52646  22845757.711    22845772.9474
  22434708.638   -12153173.605 9  -9458488.20547  22434707.662    22434718.5654
  23190241.649    -6814340.207 8  -5294860.48546  23190249.734    23190264.3094
  24013376.146    -4633873.752 8  -3312048.18745  24013372.044    24013386.9354
 00  4 27  0 11 30.0000000  0  6 17 26 06 23 09 10
  20298764.316   -23837882.277 9 -18560666.69648  20298767.471    20298777.5924
  20310213.407   -22293469.564 9 -17355434.80448  20310215.727    20310225.2344
  22862744.941   -10037710.275 8  -7560929.77746  22862748.599    22862761.2784
  22424625.953   -12206132.484 8  -9499754.74047  22424629.668    22424641.6384
  23171118.765    -6914879.878 8  -5373202.84946  23171117.537    23171132.8094
  24028227.148    -4555820.342 8  -3251227.39345  24028224.614    24028240.9754
 00  4 27  0 12  0.0000000  0  6 17 26 06 23 09 10
  20291442.830   -23876364.376 9 -18590652.68948  20291444.852    20291454.5374
  20319035.696   -22247109.356 9 -17319309.95348  20319038.155    20319047.3154
  22879779.241    -9948194.555 8  -7491177.39546  22879782.125    22879796.2264
  22414574.404   -12258960.656 9  -9540919.42447  22414577.427    22414588.7644
  23152007.587    -7015292.031 8  -5451445.82646  23152009.603    23152023.8454
  24043092.377    -4477709.855 8  -3190362.17845  24043089.095    24043103.5364
 00  4 27  0 12 30.0000000  0  6 17 26 06 23 09 10
  20284207.193   -23914380.019 9 -18620275.22548  20284210.640    20284220.4384
  20327947.635   -22200271.222 9 -17282812.69748  20327950.977    20327960.3694
  22896856.716    -9858450.515 8  -7421247.12846  22896859.781    22896874.0324
  22404547.662   -12311651.162 9  -9581976.83547  22404550.487    22404561.5844
  23132921.848    -7115551.841 8  -5529570.10646  23132930.360    23132944.4204
  24057970.134    -4399534.672 8  -3129446.49345  24057966.730    24057982.0854
 00  4 27  0 13  0.0000000  0  6 17 26 06 23 09 10
  20277065.579   -23951916.023 9 -18649524.00848  20277067.571    20277077.5784
  20336950.911   -22152964.598 9 -17245950.38148  20336953.069    20336962.3424
  22913975.231    -9768491.694 8  -7351149.47546  22913978.036    22913991.5514
  22394546.392   -12364209.659 8  -9622931.39147  22394548.665    22394558.8654
  23113884.106    -7215631.286 8  -5607553.82246  23113885.224    23113899.8804
  24072841.233    -4321306.976 7  -3068489.85945  24072852.108    24072866.8474
 00  4 27  0 13 30.0000000  0  6 17 26 06 23 09 10
  20270015.426   -23988967.438 9 -18678395.19648  20270017.415    20270026.7974
  20346040.749   -22105207.784 9 -17208737.27048  20346041.167    20346050.2184
  22931131.939    -9678342.938 8  -7280903.81746  22931133.492    22931147.1454
  22384564.085   -12416657.861 8  -9663799.99847  22384567.196    22384578.6084
  23094876.506    -7315509.581 8  -5685380.82246  23094879.706    23094893.6234
  24087735.997    -4243034.035 7  -3007498.02445  24087745.898    24087762.8464
 00  4 27  0 14  0.0000000  0  6 17 26 06 23 09 10
  20263055.297   -24025537.089 9 -18706890.97748  20263058.128    20263067.7304
  20355207.019   -22057017.648 9 -17171186.51248  20355211.328    20355220.4124
  22948316.714    -9588012.950 8  -7210516.97846  22948323.332    22948337.3944
  22374602.461   -12469014.100 8  -9704596.94847  22374604.745    22374615.8674
  23075918.794    -7415169.214 8  -5763037.45346  23075915.632    23075929.1904
  24102636.280    -4164733.844 8  -2946484.90045  24102647.071    24102661.3664
 00  4 27  0 14 30.0000000  0  6 17 26 06 23 09 10
  20256184.006   -24061638.272 9 -18735021.71348  20256188.078    20256197.9714
  20364461.358   -22008386.102 9 -17133291.78448  20364465.293    20364475.1204
  22965543.657    -9497502.227 8  -7139989.28246  22965546.890    22965560.4954
  22364657.055   -12521287.105 8  -9745329.03347  22364657.099    22364668.1164
  23056983.088    -7514617.366 8  -5840529.29046  23056990.259    23057004.2564
  24117546.824    -4086416.371 8  -2885458.31845  24117550.966    24117566.4464
 00  4 27  0 15  0.0000000  0  6 17 26 06 23 09 10
  20249403.696   -24097277.550 9 -18762792.53048  20249406.150    20249415.9814
  20373806.234   -21959287.733 9 -17095033.30348  20373808.375    20373817.8674
  22982797.269    -9406810.561 8  -7069320.62446  22982804.084    22982819.3354
  22354724.069   -12573476.587 8  -9785996.03147  22354725.272    22354736.5164
  23038098.980    -7613864.676 8  -5917864.64546  23038103.779    23038117.5444
  24132450.937    -4008090.729 8  -2824425.38145  24132455.457    24132471.4384
 00  4 27  0 15 30.0000000  0  6 17 26 06 23 09 10
  20242711.482   -24132443.859 9 -18790194.80448  20242714.061    20242724.0424
  20383239.036   -21909718.703 9 -17056408.07448  20383241.157    20383250.5914
  23000099.343    -9315930.776 8  -6998505.38446  23000098.057    23000111.9314
  22344804.618   -12625580.375 8  -9826596.26347  22344810.432    22344822.1914
  23019250.256    -7712934.559 8  -5995061.70846  23019250.348    23019265.4354
  24147357.895    -3929748.953 7  -2763379.90045  24147362.666    24147377.3664
 00  4 27  0 16  0.0000000  0  6 17 26 06 23 09 10
  20236107.551   -24167150.727 9 -18817239.07948  20236109.841    20236119.4064
  20392762.290   -21859667.553 9 -17017407.16048  20392765.541    20392775.1664
  23017421.725    -9224846.529 8  -6927530.76146  23017431.004    23017446.0314
  22334908.580   -12677590.328 8  -9867123.37747  22334913.116    22334924.3724
  23000435.559    -7811829.009 8  -6072122.09146  23000433.033    23000445.9184
  24162273.863    -3851384.401 8  -2702316.63845  24162275.287    24162290.3974
 00  4 27  0 16 30.0000000  0  6 17 26 06 23 09 10
  20229593.596   -24201380.845 9 -18843911.86248  20229595.818    20229605.4734
  20402377.469   -21809140.629 9 -16978035.53248  20402380.750    20402390.2304
  23034804.498    -9133549.570 8  -6856390.45246  23034804.964    23034818.9474
  22325034.657   -12729485.829 8  -9907561.30547  22325037.256    22325048.9524
  22981643.722    -7910556.088 8  -6149052.07946  22981645.434    22981657.6194
  24177185.159    -3772977.439 8  -2641220.27845  24177196.013    24177209.0844
 00  4 27  0 17  0.0000000  0  6 17 26 06 23 09 10
  20223174.382   -24235107.407 9 -18870192.25948  20223177.998    20223187.7384
  20412079.449   -21758155.999 9 -16938307.25148  20412083.001    20412092.0334
  23052219.520    -9042034.597 8  -6785080.21846  23052220.297    23052233.2184
  22315186.201   -12781256.385 8  -9947901.86547  22315186.687    22315197.7894
  22962879.243    -8009111.156 8  -6225848.01846  22962889.347    22962903.3594
  24192131.991    -3694507.861 8  -2580075.15545  24192128.697    24192142.9634
 00  4 27  0 17 30.0000000  0  6 17 26 06 23 09 10
  20216851.127   -24268335.159 9 -18896083.98048  20216855.015    20216864.5094
  20421866.470   -21706730.008 9 -16898235.04748  20421868.980    20421877.9514
  23069674.287    -8950296.367 8  -6713596.03946  23069677.419    23069690.9184
  22305352.390   -12832908.665 8  -9988150.25947  22305357.371    22305367.8234
  22944164.425    -8107473.529 8  -6302493.82146  22944171.736    22944185.7894
  24207076.473    -3615976.365 7  -2518881.81145  24207071.100    24207087.4624
 00  4 27  0 18  0.0000000  0  6 17 26 06 23 09 10
  20210621.746   -24301075.210 9 -18921595.66648  20210624.801    20210634.1284
  20431734.411   -21654869.876 9 -16857824.55248  20431737.162    20431746.5334
  23087173.560    -8858327.083 8  -6641931.81346  23087178.512    23087192.5154
  22295548.562   -12884437.927 8 -10028302.80747  22295551.743    22295561.7814
  22925492.952    -8205617.748 8  -6378969.59446  22925494.911    22925509.8994
  24222022.317    -3537383.126 8  -2457640.38045  24222028.876    24222043.3754
 00  4 27  0 18 30.0000000  0  6 17 26 06 23 09 10
  20204487.765   -24333313.128 9 -18946716.08948  20204489.967    20204499.5714
  20441684.010   -21602585.420 9 -16817083.41848  20441686.852    20441695.9944
  23104724.131    -8766126.906 8  -6570087.67546  23104724.383    23104737.8944
  22285767.563   -12935848.260 9 -10068362.69047  22285768.281    22285779.5074
  22906849.474    -8303551.023 8  -6455280.99246  22906859.044    22906872.5104
  24236998.335    -3458726.828 8  -2396349.77745  24236996.304    24237009.0674
 00  4 27  0 19  0.0000000  0  6 17 26 06 23 09 10
  20198445.717   -24365063.301 9 -18971456.44948  20198448.325    20198458.2204
  20451716.556   -21549868.751 9 -16776005.48948  20451718.428    20451728.0954
  23122307.558    -8673710.138 8  -6498074.72946  23122310.871    23122323.8364
  22276004.573   -12987155.755 9 -10108342.44547  22276005.128    22276015.9064
  22888263.731    -8401267.103 8  -6531423.15846  22888264.501    22888277.6574
  24251977.128    -3380015.629 7  -2335016.36745  24251975.058    24251988.3074
 00  4 27  0 19 30.0000000  0  6 17 26 06 23 09 10
  20192493.894   -24396343.659 9 -18995830.72048  20192495.576    20192505.7004
  20461828.836   -21496718.052 9 -16734589.35648  20461832.088    20461842.0234
  23139928.949    -8581096.805 8  -6425908.61346  23139934.625    23139948.0404
  22266257.623   -13038363.356 9 -10148244.37547  22266259.811    22266271.2254
  22869702.012    -8498755.882 8  -6607388.23746  22869712.553    22869725.8014
  24266959.015    -3301258.161 7  -2273646.97445  24266959.877    24266975.8614
 00  4 27  0 20  0.0000000  0  6 17 26 06 23 09 10
  20186632.092   -24427138.329 9 -19019826.53448  20186635.400    20186645.3634
  20472028.545   -21443125.289 9 -16692828.75848  20472030.952    20472040.5224
  23157587.483    -8488306.304 8  -6353604.46946  23157591.605    23157605.5364
  22256532.651   -13089466.462 9 -10188064.88247  22256535.502    22256546.8954
  22851194.355    -8596036.001 8  -6683190.71346  22851200.957    22851214.3294
  24281965.225    -3222452.348 7  -2212239.88945  24281956.758    24281972.4584
 00  4 27  0 20 30.0000000  0  6 17 26 06 23 09 10
  20180868.082   -24457435.324 9 -19043434.55548  20180870.242    20180879.7504
  20482312.298   -21389082.541 9 -16650717.52148  20482314.978    20482324.3904
  23175272.456    -8395363.675 8  -6281181.79446  23175277.718    23175291.9314
  22246826.730   -13140470.169 9 -10227807.93347  22246829.570    22246840.5884
  22832726.706    -8693120.287 8  -6758840.57846  22832726.313    22832738.9664
  24296958.828    -3143597.803 7  -2150794.84345  24296963.234    24296979.1434
 00  4 27  0 21  0.0000000  0  6 17 26 06 23 09 10
  20175195.892   -24487231.580 9 -19066652.37448  20175199.952    20175210.0734
  20492683.211   -21334581.527 9 -16608249.19848  20492686.086    20492695.6944
  23192988.632    -8302286.385 8  -6208654.17946  23192990.421    23193004.3874
  22237143.469   -13191368.496 9 -10267468.89547  22237144.173    22237155.2054
  22814295.668    -8789996.426 8  -6834328.26046  22814290.913    22814303.8494
  24311983.326    -3064709.138 8  -2089323.18045  24311975.945    24311990.3954
 00  4 27  0 21 30.0000000  0  6 17 26 06 23 09 10
  20169626.302   -24516512.411 9 -19089468.56848  20169628.043    20169637.8394
  20503140.155   -21279627.497 9 -16565427.87448  20503143.616    20503153.0084
  23210727.407    -8209062.690 8  -6136012.45646  23210730.076    23210743.0024
  22227476.092   -13242157.150 9 -10307044.40447  22227479.410    22227490.4204
  22795894.763    -8886659.029 8  -6909649.53946  22795897.472    22795910.2174
  24326999.002    -2985791.473 7  -2027828.89145  24326993.485    24327007.1464
 00  4 27  0 22  0.0000000  0  6 17 26 06 23 09 10
  20164154.127   -24545267.300 9 -19111874.93648  20164156.326    20164165.6934
  20513679.828   -21224222.815 9 -16522255.38748  20513686.626    20513696.3284
  23228498.948    -8115681.174 8  -6063247.74346  23228500.275    23228513.4784
  22217830.693   -13292841.898 9 -10346538.95247  22217834.590    22217845.0914
  22777530.570    -8983112.841 8  -6984808.13446  22777542.402    22777555.6844
  24342017.619    -2906839.554 7  -1966307.95445  24342016.512    24342031.7194
 00  4 27  0 22 30.0000000  0  6 17 26 06 23 09 10
  20158779.722   -24573503.935 9 -19133877.47748  20158782.770    20158792.5314
  20524307.397   -21168389.155 9 -16478748.63748  20524311.358    20524320.8484
  23246296.578    -8022132.820 8  -5990353.02846  23246300.943    23246315.6774
  22208204.920   -13343426.816 9 -10385955.70947  22208207.812    22208218.5524
  22759225.462    -9079337.493 8  -7059788.16746  22759231.123    22759244.0174
  24357039.860    -2827853.013 7  -1904759.97545  24357047.777    24357062.9894
 00  4 27  0 23  0.0000000  0  6 17 26 06 23 09 10
  20153503.959   -24601226.195 9 -19155479.20148  20153507.325    20153517.2824
  20535010.623   -21112149.424 9 -16434925.46948  20535013.414    20535023.1274
  23264139.792    -7928409.666 8  -5917322.14246  23264137.083    23264150.3464
  22198602.955   -13393904.455 9 -10425288.84547  22198602.493    22198613.5124
  22740973.743    -9175316.207 8  -7134576.55046  22740966.948    22740979.6964
  24372079.421    -2748844.374 7  -1843194.81245  24372080.815    24372097.7204
 00  4 27  0 23 30.0000000  0  6 17 26 06 23 09 10
  20148323.813   -24628443.613 9 -19176687.53948  20148328.090    20148337.9044
  20545786.792   -21055517.874 9 -16390796.99248  20545790.044    20545799.1924
  23282005.310    -7834501.060 8  -5844146.73046  23282008.313    23282022.3434
  22189017.787   -13444272.315 9 -10464536.47047  22189018.466    22189029.1924
  22722743.076    -9271042.008 8  -7209167.84146  22722750.108    22722763.4434
  24387116.994    -2669807.382 7  -1781607.56045  24387122.287    24387137.4514
 00  4 27  0 24  0.0000000  0  6 17 26 06 23 09 10
  20143241.366   -24655164.306 9 -19197508.82648  20143243.215    20143253.0934
  20556639.706   -20998495.212 9 -16346363.75148  20556641.182    20556650.4614
  23299910.723    -7740420.670 8  -5770837.47046  23299909.613    23299924.3124
  22179452.202   -13494523.846 9 -10503693.45747  22179455.899    22179467.0524
  22704577.969    -9366516.677 8  -7283563.46746  22704582.620    22704594.6684
  24402165.927    -2590740.385 7  -1719996.93145  24402167.059    24402183.8764
 00  4 27  0 24 30.0000000  0  6 17 26 06 23 09 10
  20138250.812   -24681383.078 9 -19217939.00648  20138253.917    20138263.6624
  20567561.798   -20941074.681 9 -16301620.48548  20567567.513    20567577.4514
  23317842.271    -7646178.442 8  -5697402.09446  23317844.415    23317858.7374
  22169916.269   -13544639.625 8 -10542744.65447  22169918.157    22169929.4284
  22686462.649    -9461732.893 8  -7357757.71546  22686463.331    22686476.3834
  24417221.714    -2511650.654 7  -1658368.59345  24417219.220    24417233.3054
 00  4 27  0 25  0.0000000  0  6 17 26 06 23 09 10
  20133356.817   -24707100.274 9 -19237978.34148  20133360.320    20133369.7824
  20578571.313   -20883231.830 9 -16256548.13648  20578574.956    20578584.2644
  23335801.511    -7551787.179 8  -5623850.61346  23335806.641    23335821.4254
  22160405.150   -13594616.909 8 -10581687.92847  22160407.237    22160419.2464
  22668389.691    -9556697.106 8  -7431755.57146  22668391.268    22668405.3104
  24432273.365    -2432534.399 7  -1596719.59345  24432273.779    24432289.9664
 00  4 27  0 25 30.0000000  0  6 17 26 06 23 09 10
  20128558.939   -24732316.957 9 -19257627.66148  20128561.657    20128570.9714
  20589662.091   -20824945.334 9 -16211130.08948  20589666.549    20589675.4784
  23353790.432    -7457245.215 8  -5550181.70746  23353797.448    23353811.9814
  22150917.477   -13644468.537 9 -10620533.27947  22150921.420    22150933.0774
  22650360.220    -9651413.690 8  -7505560.46646  22650368.203    22650380.4114
  24447329.560    -2353364.886 7  -1535029.08545  24447339.069    24447355.3194
 00  4 27  0 26  0.0000000  0  6 17 26 06 23 09 10
  20123858.659   -24757018.699 9 -19276875.73448  20123861.075    20123870.4084
  20600842.956   -20766202.812 9 -16165356.71048  20600845.329    20600853.9324
  23371810.186    -7362566.649 8  -5476406.33846  23371814.053    23371828.0214
  22141453.638   -13694206.060 9 -10659289.69447  22141456.434    22141468.3034
  22632387.531    -9745882.343 8  -7579172.16746  22632390.302    22632402.9044
  24462426.172    -2274122.205 7  -1473281.58745  24462419.897    24462434.1264
 00  4 27  0 26 30.0000000  0  6 17 26 06 23 09 10
  20119257.637   -24781198.081 9 -19295716.77448  20119259.976    20119269.2824
  20612103.742   -20707009.760 9 -16119232.25948  20612109.374    20612118.3514
  23389851.919    -7267752.889 8  -5402525.60146  23389856.235    23389870.6794
  22132009.576   -13743843.046 9 -10697967.78647  22132010.757    22132022.0784
  22614464.119    -9840100.894 8  -7652589.01946  22614461.531    22614473.8224
  24477522.682    -2194798.291 7  -1411470.74545  24477514.244    24477528.4034
 00  4 27  0 27  0.0000000  0  6 17 26 06 23 09 10
  20114756.136   -24804856.911 9 -19314152.19848  20114757.914    20114767.1764
  20623451.014   -20647386.872 9 -16072772.86248  20623454.614    20623464.0694
  23407924.326    -7172802.486 8  -5328538.42846  23407925.345    23407939.3794
  22122578.078   -13793395.489 9 -10736579.98447  22122580.749    22122592.8464
  22596576.563    -9934058.430 8  -7725802.49646  22596581.689    22596593.6914
  24492631.070    -2115397.783 7  -1349600.25545  24492624.179    24492638.4404
 00  4 27  0 27 30.0000000  0  6 17 26 06 23 09 10
  20110353.578   -24827985.346 9 -19332174.31348  20110356.560    20110365.9404
  20634875.755   -20587356.621 9 -16025996.05048  20634878.379    20634887.6874
  23426017.080    -7077708.214 8  -5254439.13946  23426020.884    23426034.8854
  22113165.270   -13842869.841 9 -10775131.33647  22113166.911    22113177.1844
  22578749.004   -10027752.498 8  -7798810.66746  22578751.557    22578764.4104
  24507753.146    -2035930.004 7  -1287677.31345  24507744.643    24507761.0544
 00  4 27  0 28  0.0000000  0  6 17 26 06 23 09 10
  20106053.578   -24850581.535 9 -19349781.70548  20106056.792    20106066.1504
  20646373.281   -20526934.139 9 -15978913.60848  20646376.820    20646385.7294
  23444141.643    -6982485.590 8  -5180239.82946  23444141.614    23444155.6494
  22103767.028   -13892250.837 9 -10813609.94947  22103770.128    22103780.0134
  22560975.765   -10121176.478 8  -7871608.34446  22560973.552    22560986.3354
  24522876.089    -1956420.614 7  -1225721.97045  24522875.982    24522889.6584
 00  4 27  0 28 30.0000000  0  6 17 26 06 23 09 10
  20101853.996   -24872651.609 9 -19366979.14148  20101856.782    20101866.5064
  20657939.968   -20466144.274 9 -15931544.89348  20657944.297    20657953.6614
  23462286.413    -6887135.440 8  -5105941.14246  23462286.388    23462300.0764
  22094390.228   -13941526.026 9 -10852006.09347  22094393.291    22094403.6054
  22543241.413   -10214329.678 8  -7944195.04846  22543246.964    22543259.9954
  24538009.647    -1876900.864 7  -1163758.55045  24538009.174    24538023.8744
 00  4 27  0 29  0.0000000  0  6 17 26 06 23 09 10
  20097753.243   -24894198.916 9 -19383769.22548  20097756.490    20097765.7804
  20669579.273   -20404985.379 9 -15883888.61348  20669582.371    20669591.5114
  23480454.356    -6791657.172 8  -5031542.62645  23480455.296    23480468.0394
  22085037.317   -13990682.909 9 -10890310.05047  22085038.683    22085049.7554
  22525572.354   -10307205.052 8  -8016565.27546  22525574.316    22525585.8014
  24553129.786    -1797374.988 7  -1101790.37345  24553140.759    24553155.2204
 00  4 27  0 29 30.0000000  0  6 17 26 06 23 09 10
  20093753.526   -24915221.034 9 -19400150.07648  20093756.045    20093765.4914
  20681291.062   -20343446.225 9 -15835936.02248  20681293.038    20681302.7474
  23498644.148    -6696056.592 8  -4957048.82146  23498647.840    23498661.7074
  22075707.640   -14039710.376 9 -10928513.17247  22075708.839    22075720.3584
  22507955.490   -10399804.546 8  -8088720.53746  22507953.435    22507964.5434
  24568276.363    -1717828.327 7  -1039806.04045  24568278.978    24568294.8524
 00  4 27  0 30  0.0000000  0  6 17 26 06 23 09 10
  20089853.028   -24935715.473 9 -19416119.74548  20089856.036    20089865.5314
  20693071.286   -20281533.350 9 -15787692.22548  20693074.979    20693084.1874
  23516856.139    -6600349.118 8  -4882471.72445  23516859.929    23516873.8014
  22066403.696   -14088590.410 9 -10966601.44047  22066407.293    22066418.0984
  22490379.333   -10492117.680 8  -8160652.64246  22490385.315    22490397.9804
  24583417.184    -1638253.047 7   -977799.32545  24583420.324    24583435.9024
 00  4 27  0 30 30.0000000  0  6 17 26 06 23 09 10
  20086055.345   -24955669.745 9 -19431668.50048  20086058.751    20086068.3534
  20704925.515   -20219254.695 9 -15739163.40848  20704926.805    20704935.2184
  23535089.087    -6504525.217 8  -4807803.91545  23535094.972    23535108.1014
  22057129.767   -14137331.967 9 -11004581.79047  22057132.312    22057142.6434
  22472874.553   -10584148.418 8  -8232364.71246  22472872.300    22472884.0674
  24598546.578    -1558641.134 7   -915764.15744  24598567.799    24598584.9194
 00  4 27  0 31  0.0000000  0  6 17 26 06 23 09 10
  20082363.813   -24975077.941 9 -19446791.74248  20082365.682    20082375.1554
  20716847.008   -20156597.427 9 -15690339.56848  20716849.487    20716858.3424
  23553354.222    -6408582.441 8  -4733043.47745  23553352.514    23553367.2674
  22047875.734   -14185952.064 8 -11042467.51347  22047879.912    22047891.2714
  22455409.668   -10675890.216 8  -8303851.64346  22455415.420    22455426.5334
  24613723.275    -1478976.879 7   -853688.17144  24613728.236    24613746.0434
 00  4 27  0 31 30.0000000  0  6 17 26 06 23 09 10
  20078772.574   -24993939.578 9 -19461489.10048  20078776.159    20078786.0114
  20728839.534   -20093572.712 9 -15641229.39548  20728842.420    20728851.9724
  23571627.968    -6312535.006 8  -4658201.49046  23571629.276    23571643.4474
  22038646.386   -14234461.124 8 -11080266.70647  22038648.110    22038660.1024
  22438007.463   -10767347.793 8  -8375117.10446  22438010.788    22438022.8034
  24628902.756    -1399259.850 7   -791571.03445  24628900.558    24628915.0294
 00  4 27  0 32  0.0000000  0  6 17 26 06 23 09 10
  20075288.634   -25012252.445 9 -19475758.83748  20075291.364    20075301.2824
  20740902.219   -20030183.516 9 -15591835.21348  20740904.547    20740914.3454
  23589922.913    -6216383.804 8  -4583278.61645  23589926.870    23589940.0334
  22029431.095   -14282875.319 9 -11117991.95547  22029435.378    22029446.7934
  22420661.873   -10858521.898 8  -8446161.70646  22420661.095    22420673.1664
  24644081.856    -1319505.299 7   -729424.65645  24644078.213    24644091.2824
 00  4 27  0 32 30.0000000  0  6 17 26 06 23 09 10
  20071908.950   -25030020.685 9 -19489604.19448  20071910.231    20071919.7624
  20753036.061   -19966416.411 9 -15542146.56848  20753039.531    20753048.7894
  23608247.804    -6120123.781 8  -4508270.98845  23608244.166    23608261.0454
  22020236.647   -14331206.453 9 -11155652.49147  22020239.409    22020248.6444
  22403358.555   -10949412.348 8  -8516985.26146  22403364.804    22403376.7244
  24659262.342    -1239717.897 7   -667252.70645  24659261.278    24659275.2914
 00  4 27  0 33  0.0000000  0  6 17 26 06 23 09 10
  20068628.109   -25047253.480 9 -19503032.31548  20068631.007    20068640.3534
  20765247.958   -19902252.849 9 -15492148.98747  20765249.203    20765258.3954
  23626579.651    -6023777.385 8  -4433196.08745  23626578.668    23626592.3524
  22011056.169   -14379450.300 9 -11193245.01347  22011058.140    22011068.9764
  22386120.956   -11040007.547 8  -8587578.73946  22386124.864    22386136.5584
  24674453.672    -1159891.208 7   -605050.11944  24674449.704    24674464.1454
 00  4 27  0 33 30.0000000  0  6 17 26 06 23 09 10
  20065450.362   -25063950.063 9 -19516042.61148  20065453.512    20065463.2434
  20777532.145   -19837691.674 9 -15441841.59047  20777534.888    20777543.8174
  23644924.790    -5927351.032 8  -4358058.83045  23644928.405    23644941.8214
  22001895.447   -14427588.811 8 -11230755.46147  22001897.101    22001908.0644
  22368941.512   -11130299.025 8  -8657935.57946  22368942.187    22368954.3744
  24689645.548    -1080031.130 7   -542821.52245  24689646.591    24689660.4504
 00  4 27  0 34  0.0000000  0  6 17 26 06 23 09 10
  20062376.915   -25080104.681 9 -19528630.59348  20062379.386    20062388.9984
  20789894.888   -19772724.847 9 -15391218.09647  20789897.787    20789906.9654
  23663283.924    -5830842.440 8  -4282857.44245  23663292.534    23663307.6264
  21992756.817   -14475616.714 9 -11268179.71647  21992758.214    21992768.6324
  22351817.357   -11220270.811 8  -8728043.29546  22351820.463    22351833.3244
  24704842.688    -1000141.963 7   -480570.25845  24704848.209    24704865.2854
 00  4 27  0 34 30.0000000  0  6 17 26 06 23 09 10
  20059404.480   -25095724.357 9 -19540801.73648  20059407.184    20059416.4154
  20802336.609   -19707356.323 9 -15340281.59147  20802337.328    20802345.9374
  23681674.897    -5734264.477 8  -4207602.03645  23681672.386    23681686.8314
  21983640.372   -14523523.304 9 -11305509.46647  21983641.715    21983652.2754
  22334761.254   -11309917.375 8  -8797897.58846  22334761.631    22334773.6984
  24720060.010     -920211.466 7   -418286.76845  24720060.510    24720075.6614
 00  4 27  0 35  0.0000000  0  6 17 26 06 23 09 10
  20056534.125   -25110810.653 9 -19552557.26248  20056536.514    20056545.8124
  20814848.141   -19641597.663 9 -15289041.08147  20814850.619    20814859.8444
  23700062.241    -5637614.159 8  -4132290.29645  23700064.000    23700078.3714
  21974547.821   -14571315.307 9 -11342749.93547  21974547.633    21974557.8074
  22317759.764   -11399230.662 8  -8867492.17047  22317766.006    22317778.3144
  24735284.808     -840243.078 7   -355973.80044  24735278.858    24735293.4404
 00  4 27  0 35 30.0000000  0  6 17 26 06 23 09 10
  20053766.349   -25125353.231 9 -19563889.10548  20053768.796    20053778.4504
  20827427.791   -19575476.909 9 -15237518.42847  20827432.452    20827442.1434
  23718466.429    -5540880.776 8  -4056913.78545  23718471.080    23718486.3284
  21965473.121   -14618996.823 9 -11379904.33547  21965473.995    21965483.5554
  22300831.167   -11488209.109 8  -8936825.87846  22300833.975    22300845.8074
  24750497.016     -760239.591 7   -293633.45145  24750500.793    24750519.0504
 00  4 27  0 36  0.0000000  0  6 17 26 06 23 09 10
  20051103.903   -25139347.196 9 -19574793.46148  20051105.924    20051115.4794
  20840077.994   -19509012.142 9 -15185727.71147  20840080.167    20840089.4784
  23736893.886    -5444063.394 8  -3981471.81345  23736895.264    23736909.1134
  21956419.754   -14666570.716 9 -11416974.86647  21956420.883    21956430.8854
  22283964.665   -11576858.408 8  -9005903.06046  22283964.507    22283976.5334
  24765729.464     -680190.106 7   -231257.28245  24765734.756    24765750.7824
 00  4 27  0 36 30.0000000  0  6 17 26 06 23 09 10
  20048547.057   -25152781.896 9 -19585262.03148  20048549.608    20048559.2074
  20852790.797   -19442207.646 9 -15133672.26347  20852792.918    20852801.7914
  23755331.881    -5347146.622 8  -3905952.40445  23755338.656    23755352.9434
  21947387.371   -14714036.713 9 -11453961.29447  21947387.968    21947398.4754
  22267151.467   -11665180.311 8  -9074725.15947  22267157.740    22267168.7844
  24780984.466     -600098.441 7   -168848.23744  24780975.081    24780993.1144
 00  4 27  0 37  0.0000000  0  5 17 26 06 23 09
  20046098.640   -25165642.437 9 -19595283.20348  20046101.786    20046111.7634
  20865566.228   -19375065.031 9 -15081353.34447  20865570.136    20865578.8934
  23773802.339    -5250121.453 8  -3830348.51945  23773801.676    23773816.8324
  21938374.760   -14761399.650 9 -11490867.44147  21938375.432    21938385.1874
  22250412.617   -11753175.330 8  -9143292.55946  22250412.094    22250423.0424
 00  4 27  0 37 30.0000000  0  5 17 26 06 23 09
  20043762.563   -25177918.633 9 -19604849.04048  20043765.677    20043775.4434
  20878407.293   -19307582.806 9 -15028769.79847  20878411.377    20878420.2284
  23792279.900    -5153000.594 8  -3754670.08345  23792283.088    23792298.6424
  21929380.206   -14808652.750 9 -11527688.00847  21929382.707    21929393.5574
  22233726.246   -11840846.491 8  -9211607.61046  22233729.008    22233740.1174
 00  4 27  0 38  0.0000000  0  5 17 26 06 23 09
  20041537.765   -25189619.466 9 -19613966.53848  20041539.507    20041548.7394
  20891318.281   -19239741.448 9 -14975906.41247  20891320.876    20891330.2864
  23810777.299    -5055793.080 8  -3678924.09345  23810781.224    23810796.8874
  21920409.192   -14855785.910 9 -11564415.07447  21920413.639    21920424.3664
  22217104.695   -11928197.583 8  -9279673.24146  22217107.274    22217117.4854
 00  4 27  0 38 30.0000000  0  5 17 26 06 23 09
  20039417.503   -25200751.503 9 -19622640.82648  20039420.807    20039430.3954
  20904297.873   -19171531.443 9 -14922755.76847  20904301.245    20904310.2754
  23829283.835    -4958517.682 8  -3603125.26145  23829291.255    23829307.5844
  21911464.051   -14902808.832 9 -11601056.25047  21911465.726    21911476.2474
  22200543.505   -12015224.448 8  -9347486.24946  22200545.292    22200556.2734
 00  4 27  0 39  0.0000000  0  5 17 26 06 23 09
  20037405.697   -25211331.536 9 -19630884.98148  20037407.472    20037416.9464
  20917345.702   -19102961.336 9 -14869324.52947  20917349.135    20917358.6354
  23847814.570    -4861201.145 8  -3527294.34545  23847811.252    23847825.0424
  21902535.567   -14949716.055 9 -11637607.28047  21902539.807    21902550.1364
  22184043.973   -12101922.838 8  -9415043.30446  22184047.284    22184058.0154
 00  4 27  0 39 30.0000000  0  5 17 26 06 23 09
  20035493.562   -25221371.884 9 -19638708.60048  20035496.797    20035506.2384
  20930460.710   -19034038.823 9 -14815618.68747  20930464.647    20930474.3294
  23866338.531    -4763852.242 8  -3451438.24945  23866336.363    23866352.0474
  21893635.318   -14996500.397 9 -11674062.54347  21893637.096    21893647.1874
  22167612.930   -12188286.485 8  -9482339.50847  22167612.782    22167623.6904
 00  4 27  0 40  0.0000000  0  5 17 26 06 23 09
  20033682.781   -25230876.688 9 -19646114.91048  20033688.043    20033697.6494
  20943643.210   -18964766.448 9 -14761640.23147  20943647.526    20943656.6974
  23884853.015    -4666465.688 7  -3375552.86245  23884866.940    23884883.4934
  21884754.224   -15043163.143 9 -11710423.04647  21884756.819    21884767.7014
  22151237.019   -12274312.581 8  -9549372.68747  22151242.149    22151253.5834
 00  4 27  0 40 30.0000000  0  5 17 26 06 23 09
  20031981.756   -25239836.553 9 -19653096.58948  20031983.205    20031992.6434
  20956892.772   -18895155.255 9 -14707397.76147  20956893.826    20956903.2464
  23903398.823    -4569031.927 8  -3299630.63745  23903409.020    23903424.4984
  21875894.742   -15089721.168 9 -11746701.92847  21875897.172    21875907.7264
  22134939.390   -12359978.988 8  -9616125.57247  22134940.544    22134952.1724
 00  4 27  0 41  0.0000000  0  5 17 26 06 23 09
  20030379.055   -25248251.614 9 -19659653.74748  20030381.678    20030391.1184
  20970199.989   -18825211.466 9 -14652896.11847  20970203.896    20970213.1434
  23921959.850    -4471538.798 8  -3223662.13345  23921962.411    23921976.5574
  21867057.438   -15136162.887 9 -11782890.18947  21867059.140    21867069.9274
  22118706.925   -12445279.781 8  -9682593.56747  22118708.630    22118719.9434
 00  4 27  0 41 30.0000000  0  6 17 26 03 06 23 09
  20028884.524   -25256101.383 9 -19665770.41848  20028887.841    20028897.3414
  20983573.331   -18754934.562 9 -14598134.89847  20983576.968    20983585.9894
  24640867.723    -1342548.66318  -1038701.54655  24640870.831    24640884.5434
  23940518.078    -4373979.620 8  -3147642.18145  23940527.020    23940542.5144
  21858239.155   -15182496.226 9 -11818993.99647  21858242.420    21858252.1404
  22102542.953   -12530226.082 8  -9748785.32247  22102543.683    22102555.3054
 00  4 27  0 42  0.0000000  0  6 17 26 03 06 23 09
  20027502.451   -25263373.223 9 -19671436.76048  20027504.142    20027513.6194
  20997011.956   -18684321.312 9 -14543111.58247  20997013.842    20997022.8904
  24633169.418    -1383009.401 8  -1070229.35045  24633170.132    24633182.2904
  23959095.505    -4276352.755 8  -3071569.50445  23959104.199    23959120.0624
  21849440.067   -15228732.066 9 -11855021.86647  21849444.615    21849453.7864
  22086441.497   -12614814.412 8  -9814698.15447  22086446.895    22086458.0594
 00  4 27  0 42 30.0000000  0  6 17 26 03 06 23 09
  20026226.898   -25270066.470 9 -19676652.24748  20026230.332    20026239.7624
  21010508.925   -18613387.369 9 -14487838.38047  21010512.559    21010521.5004
  24625552.325    -1423015.618 7  -1101402.95045  24625555.090    24625569.6994
  23977693.471    -4178667.948 8  -2995451.68145  23977693.977    23977710.3944
  21840662.189   -15274866.648 9 -11890970.82647  21840664.667    21840675.3534
  22070420.255   -12699039.798 9  -9880328.17947  22070419.550    22070430.0194
 00  4 27  0 43  0.0000000  0  6 17 26 03 06 23 09
  20025064.935   -25276179.927 9 -19681415.94648  20025066.801    20025076.2764
  21024064.718   -18542146.340 9 -14432325.90147  21024069.002    21024079.0364
  24618028.184    -1462535.523 7  -1132197.57945  24618034.311    24618048.6404
  23996279.808    -4080938.973 8  -2919299.45645  23996291.024    23996306.1034
  21831907.151   -15320884.206 9 -11926828.58447  21831908.801    21831918.4034
  22054452.052   -12782924.591 8  -9945692.81047  22054456.700    22054467.1414
 00  4 27  0 43 30.0000000  0  6 17 26 03 06 23 09
  20024013.610   -25281703.814 9 -19685720.24948  20024015.749    20024025.2744
  21037681.661   -18470596.712 9 -14376572.94547  21037684.410    21037693.7784
  24610614.222    -1501552.414 7  -1162600.26945  24610610.770    24610625.6994
  24014889.214    -3983169.743 8  -2843115.81145  24014896.747    24014911.5044
  21823169.672   -15366799.269 9 -11962606.47547  21823170.910    21823181.0404
  22038557.598   -12866467.955 8 -10010791.37647  22038558.425    22038569.7124
 00  4 27  0 44  0.0000000  0  6 17 26 03 06 23 09
  20023071.124   -25286653.475 9 -19689577.10848  20023073.813    20023083.5464
  21051355.077   -18398739.111 9 -14320580.01447  21051358.379    21051367.9874
  24603278.906    -1540060.154 7  -1192606.22845  24603282.948    24603298.4854
  24033507.097    -3885369.301 8  -2766907.85945  24033507.107    24033521.0454
  21814452.451   -15412606.865 9 -11998300.61847  21814453.702    21814464.0614
  22022726.865   -12949645.514 8 -10075604.90647  22022730.649    22022740.8554
 00  4 27  0 44 30.0000000  0  6 17 26 03 06 23 09
  20022236.747   -25291036.951 9 -19692992.78048  20022239.502    20022249.2154
  21065087.897   -18326579.707 9 -14264351.91047  21065090.348    21065099.3424
  24596048.963    -1578044.879 7  -1222204.65445  24596054.923    24596069.9774
  24052117.533    -3787545.864 7  -2690681.97945  24052120.705    24052138.1144
  21805757.805   -15458290.458 9 -12033898.16047  21805760.806    21805769.8384
  22006972.754   -13032455.414 8 -10140131.96547  22006972.089    22006983.1844
 00  4 27  0 45  0.0000000  0  6 17 26 03 06 23 09
  20021510.991   -25294852.751 9 -19695966.10948  20021513.469    20021523.1064
  21078882.269   -18254091.905 9 -14207867.91647  21078884.246    21078893.6374
  24588924.453    -1615506.226 7  -1251395.19845  24588925.580    24588941.3734
  24070745.044    -3689707.348 7  -2614444.34745  24070740.968    24070757.5684
  21797086.010   -15503854.334 9 -12069402.39047  21797089.211    21797099.2814
  21991280.664   -13114895.978 8 -10204371.20847  21991283.666    21991294.9854
 00  4 27  0 45 30.0000000  0  6 17 26 03 06 23 09
  20020894.135   -25298102.532 9 -19698498.38248  20020895.417    20020904.7844
  21092741.789   -18181255.492 9 -14151112.25947  21092744.251    21092753.7054
  24581890.053    -1652478.649 8  -1280204.82845  24581891.788    24581904.5634
  24089358.311    -3591855.613 7  -2538196.42645  24089360.458    24089377.1514
  21788441.568   -15549293.781 9 -12104809.67647  21788442.325    21788453.0714
  21975669.064   -13196940.081 8 -10268301.52347  21975671.851    21975682.6414
 00  4 27  0 46  0.0000000  0  7 17 26 21 03 06 23 09
  20020382.360   -25300786.420 9 -19700589.69848  20020384.455    20020393.9514
  21106666.934   -18108080.683 9 -14094092.94847  21106668.820    21106678.7294
  24964202.496     -211842.50017   -149175.46255  24964205.260    24964221.6294
  24574939.987    -1688965.257 7  -1308635.89845  24574946.974    24574961.4814
  24107964.624    -3493998.857 7  -2461944.69245  24107982.468    24107999.3214
  21779821.998   -15594592.243 9 -12140107.11747  21779822.909    21779832.9774
  21960135.095   -13278582.377 8 -10331918.77047  21960134.496    21960146.5714
 00  4 27  0 46 30.0000000  0  7 17 26 21 03 06 23 09
  20019980.426   -25302897.602 9 -19702234.75348  20019982.597    20019992.2584
  21120652.278   -18034574.970 9 -14036815.77147  21120656.037    21120665.7424
  24949482.007     -289175.359 7   -209434.62745  24949488.501    24949502.0554
  24568093.463    -1724957.657 7  -1336681.87945  24568097.855    24568112.5134
  24126586.900    -3396123.351 7  -2385678.27245  24126606.757    24126624.2704
  21771225.293   -15639754.548 9 -12175298.46747  21771229.050    21771239.0314
  21944673.043   -13359831.785 8 -10395229.84647  21944673.531    21944684.4604
 00  4 27  0 47  0.0000000  0  7 17 26 21 03 06 23 09
  20019688.189   -25304422.290 9 -19703422.79748  20019692.443    20019702.1184
  21134701.966   -17960743.376 9 -13979284.67047  21134706.600    21134715.6994
  24934767.862     -366531.724 7   -269712.17845  24934767.915    24934783.9334
  24561332.765    -1760454.881 7  -1364342.01145  24561342.998    24561357.4104
  24145236.368    -3298227.461 7  -2309395.94345  24145237.267    24145253.6534
  21762655.195   -15684793.091 9 -12210393.38247  21762657.818    21762667.8894
  21929284.188   -13440685.537 8 -10458232.63147  21929287.581    21929298.1054
 00  4 27  0 47 30.0000000  0  7 17 26 21 03 06 23 09
  20019512.188   -25305350.784 9 -19704146.28248  20019515.745    20019525.3164
  21148811.767   -17886616.819 9 -13921523.72447  21148812.220    21148821.6304
  24920045.653     -443911.947 7   -330008.31245  24920043.043    24920060.5784
  24554689.546    -1795442.434 7  -1391604.99245  24554685.834    24554698.9794
  24163871.849    -3200304.527 8  -2233092.58745  24163871.027    24163888.8384
  21754107.515   -15729714.428 9 -12245396.94647  21754109.651    21754120.2124
  21913974.575   -13521143.285 8 -10520926.84547  21913976.540    21913987.2884
 00  4 27  0 48  0.0000000  0  7 17 26 21 03 06 23 09
  20019448.357   -25305691.527 9 -19704411.77648  20019450.952    20019460.5124
  21162965.461   -17812221.615 9 -13863553.43947  21162969.422    21162978.6354
  24905310.915     -521322.743 7   -390328.25845  24905312.752    24905327.5874
  24548126.538    -1829893.660 7  -1418450.01945  24548128.068    24548143.6884
  24182504.422    -3102357.113 7  -2156770.17145  24182509.938    24182527.7474
  21745577.191   -15774538.939 9 -12280325.06047  21745579.966    21745589.9664
  21898733.470   -13601219.057 8 -10583323.42147  21898738.636    21898749.5864
 00  4 27  0 48 30.0000000  0  7 17 26 21 03 06 23 09
  20019496.041   -25305444.992 9 -19704219.65848  20019497.877    20019507.3324
  21177175.508   -17737549.128 9 -13805367.08747  21177178.561    21177188.0694
  24890570.922     -598768.805 7   -450675.70045  24890576.421    24890590.4814
  24541670.959    -1863819.809 8  -1444885.95145  24541674.012    24541686.8684
  24201146.636    -3004391.704 7  -2080433.71045  24201152.060    24201170.6364
  21737064.094   -15819271.997 9 -12315181.93147  21737066.964    21737077.6154
  21883573.160   -13680907.573 8 -10645418.23647  21883574.806    21883585.5984
 00  4 27  0 49  0.0000000  0  7 17 26 21 03 06 23 09
  20019654.095   -25304608.069 9 -19703567.48848  20019657.304    20019666.5544
  21191441.672   -17662592.026 9 -13746958.96547  21191442.718    21191452.2434
  24875822.611     -676250.316 7   -511050.80145  24875829.102    24875846.7054
  24535312.625    -1897226.302 7  -1470916.96845  24535316.508    24535329.7104
  24219789.179    -2906433.648 7  -2004103.01945  24219793.203    24219811.8264
  21728569.915   -15863904.423 9 -12349960.41347  21728573.560    21728584.1494
  21868484.601   -13760197.265 8 -10707202.27747  21868486.005    21868497.3624
 00  4 27  0 49 30.0000000  0  7 17 26 21 03 06 23 09
  20019924.353   -25303193.140 9 -19702464.92748  20019926.781    20019935.8354
  21205758.034   -17587346.861 9 -13688326.37247  21205760.961    21205770.7684
  24861081.147     -753767.396 7   -571453.58145  24861077.401    24861095.1624
  24529053.193    -1930121.958 7  -1496549.87445  24529054.998    24529069.6954
  24238423.561    -2808488.187 7  -1927782.11045  24238431.183    24238448.2394
  21720099.446   -15908430.800 9 -12384656.24747  21720101.126    21720111.1864
  21853474.237   -13839081.307 9 -10768670.22447  21853475.066    21853485.7444
 00  4 27  0 50  0.0000000  0  7 17 26 21 03 06 23 09
  20020302.686   -25301207.710 9 -19700917.81748  20020304.192    20020313.5474
  21220133.623   -17511803.200 9 -13629461.18347  21220136.669    21220146.3554
  24846312.026     -831334.342 7   -631895.21645  24846320.861    24846334.2494
  24522888.537    -1962518.817 7  -1521794.14345  24522891.092    24522905.8154
  24257057.415    -2710561.408 7  -1851475.70645  24257066.588    24257084.3584
  21711650.056   -15952833.009 9 -12419255.31447  21711651.275    21711661.7134
  21838538.086   -13917551.171 8 -10829815.44947  21838542.803    21838553.3494
 00  4 27  0 50 30.0000000  0  7 17 26 21 03 06 23 09
  20020788.434   -25298638.816 9 -19698916.06348  20020792.861    20020802.6714
  21234567.543   -17435948.995 9 -13570354.02447  21234571.404    21234581.5974
  24831546.150     -908948.196 7   -692373.42345  24831546.248    24831562.8024
  24516813.071    -1994430.752 7  -1546660.55245  24516818.092    24516831.1454
  24275695.022    -2612654.706 7  -1775185.02345  24275698.124    24275714.8574
  21703226.268   -15997096.767 9 -12453746.49547  21703228.588    21703238.7944
  21823691.915   -13995596.053 8 -10890629.50147  21823690.697    21823701.5814
 00  4 27  0 51  0.0000000  0  7 17 26 21 03 06 23 09
  20021392.240   -25295478.819 9 -19696453.70748  20021394.164    20021403.9754
  21249058.743   -17359799.992 9 -13511017.13847  21249062.220    21249071.9094
  24816767.941     -986603.576 7   -752883.96045  24816772.479    24816783.9974
  24510835.057    -2025849.218 7  -1571142.39145  24510839.606    24510854.5744
  24294335.844    -2514763.586 7  -1698906.48145  24294327.270    24294342.7424
  21694827.398   -16041225.670 9 -12488132.58847  21694830.952    21694841.0724
  21808915.032   -14073218.958 8 -10951114.76847  21808919.987    21808929.8104
 00  4 27  0 51 30.0000000  0  8 17 26 21 03 06 29 23 09
  20022106.726   -25291724.096 9 -19693527.92648  20022108.841    20022118.4354
  21263605.635   -17283368.440 9 -13451460.09147  21263606.707    21263615.9114
  24801981.732    -1064300.279 7   -813426.71045  24801984.606    24802000.5364
  24504954.860    -2056780.657 7  -1595244.77545  24504953.239    24504968.3004
  24312955.127    -2416876.732 7  -1622631.22845  24312953.298    24312970.8414
  24535758.219    -1484588.89017  -1135973.36555  24535764.737    24535781.8014
  21686456.285   -16085220.731 9 -12522414.38647  21686458.973    21686468.9014
  21794224.660   -14150425.861 8 -11011275.84347  21794227.149    21794238.5194
 00  4 27  0 52  0.0000000  0  8 17 26 21 03 06 29 23 09
  20022936.950   -25287359.295 9 -19690126.76248  20022939.420    20022948.8734
  21278201.431   -17206661.041 9 -13391688.10347  21278204.220    21278212.9074
  24787198.279    -1142034.050 7   -873998.39045  24787197.056    24787209.2674
  24499162.695    -2087206.657 7  -1618953.28645  24499163.093    24499177.7024
  24331581.333    -2318991.824 7  -1546357.50145  24331582.124    24331597.9174
  24517823.990    -1578878.336 7  -1209445.37045  24517821.231    24517837.8154
  21678112.384   -16129079.887 9 -12556590.28447  21678112.909    21678122.9704
  21779613.829   -14227213.174 8 -11071109.96747  21779615.224    21779625.8784
 00  4 27  0 52 30.0000000  0  8 17 26 21 03 06 29 23 09
  20023884.967   -25282376.334 9 -19686243.90648  20023887.613    20023897.0344
  21292848.850   -17129690.505 9 -13331711.05447  21292851.116    21292860.0754
  24772391.192    -1219794.346 7   -934590.64945  24772397.616    24772412.6424
  24493471.444    -2117114.679 7  -1642258.25045  24493472.985    24493485.3994
  24350214.732    -2221106.924 7  -1470083.76345  24350207.008    24350223.9044
  24499897.307    -1673065.594 7  -1282837.76545  24499898.526    24499914.8744
  21669787.799   -16172821.091 9 -12590674.25247  21669788.777    21669798.9734
  21765085.374   -14303569.200 8 -11130608.03247  21765085.122    21765095.6684
 00  4 27  0 53  0.0000000  0  8 17 26 21 03 06 29 23 09
  20024950.405   -25276778.536 9 -19681881.95748  20024952.920    20024962.3964
  21307544.938   -17052465.127 9 -13271535.44747  21307546.107    21307555.2694
  24757597.233    -1297586.504 7   -995207.82145  24757592.230    24757607.3124
  24487881.613    -2146492.267 7  -1665149.83345  24487883.233    24487895.8154
  24368834.873    -2123226.443 7  -1393813.54345  24368833.482    24368851.6094
  24481992.111    -1767128.427 7  -1356133.21345  24481999.745    24482015.0224
  21661484.548   -16216448.978 9 -12624669.93147  21661486.621    21661496.8134
  21750638.096   -14379486.678 9 -11189764.38347  21750638.346    21750648.8804
 00  4 27  0 53 30.0000000  0  8 17 26 21 03 06 29 23 09
  20026129.018   -25270581.710 9 -19677053.23648  20026132.166    20026141.7304
  21322287.663   -16974984.780 9 -13211161.14747  21322290.277    21322300.0104
  24742783.931    -1375415.118 7  -1055853.35245  24742783.312    24742799.6024
  24482395.545    -2175335.708 7  -1687625.19545  24482393.421    24482407.5484
  24387458.549    -2025354.482 7  -1317549.91745  24387458.625    24387477.4214
  24464137.007    -1861052.016 7  -1429320.13045  24464125.292    24464141.4504
  21653205.184   -16259962.487 9 -12658576.49347  21653206.889    21653216.7604
  21736273.721   -14454954.934 9 -11248570.69547  21736277.330    21736287.8214
 00  4 27  0 54  0.0000000  0  8 17 26 21 03 06 29 23 09
  20027419.751   -25263795.679 9 -19671765.38548  20027423.322    20027432.8344
  21337077.659   -16897255.674 9 -13150593.03147  21337081.148    21337091.0114
  24727956.714    -1453274.703 7  -1116522.99845  24727966.242    24727981.8834
  24477005.136    -2203635.245 7  -1709676.73545  24477007.297    24477020.6234
  24406077.423    -1927501.718 7  -1241301.26545  24406080.332    24406097.7834
  24446273.336    -1954823.585 7  -1502388.56545  24446280.143    24446296.3744
  21644941.926   -16303374.465 9 -12692403.92847  21644945.321    21644955.5944
  21722003.695   -14529971.600 9 -11307025.10747  21722001.967    21722012.6614
 00  4 27  0 54 30.0000000  0  8 17 26 21 03 06 29 23 09
  20028820.945   -25256437.876 9 -19666032.00248  20028823.699    20028833.0814
  21351917.195   -16819276.073 9 -13089829.71147  21351919.992    21351930.3454
  24713133.740    -1531165.543 7  -1177216.97845  24713142.894    24713159.1854
  24471715.320    -2231413.085 7  -1731321.74545  24471721.328    24471736.7744
  24424693.367    -1829680.225 7  -1165076.93745  24424695.168    24424713.4624
  24428460.516    -2048421.984 7  -1575322.09845  24428468.310    24428485.5934
  21636698.966   -16346688.856 9 -12726155.33947  21636702.402    21636712.5804
  21707802.025   -14604545.589 9 -11365134.58547  21707811.054    21707821.5534
 00  4 27  0 55  0.0000000  0  8 17 26 21 03 06 29 23 09
  20030328.604   -25248515.681 9 -19659858.84348  20030331.200    20030340.2184
  21366805.668   -16741031.550 9 -13028859.97347  21366809.683    21366819.5164
  24698327.760    -1609091.677 7  -1237938.51645  24698316.029    24698331.8484
  24466530.732    -2258681.743 7  -1752570.01245  24466532.965    24466546.7844
  24443287.809    -1731905.907 7  -1088889.43445  24443299.936    24443319.6774
  24410686.052    -2141841.733 7  -1648116.42445  24410691.155    24410706.9614
  21628481.351   -16389885.181 9 -12759814.78747  21628483.305    21628492.7474
  21693701.278   -14678702.418 9 -11422918.98147  21693699.987    21693709.8864
 00  4 27  0 55 30.0000000  0  8 17 26 21 03 06 29 23 09
  20031943.921   -25240023.475 9 -19653241.51548  20031946.794    20031956.0524
  21381745.148   -16662524.090 9 -12967685.32847  21381749.144    21381758.9184
  24683479.670    -1687039.352 7  -1298676.81345  24683482.567    24683499.4044
  24461438.162    -2285447.288 7  -1773426.18745  24461439.556    24461453.9544
  24461890.105    -1634181.238 7  -1012740.57545  24461897.076    24461915.0904
  24392948.967    -2235086.808 7  -1720774.62145  24392947.549    24392963.9234
  21620283.994   -16432960.627 9 -12793380.06447  21620286.049    21620295.4094
  21679660.194   -14752450.089 9 -11480384.57747  21679665.365    21679675.7554
 00  4 27  0 56  0.0000000  0  8 17 26 21 03 06 29 23 09
  20033668.672   -25230956.148 9 -19646176.03948  20033672.218    20033681.8064
  21396739.344   -16583738.214 9 -12906293.73947  21396741.483    21396751.4354
  24668631.769    -1765008.298 7  -1359431.68845  24668644.580    24668660.9424
  24456435.080    -2311714.029 7  -1793893.71845  24456442.856    24456456.1624
  24480469.045    -1536516.170 7   -936638.13345  24480483.316    24480499.9124
  24375231.257    -2328155.475 8  -1793295.35945  24375238.609    24375254.2824
  21612109.604   -16475919.138 9 -12826854.18847  21612110.925    21612120.6064
  21665705.153   -14825788.821 9 -11537531.50547  21665709.503    21665720.0304
 00  4 27  0 56 30.0000000  0  8 17 26 21 03 06 29 23 09
  20035505.002   -25221309.304 9 -19638659.00148  20035508.237    20035517.3914
  21411788.530   -16504658.926 9 -12844673.53747  21411789.900    21411799.9894
  24653799.031    -1842999.180 7  -1420203.65345  24653804.531    24653821.0764
  24451530.611    -2337485.080 7  -1813974.97245  24451537.355    24451551.3674
  24499057.670    -1438909.495 7   -860581.20445  24499055.258    24499074.0654
  24357564.684    -2421047.602 7  -1865678.53945  24357560.946    24357576.1074
  21603960.289   -16518739.861 9 -12860220.93047  21603962.304    21603972.1934
  21651834.747   -14898701.239 9 -11594346.25747  21651834.900    21651845.3944
 00  4 27  0 57  0.0000000  0  8 17 26 21 03 06 29 23 09
  20037454.803   -25211069.614 9 -19630679.99948  20037456.626    20037465.9374
  21426888.813   -16425289.072 9 -12782826.91947  21426893.312    21426903.6914
  24638957.927    -1921005.750 7  -1480987.84345  24638958.878    24638974.7714
  24446732.847    -2362738.275 7  -1833652.72645  24446730.529    24446745.7584
  24517618.874    -1341356.912 7   -784566.43745  24517621.623    24517639.1144
  24339908.117    -2513774.616 8  -1937933.08045  24339915.768    24339929.4454
  21595839.483   -16561416.593 9 -12893475.52247  21595841.191    21595850.9064
  21638038.866   -14971170.611 9 -11650815.77347  21638044.149    21638054.5054
 00  4 27  0 57 30.0000000  0  7 17 26 21 03 29 23 09
  20039515.222   -25200230.136 9 -19622233.62648  20039519.234    20039528.6114
  21442045.086   -16345641.546 9 -12720763.93447  21442050.167    21442059.9664
  24624108.873    -1999028.063 7  -1541784.28145  24624110.610    24624127.4714
  24442027.543    -2387455.484 7  -1852912.82945  24442026.906    24442042.3254
  24322302.642    -2606339.125 8  -2010060.99445  24322301.103    24322314.8374
  21587741.696   -16603967.353 9 -12926631.93747  21587744.082    21587753.8084
  21624338.939   -15043166.075 9 -11706916.03147  21624343.768    21624353.4784
 00  4 27  0 58  0.0000000  0  7 17 26 21 03 29 23 09
  20041693.898   -25188793.417 9 -19613321.87448  20041695.798    20041705.0254
  21457256.898   -16265722.348 9 -12658489.25447  21457258.680    21457267.6684
  24609263.077    -2077077.302 7  -1602601.69445  24609259.498    24609275.0664
  24437422.515    -2411626.878 7  -1871747.59545  24437428.022    24437442.7214
  24304719.443    -2698743.854 8  -2082064.34745  24304717.010    24304730.0004
  21579668.499   -16646385.727 9 -12959685.16047  21579671.697    21579681.9944
  21610733.371   -15114680.082 9 -11762641.10347  21610735.054    21610744.4244
 00  4 27  0 58 30.0000000  0  7 17 26 21 03 29 23 09
  20043986.180   -25176747.639 9 -19603935.52848  20043988.088    20043997.1584
  21472512.979   -16185559.349 9 -12596024.60047  21472513.465    21472522.2644
  24594400.449    -2155151.231 7  -1663438.37045  24594400.653    24594418.0764
  24432934.468    -2435239.025 7  -1890146.63045  24432935.014    24432949.0324
  24287162.523    -2791001.782 7  -2153953.26445  24287158.911    24287174.4264
  21571625.258   -16688661.031 9 -12992626.87947  21571627.417    21571637.5974
  21597212.585   -15185714.787 9 -11817992.70247  21597217.259    21597227.1944
 00  4 27  0 59  0.0000000  0  7 17 26 21 03 29 23 09
  20046395.028   -25164082.903 9 -19594066.88948  20046397.909    20046407.1224
  21487804.832   -16105173.112 9 -12533385.98847  21487810.652    21487819.5374
  24579533.996    -2233252.348 7  -1724296.25445  24579541.172    24579553.3444
  24428542.224    -2458294.774 7  -1908112.08945  24428546.567    24428562.2034
  24269618.990    -2883110.323 7  -2225725.77745  24269630.659    24269645.7944
  21563601.403   -16730820.952 9 -13025478.67547  21563604.706    21563614.6804
  21583785.936   -15256280.801 9 -11872979.08047  21583788.712    21583798.9024
 00  4 27  0 59 30.0000000  0  7 17 26 21 03 29 23 09
  20048920.823   -25150806.439 9 -19583721.57348  20048924.367    20048933.7874
  21503141.878   -16024577.917 9 -12470584.55847  21503146.602    21503156.4074
  24564661.442    -2311381.626 7  -1785176.08045  24564671.307    24564688.5704
  24424259.921    -2480812.431 7  -1925658.20245  24424261.340    24424276.9954
  24252130.969    -2975062.282 7  -2297376.24645  24252133.123    24252149.6044
  21555602.826   -16772874.003 9 -13058247.21147  21555602.674    21555612.0144
  21570449.314   -15326375.955 9 -11927598.57247  21570450.252    21570460.4164
 00  4 27  1  0  0.0000000  0  7 17 26 21 03 29 23 09
  20051563.512   -25136924.850 9 -19572904.73648  20051565.995    20051575.4104
  21518517.675   -15943770.265 9 -12407617.57847  21518523.823    21518533.4814
  24549795.436    -2389535.150 7  -1846074.77745  24549799.078    24549815.7214
  24420073.114    -2502819.972 7  -1942806.85445  24420075.793    24420087.3274
  24234649.143    -3066865.812 7  -2368911.13045  24234661.779    24234679.2484
  21547620.921   -16814814.867 9 -13090928.32947  21547621.180    21547630.6294
  21557194.996   -15396011.070 9 -11981859.58347  21557199.193    21557208.9824
 00  4 27  1  0 30.0000000  0  7 17 26 21 03 29 23 09
  20054318.428   -25122437.703 9 -19561616.03648  20054322.689    20054332.0174
  21533941.021   -15862745.579 9 -12344481.48647  21533942.499    21533951.5914
  24534933.014    -2467702.666 7  -1906984.44545  24534926.926    24534940.6794
  24415978.559    -2524338.249 7  -1959574.29045  24415980.273    24415994.9194
  24217223.079    -3158511.954 7  -2440323.36545  24217222.553    24217238.4124
  21539658.880   -16856652.738 9 -13123529.19247  21539659.210    21539669.4474
  21544037.347   -15465186.178 9 -12035762.15047  21544035.823    21544045.7264
 00  4 27  1  1  0.0000000  0  7 17 26 21 03 29 23 09
  20057192.558   -25107345.227 9 -19549855.65048  20057194.826    20057203.8414
  21549405.441   -15781487.991 9 -12281163.89947  21549404.952    21549414.0644
  24520037.018    -2545883.401 7  -1967904.32545  24520048.252    24520061.2274
  24411978.194    -2545385.445 7  -1975974.62945  24411974.114    24411986.7404
  24199810.598    -3249995.488 7  -2511608.96745  24199814.068    24199830.5554
  21531715.197   -16898387.892 9 -13156050.02447  21531717.792    21531727.1684
  21530958.076   -15533901.286 9 -12089306.27847  21530959.368    21530969.1364
 00  4 27  1  1 30.0000000  0  7 17 26 21 03 29 23 09
  20060176.889   -25091656.756 9 -19537630.84648  20060180.183    20060189.1584
  21564914.840   -15699982.831 9 -12217653.39847  21564915.468    21564924.2684
  24505164.616    -2624077.706 7  -2028834.78445  24505168.718    24505182.8734
  24408058.244    -2565957.807 7  -1992004.96145  24408059.624    24408073.4474
  24182433.735    -3341322.969 8  -2582772.89245  24182436.517    24182449.6704
  21523799.085   -16939993.703 9 -13188470.08247  21523800.300    21523809.5184
  21517969.445   -15602151.289 9 -12142487.99647  21517971.181    21517981.4794
 00  4 27  1  2  0.0000000  0  7 17 26 21 03 29 23 09
  20063278.704   -25075363.054 9 -19524934.43748  20063280.910    20063290.1664
  21580470.612   -15618225.701 9 -12153946.56147  21580473.788    21580482.4894
  24490274.005    -2702294.351 7  -2089782.62245  24490284.557    24490298.3314
  24404228.648    -2586041.565 7  -2007654.56945  24404237.458    24404251.5454
  24165079.357    -3432500.575 7  -2653820.00945  24165084.419    24165098.5284
  21515906.317   -16981454.433 9 -13220777.05447  21515909.836    21515919.4254
  21505067.379   -15669946.196 9 -12195315.08347  21505070.649    21505080.5124
 00  4 27  1  2 30.0000000  0  7 17 26 21 03 29 23 09
  20066493.759   -25058461.420 9 -19511764.32348  20066497.215    20066506.4514
  21596075.307   -15536221.123 9 -12090046.90047  21596078.350    21596087.1104
  24475392.713    -2780538.422 7  -2150751.84545  24475393.595    24475410.0034
  24400515.043    -2605614.039 7  -2022905.78745  24400514.767    24400526.4574
  24147753.806    -3523514.116 7  -2724739.32645  24147764.375    24147780.0214
  21508049.639   -17022758.758 9 -13252962.16047  21508050.928    21508059.3684
  21492254.948   -15737276.530 9 -12247780.18147  21492258.208    21492268.0134
 00  4 27  1  3  0.0000000  0  7 17 26 21 03 29 23 09
  20069823.489   -25040961.229 9 -19498127.79748  20069827.240    20069836.3834
  21611726.510   -15453972.594 9 -12025957.13647  21611729.543    21611738.6034
  24460495.091    -2858824.475 7  -2211753.80945  24460497.696    24460510.9574
  24396883.272    -2624656.346 7  -2037743.89745  24396888.873    24396903.7394
  24130470.224    -3614365.950 7  -2795532.66745  24130476.571    24130490.0224
  21500217.758   -17063901.326 9 -13285021.25747  21500221.351    21500230.1874
  21479537.130   -15804130.730 9 -12299874.25447  21479536.062    21479546.0134
 00  4 27  1  3 30.0000000  0  7 17 26 21 03 29 23 09
  20073265.696   -25022880.337 9 -19484038.77748  20073268.064    20073276.9734
  21627421.328   -15371494.774 8 -11961688.71547  21627423.964    21627433.7094
  24445589.490    -2937157.629 7  -2272792.42045  24445592.521    24445605.5694
  24393368.213    -2643151.298 7  -2052155.52345  24393370.155    24393384.2094
  24113219.209    -3705044.377 7  -2866190.91345  24113219.991    24113234.9994
  21492420.409   -17104886.057 9 -13316957.38647  21492422.178    21492431.3754
  21466901.730   -15870492.753 9 -12351584.81347  21466907.182    21466917.5824
 00  4 27  1  4  0.0000000  0  7 17 26 21 03 29 23 09
  20076815.569   -25004223.817 9 -19469501.21448  20076818.268    20076827.4464
  21643153.207   -15288797.341 9 -11897249.17447  21643161.185    21643170.4724
  24430680.522    -3015550.900 7  -2333877.89345  24430671.312    24430683.8144
  24389953.507    -2661096.504 7  -2066138.76945  24389955.972    24389969.3344
  24095998.629    -3795542.600 8  -2936708.74245  24096000.124    24096013.5874
  21484649.184   -17145726.767 9 -13348781.28947  21484650.668    21484659.5174
  21454369.506   -15936362.870 9 -12402912.07247  21454373.088    21454383.2144
 00  4 27  1  4 30.0000000  0  7 17 26 21 03 29 23 09
  20080472.662   -24984999.120 9 -19454520.91648  20080475.994    20080485.7694
  21658938.528   -15205869.515 9 -11832630.10047  21658941.711    21658950.8294
  24415742.306    -3094003.987 7  -2395010.01045  24415744.503    24415757.1794
  24386638.594    -2678496.760 7  -2079697.34845  24386644.336    24386658.8884
  24078811.188    -3885856.153 8  -3007082.63545  24078812.922    24078827.6384
  21476900.371   -17186444.535 9 -13380509.36747  21476902.334    21476910.8104
  21441933.850   -16001719.703 9 -12453839.36747  21441936.186    21441945.6194
 00  4 27  1  5  0.0000000  0  7 17 26 21 03 29 23 09
  20084241.480   -24965198.456 9 -19439091.81748  20084243.977    20084253.3704
  21674762.614   -15122711.170 9 -11767831.40247  21674767.087    21674775.9694
  24400799.151    -3172514.176 7  -2456186.53845  24400803.124    24400817.1814
  24383438.713    -2695356.609 7  -2092834.85345  24383436.371    24383449.3714
  24061649.884    -3975995.508 7  -3077320.76545  24061658.989    24061674.1704
  21469171.806   -17227051.482 9 -13412151.07247  21469174.491    21469183.8954
  21429594.310   -16066556.748 9 -12504361.63847  21429597.619    21429606.9044
 00  4 27  1  5 30.0000000  0  7 17 26 21 03 29 23 09
  20088120.651   -24944808.900 9 -19423203.83748  20088124.292    20088133.7224
  21690630.735   -15039322.571 9 -11702853.26547  21690634.918    21690644.0154
  24385851.284    -3251070.011 7  -2517398.64945  24385853.024    24385868.6314
  24380328.583    -2711695.092 7  -2105566.11745  24380323.898    24380340.8964
  24044537.998    -4065963.756 8  -3147425.58145  24044538.983    24044553.4604
  21461466.166   -17267546.707 9 -13443705.72347  21461468.652    21461478.1414
  21417356.259   -16130884.703 9 -12554487.22047  21417356.123    21417365.2604
 00  4 27  1  6  0.0000000  0  7 17 26 21 03 29 23 09
  20092117.673   -24923808.774 9 -19406840.08948  20092120.324    20092129.7714
  21706545.995   -14955708.393 8 -11637699.36047  21706545.678    21706555.2964
  24370894.684    -3329659.382 7  -2578636.90745  24370898.667    24370912.2934
  24377310.842    -2727529.405 7  -2117904.53345  24377313.271    24377327.7474
  24027448.342    -4155767.045 7  -3217401.89945  24027449.544    24027464.7284
  21453783.827   -17307926.087 9 -13475170.09047  21453785.095    21453794.7434
  21405205.332   -16194711.348 9 -12604222.17247  21405210.412    21405220.2784
 00  4 27  1  6 30.0000000  0  7 17 26 21 03 29 23 09
  20096233.260   -24902180.494 9 -19389986.86748  20096235.974    20096245.2234
  21722491.284   -14871886.061 8 -11572383.27047  21722495.818    21722506.0584
  24355938.733    -3408254.444 8  -2639879.55945  24355944.016    24355958.6434
  24374393.986    -2742854.362 7  -2129846.03045  24374397.857    24374411.4064
  24010394.286    -4245401.946 8  -3287246.96845  24010392.365    24010406.4804
  21446122.745   -17348183.052 9 -13506539.07847  21446124.063    21446133.2614
  21393161.186   -16258022.659 9 -12653555.56447  21393162.528    21393172.3794
 00  4 27  1  7  0.0000000  0  7 17 26 21 03 29 23 09
  20100468.009   -24879924.821 9 -19372644.77548  20100471.186    20100480.3974
  21738481.190   -14787874.843 8 -11506920.00947  21738482.831    21738493.2874
  24340985.639    -3486836.925 8  -2701112.54045  24340989.762    24341004.2344
  24371581.199    -2757668.121 7  -2141389.20245  24371579.268    24371592.3254
  23993364.033    -4334864.952 8  -3356958.13545  23993367.790    23993380.9804
  21438487.626   -17388296.559 9 -13537796.30448  21438490.758    21438500.3274
  21381205.212   -16320832.288 9 -12702498.02347  21381210.355    21381220.0274
 00  4 27  1  7 30.0000000  0  7 17 26 21 03 29 23 09
  20104825.027   -24857041.317 9 -19354813.46048  20104825.983    20104835.0894
  21754502.386   -14703689.070 9 -11441320.72747  21754503.577    21754512.5814
  24326033.461    -3565399.714 7  -2762330.07745  24326038.684    24326052.2194
  24368852.801    -2771961.475 7  -2152526.81145  24368859.085    24368871.1054
  23976379.341    -4424144.478 8  -3426526.29945  23976378.894    23976392.0094
  21430883.979   -17428262.894 9 -13568938.84948  21430885.414    21430895.1094
  21369348.360   -16383148.004 9 -12751055.63747  21369351.941    21369361.0854
 00  4 27  1  8  0.0000000  0  7 17 26 21 03 29 23 09
  20109297.871   -24833529.510 9 -19336492.56448  20109299.966    20109309.0844
  21770552.074   -14619337.687 9 -11375592.36747  21770555.483    21770564.2184
  24311083.829    -3643949.845 7  -2823537.74645  24311090.963    24311105.8754
  24366239.608    -2785705.517 7  -2163236.40045  24366241.815    24366257.1934
  23959428.401    -4513237.356 8  -3495949.08145  23959425.011    23959437.5214
  21423305.565   -17468086.847 9 -13599970.45648  21423306.801    21423316.8304
  21357588.164   -16444956.587 9 -12799218.07447  21357590.182    21357599.5894
 00  4 27  1  8 30.0000000  0  7 17 26 21 03 29 23 09
  20113887.618   -24809404.975 9 -19317694.21348  20113890.938    20113899.9404
  21786640.380   -14534805.115 9 -11309722.83447  21786641.750    21786650.7684
  24296138.283    -3722498.101 7  -2884743.98445  24296143.228    24296158.4954
  24363727.977    -2798894.372 7  -2173513.39345  24363733.825    24363746.7574
  23942501.818    -4602145.116 8  -3565227.61545  23942506.866    23942519.2904
  21415754.369   -17507767.060 9 -13630890.06247  21415756.060    21415765.6064
  21345919.844   -16506257.609 9 -12846985.01147  21345924.820    21345934.5784
 00  4 27  1  9  0.0000000  0  7 17 26 21 03 29 23 09
  20118593.374   -24784676.201 9 -19298425.02848  20118596.523    20118605.7484
  21802764.021   -14450068.673 8 -11243694.44947  21802766.275    21802775.7014
  24281181.412    -3801063.499 7  -2945963.57945  24281192.769    24281207.8804
  24361319.484    -2811547.206 7  -2183372.72045  24361325.210    24361339.9544
  23925620.475    -4690868.805 7  -3634362.71045  23925622.116    23925636.2444
  21408229.902   -17547305.966 9 -13661699.54948  21408231.891    21408241.6574
  21334352.211   -16567067.136 9 -12894368.96647  21334352.741    21334362.6424
 00  4 27  1  9 30.0000000  0  7 17 26 21 03 29 23 09
  20123414.092   -24759340.630 9 -19278683.02148  20123417.598    20123426.7394
  21818931.337   -14365123.726 8 -11177503.60347  21818930.339    21818940.2144
  24266227.187    -3879666.073 7  -3007212.19545  24266235.218    24266249.6464
  24359018.838    -2823670.535 7  -2192819.41445  24359019.032    24359032.4444
  23908775.506    -4779409.802 7  -3703355.40245  23908771.590    23908786.5734
  21400728.979   -17586722.359 9 -13692413.55747  21400731.202    21400740.8454
  21322868.962   -16627387.696 9 -12941371.91347  21322874.424    21322883.6124
 00  4 27  1 10  0.0000000  0  7 17 26 21 03 29 23 09
  20128351.197   -24733413.738 9 -19258480.23948  20128351.588    20128360.3704
  21835133.506   -14279958.862 8 -11111141.39647  21835136.969    21835146.7674
  24251265.476    -3958303.826 8  -3068488.17245  24251271.967    24251286.0224
  24356804.463    -2835286.048 7  -2201870.43845  24356806.912    24356821.9394
  23891956.531    -4867773.082 8  -3772209.60045  23891956.385    23891970.8784
  21393251.270   -17626017.161 9 -13723032.81847  21393253.526    21393262.9914
  21311489.677   -16687210.963 9 -12987987.35747  21311489.983    21311499.6494
 00  4 27  1 10 30.0000000  0  7 17 26 21 03 29 23 09
  20133394.311   -24706897.109 9 -19237817.92548  20133397.404    20133406.5404
  21851381.912   -14194573.722 8 -11044607.54447  21851384.759    21851394.7864
  24236293.007    -4036973.007 7  -3129788.64745  24236298.345    24236315.2514
  24354686.598    -2846417.802 7  -2210544.47345  24354688.508    24354703.4744
  23875177.406    -4955952.853 8  -3840920.85745  23875177.621    23875190.3954
  21385797.914   -17665189.920 9 -13753556.98748  21385799.773    21385808.8954
  21300198.466   -16746537.074 9 -13034215.40947  21300200.558    21300210.3244
 00  4 27  1 11  0.0000000  0  7 17 26 21 03 29 23 09
  20138555.626   -24679775.641 9 -19216684.30148  20138558.415    20138567.4894
  21867669.733   -14108988.967 9 -10977918.14147  21867671.560    21867680.9554
  24221320.180    -4115666.697 8  -3191108.21445  24221325.278    24221340.5054
  24352660.913    -2857055.856 7  -2218833.82045  24352663.664    24352678.7004
  23858428.283    -5043942.474 8  -3909483.95345  23858433.887    23858446.8794
  21378364.951   -17704248.601 9 -13783992.26648  21378366.853    21378376.1004
  21289004.268   -16805354.295 9 -13080046.91347  21289007.967    21289018.1484
 00  4 27  1 11 30.0000000  0  7 17 26 21 03 29 23 09
  20143834.540   -24652040.083 9 -19195072.17748  20143835.949    20143845.0894
  21883990.952   -14023224.033 9 -10911088.33847  21883992.739    21884001.7044
  24206347.018    -4194382.450 8  -3252445.04345  24206347.573    24206361.3074
  24350733.123    -2867191.053 7  -2226731.39045  24350735.977    24350750.5604
  23841726.795    -5131740.031 8  -3977897.38645  23841725.929    23841739.7744
  21370954.471   -17743189.328 9 -13814335.65447  21370956.133    21370965.5984
  21277916.174   -16863637.707 9 -13125462.46547  21277917.018    21277926.8604
 00  4 27  1 12  0.0000000  0  7 17 26 21 03 29 23 09
  20149230.534   -24623687.931 9 -19172979.59148  20149231.739    20149240.3204
  21900342.027   -13937289.087 8 -10844126.06747  21900345.155    21900354.2864
  24191363.731    -4273118.478 8  -3313797.70145  24191364.085    24191377.1604
  24348902.539    -2876814.287 7  -2234230.01845  24348903.371    24348918.7724
  23825055.708    -5219335.264 8  -4046153.12445  23825056.933    23825068.3914
  21363571.609   -17781993.457 9 -13844572.59347  21363572.261    21363580.8734
  21266933.365   -16921364.011 9 -13170443.91647  21266932.254    21266941.7934
 00  4 27  1 12 30.0000000  0  7 17 26 21 03 29 23 09
  20154743.188   -24594712.282 9 -19150401.15548  20154745.554    20154754.2734
  21916726.900   -13851190.879 8 -10777036.56847  21916728.683    21916738.1764
  24176372.314    -4351887.338 8  -3375175.89145  24176374.281    24176387.0864
  24347169.550    -2885905.109 7  -2241313.74845  24347174.192    24347189.8634
  23808428.804    -5306721.445 8  -4114245.99545  23808427.852    23808440.8494
  21356213.959   -17820653.383 9 -13874697.14847  21356215.402    21356224.7534
  21256049.528   -16978525.389 9 -13214985.17047  21256054.379    21256064.1474
 00  4 27  1 13  0.0000000  0  7 17 26 21 03 29 23 09
  20160373.854   -24565125.262 9 -19127346.33248  20160375.666    20160384.7034
  21933138.609   -13764927.083 8 -10709818.04747  21933144.116    21933153.9234
  24161378.481    -4430681.366 8  -3436573.67645  24161380.982    24161393.5104
  24345547.050    -2894448.524 7  -2247970.94845  24345548.577    24345562.3334
  23791836.446    -5393901.462 8  -4182178.19045  23791837.254    23791850.0054
  21348886.948   -17859158.871 9 -13904701.35847  21348887.851    21348897.2464
  21245281.029   -17035119.205 9 -13259084.15847  21245284.941    21245294.8104
 00  4 27  1 13 30.0000000  0  7 17 26 21 03 29 23 09
  20166117.118   -24534941.521 9 -19103826.53348  20166119.294    20166128.5444
  21949590.358   -13678490.323 8 -10642464.74947  21949592.557    21949602.0104
  24146384.243    -4509495.711 8  -3497987.28745  24146383.063    24146395.6944
  24344023.249    -2902454.178 7  -2254209.10145  24344025.704    24344039.0454
  23775286.102    -5480874.640 8  -4249949.25645  23775286.795    23775299.0164
  21341586.711   -17897502.745 9 -13934579.63747  21341591.107    21341600.1614
  21234620.579   -17091150.690 9 -13302744.97347  21234622.505    21234632.1034
 00  4 27  1 14  0.0000000  0  7 17 26 21 03 29 23 09
  20171970.146   -24504180.462 9 -19079856.88348  20171972.545    20171982.1744
  21966072.622   -13591875.965 8 -10574973.05247  21966074.711    21966084.5064
  24131379.386    -4588325.140 8  -3559412.65845  24131380.918    24131394.2624
  24342597.195    -2909928.007 7  -2260032.87045  24342603.237    24342617.0784
  23758769.646    -5567645.553 8  -4317562.73645  23758774.396    23758788.2764
  21334322.618   -17935684.712 9 -13964331.75547  21334325.401    21334334.6734
  21224063.842   -17146625.470 9 -13345972.00347  21224066.203    21224075.6354
 00  4 27  1 14 30.0000000  0  7 17 26 21 03 29 23 09
  20177933.559   -24472845.863 9 -19055440.31348  20177935.958    20177944.9644
  21982587.112   -13505081.836 8 -10507341.27347  21982591.605    21982600.7384
  24116373.911    -4667160.712 8  -3620842.83645  24116378.875    24116390.8624
  24341276.425    -2916878.718 7  -2265448.95545  24341280.027    24341294.7864
  23742294.369    -5654231.190 8  -4385031.76545  23742298.267    23742311.0094
  21327085.124   -17973720.580 9 -13993970.01647  21327087.030    21327096.2694
  21213612.182   -17201553.948 9 -13388773.32847  21213613.995    21213623.0174
 00  4 27  1 15  0.0000000  0  7 17 26 21 03 29 23 09
  20184008.457   -24440927.517 9 -19030568.87448  20184009.902    20184018.7564
  21999137.578   -13418113.962 8 -10439574.11747  21999140.689    21999150.6114
  24101378.901    -4745999.778 8  -3682275.74945  24101376.555    24101389.6114
  24340051.655    -2923324.072 7  -2270471.30545  24340054.513    24340068.8634
  23725851.295    -5740640.130 8  -4452363.12245  23725854.375    23725868.0334
  21319874.432   -18011611.610 9 -14023495.43847  21319877.000    21319885.7614
  21203259.854   -17255954.957 9 -13431163.64847  21203261.498    21203270.5034
 00  4 27  1 15 30.0000000  0  7 17 26 21 03 29 23 09
  20190193.078   -24408420.093 9 -19005238.41148  20190195.608    20190204.7114
  22015713.991   -13330982.007 8 -10371679.10147  22015721.138    22015730.6814
  24086367.795    -4824858.554 8  -3743723.97345  24086369.964    24086384.1604
  24338918.297    -2929281.595 7  -2275113.52145  24338921.436    24338934.5484
  23709439.015    -5826885.720 8  -4519567.18445  23709443.583    23709454.8384
  21312690.514   -18049363.815 9 -14052912.69347  21312692.834    21312701.9824
  21193004.525   -17309830.618 9 -13473144.59947  21193009.191    21193018.5094
 00  4 27  1 16  0.0000000  0  7 17 26 21 03 29 23 09
  20196490.619   -24375329.096 9 -18979453.22048  20196492.694    20196501.4594
  22032331.961   -13243689.871 8 -10303659.27547  22032331.913    22032342.2704
  24071359.117    -4903746.576 8  -3805194.97845  24071358.010    24071371.5814
  24337872.205    -2934744.019 7  -2279369.92545  24337881.735    24337893.8644
  23693057.071    -5912976.755 8  -4586650.83945  23693058.793    23693071.4004
  21305532.033   -18086979.034 9 -14082223.19247  21305535.042    21305543.9704
  21182854.859   -17363180.791 9 -13514716.09847  21182856.842    21182865.9214
 00  4 27  1 16 30.0000000  0  7 17 26 21 03 29 23 09
  20202900.295   -24341641.647 9 -18953203.25848  20202903.059    20202911.9854
  22048970.366   -13156240.234 8 -10235516.71846  22048973.235    22048982.3584
  24056332.289    -4982669.001 8  -3866692.80745  24056339.926    24056352.5634
  24336941.179    -2939695.822 7  -2283228.43445  24336938.914    24336954.7574
  23676709.501    -5998909.792 8  -4653611.37245  23676706.925    23676718.4774
  21298400.697   -18124447.782 9 -14111419.57647  21298404.732    21298413.4094
  21172799.750   -17416012.988 9 -13555883.96147  21172803.393    21172812.2264
 00  4 27  1 17  0.0000000  0  7 17 26 21 03 29 23 09
  20209425.871   -24307357.227 9 -18926488.12548  20209427.374    20209436.1024
  22065643.834   -13068619.154 8 -10167240.56947  22065647.008    22065656.2784
  24041314.441    -5061624.009 8  -3928215.98445  24041315.914    24041327.5824
  24336086.340    -2944130.879 7  -2286684.29745  24336093.665    24336108.4604
  23660375.507    -6084669.055 7  -4720436.47845  23660385.742    23660400.7874
  21291300.048   -18161763.185 9 -14140496.46747  21291303.676    21291312.5134
  21162845.266   -17468324.681 9 -13596646.25347  21162848.113    21162857.5524
 00  4 27  1 17 30.0000000  0  7 17 26 21 03 29 23 09
  20216059.907   -24272489.323 9 -18899318.32548  20216062.419    20216071.3574
  22082352.566   -12980813.674 8 -10098820.73447  22082356.608    22082365.6934
  24026283.712    -5140606.622 8  -3989760.72046  24026286.055    24026298.4394
  24335343.731    -2948033.265 7  -2289725.12145  24335350.981    24335366.6174
  23644100.707    -6170243.748 8  -4787117.74945  23644102.986    23644115.3674
  21284228.546   -18198929.506 9 -14169457.19247  21284231.161    21284240.6034
  21152994.505   -17520091.872 9 -13636984.25947  21152997.524    21153006.8254
 00  4 27  1 18  0.0000000  0  7 17 26 21 03 29 23 09
  20222807.966   -24237025.039 9 -18871683.82348  20222810.865    20222820.0414
  22099103.317   -12892815.570 8 -10030250.79747  22099101.921    22099111.4004
  24011247.014    -5219605.897 8  -4051318.44545  24011251.089    24011264.3804
  24334710.103    -2951394.422 7  -2292344.14045  24334709.581    24334726.3794
  23627853.460    -6255617.635 8  -4853642.55946  23627856.568    23627869.0284
  21277184.873   -18235944.593 9 -14198300.06347  21277187.163    21277196.3304
  21143251.413   -17571303.640 9 -13676889.45947  21143252.898    21143261.4074
 00  4 27  1 18 30.0000000  0  7 17 26 21 03 29 23 09
  20229672.679   -24200948.082 9 -18843571.90748  20229676.396    20229685.2344
  22115877.377   -12804629.646 8  -9961534.51447  22115883.376    22115892.7274
  23996209.393    -5298618.798 8  -4112886.77845  23996216.563    23996228.6444
  24334173.150    -2954226.978 7  -2294551.27745  24334174.865    24334187.7994
  23611645.431    -6340779.609 8  -4920002.27146  23611650.168    23611663.5794
  21270166.976   -18272815.861 9 -14227030.86247  21270170.845    21270179.9604
  21133609.393   -17621953.137 9 -13716356.51847  21133613.736    21133622.7924
 00  4 27  1 19  0.0000000  0  7 17 26 21 03 29 23 09
  20236654.185   -24164268.692 9 -18814990.56348  20236656.301    20236665.1464
  22132697.748   -12716257.478 8  -9892673.11047  22132699.564    22132709.5044
  23981177.272    -5377643.458 8  -4174464.26046  23981178.466    23981191.2504
  24333732.514    -2956542.925 7  -2296355.85345  24333733.232    24333747.0854
  23595480.439    -6425735.248 8  -4986201.18546  23595483.608    23595496.7184
  21263175.669   -18309557.288 9 -14255660.48547  21263178.613    21263188.3724
  21124080.541   -17672028.552 9 -13755376.24347  21124084.905    21124094.1434
 00  4 27  1 19 30.0000000  0  7 17 26 21 03 29 23 09
  20243748.496   -24126985.286 9 -18785938.56048  20243751.238    20243760.0114
  22149541.521   -12627730.848 8  -9823691.35147  22149545.248    22149555.2074
  23966135.478    -5456687.970 8  -4236057.18145  23966135.849    23966149.2164
  24333384.015    -2958350.404 7  -2297764.20345  24333388.549    24333401.2934
  23579355.729    -6510492.973 8  -5052245.87245  23579354.569    23579366.7464
  21256213.094   -18346159.670 9 -14284181.76347  21256213.902    21256223.0344
  21114666.390   -17721517.606 9 -13793939.06347  21114667.409    21114676.5624
 00  4 27  1 20  0.0000000  0  7 17 26 21 03 29 23 09
  20250958.730   -24089094.159 9 -18756413.01348  20250961.607    20250970.3274
  22166416.335   -12539070.647 8  -9754605.51047  22166417.259    22166426.2964
  23951086.304    -5535757.360 8  -4297669.51045  23951090.382    23951102.4094
  24333130.928    -2959657.378 7  -2298782.60145  24333138.435    24333151.9664
  23563259.350    -6595059.203 8  -5118141.36045  23563262.456    23563274.7534
  21249270.722   -18382626.661 9 -14312597.55247  21249274.477    21249283.7294
  21105360.749   -17770426.462 9 -13832049.78547  21105360.474    21105369.1404
 00  4 27  1 20 30.0000000  0  7 17 26 21 03 29 23 09
  20258282.986   -24050605.698 9 -18726422.00848  20258285.508    20258294.4894
  22183308.098   -12450287.342 8  -9685423.72847  22183311.970    22183322.1774
  23936038.564    -5614853.742 8  -4359302.87246  23936038.241    23936051.7234
  24332984.974    -2960455.627 7  -2299404.54145  24332985.504    24333001.8724
  23547206.800    -6679432.232 8  -5183886.30845  23547206.861    23547217.8764
  21242359.454   -18418955.995 9 -14340906.05747  21242361.112    21242370.0704
  21096158.355   -17818760.882 9 -13869712.90447  21096162.312    21096171.2604
 00  4 27  1 21  0.0000000  0  7 17 26 21 03 29 23 09
  20265717.841   -24011531.334 9 -18695974.45348  20265720.962    20265730.0864
  22200226.406   -12361382.825 8  -9616147.48947  22200230.169    22200239.9124
  23920980.202    -5693971.083 8  -4420952.52345  23920982.771    23920995.0214
  24332930.116    -2960737.181 7  -2299623.87045  24332934.965    24332948.8054
  23531187.026    -6763613.056 8  -5249481.49445  23531187.266    23531198.9184
  21235475.524   -18455128.839 9 -14369092.62447  21235477.648    21235486.2954
  21087070.029   -17866514.766 9 -13906923.64147  21087074.740    21087084.0004
 00  4 27  1 21 30.0000000  0  7 17 26 21 03 29 23 09
  20273267.105   -23971863.413 9 -18665064.39248  20273269.651    20273278.5834
  22217169.972   -12272356.565 8  -9546776.39747  22217171.411    22217181.2874
  23905919.262    -5773099.027 8  -4482610.49845  23905924.709    23905938.1654
  24332980.244    -2960499.132 7  -2299438.31145  24332977.627    24332993.4514
  23515204.636    -6847586.026 8  -5314914.68145  23515207.199    23515219.0324
  21228622.612   -18491140.889 9 -14397153.89748  21228624.772    21228633.7264
  21078095.302   -17913688.543 9 -13943682.36547  21078098.018    21078107.5584
 00  4 27  1 22  0.0000000  0  7 17 26 21 03 29 23 09
  20280928.751   -23931606.042 9 -18633695.01048  20280930.572    20280939.4134
  22234132.097   -12183191.373 8  -9477297.06646  22234138.749    22234148.5494
  23890869.607    -5852231.430 8  -4544271.91245  23890866.838    23890877.9044
  24333125.791    -2959738.269 7  -2298845.36745  24333124.601    24333137.6434
  23499261.300    -6931346.013 8  -5380181.98245  23499268.039    23499279.8324
  21221799.795   -18526996.381 9 -14425093.18648  21221802.155    21221810.6334
  21069230.537   -17960286.795 9 -13979992.61147  21069230.738    21069239.9144
 00  4 27  1 22 30.0000000  0  7 17 26 21 03 29 23 09
  20288697.134   -23890767.717 9 -18601872.93348  20288701.770    20288710.5424
  22251131.742   -12093890.911 8  -9407712.30946  22251131.773    22251142.1384
  23875808.805    -5931358.800 8  -4605929.46545  23875808.408    23875820.7904
  24333362.263    -2958460.876 7  -2297849.90945  24333368.220    24333379.7414
  23483364.142    -7014889.329 8  -5445280.43545  23483369.352    23483381.6584
  21215008.538   -18562682.132 9 -14452900.19948  21215011.014    21215019.9244
  21060472.305   -18006294.964 9 -14015843.06447  21060475.752    21060484.4134
 00  4 27  1 23  0.0000000  0  7 17 26 21 03 29 23 09
  20296580.935   -23849346.534 9 -18569596.69448  20296583.948    20296592.8154
  22268146.681   -12004453.348 8  -9338020.74447  22268151.569    22268161.4404
  23860746.368    -6010482.169 8  -4667583.85645  23860750.965    23860764.2784
  24333707.184    -2956675.617 7  -2296458.78445  24333707.016    24333719.0574
  23467514.449    -7098222.070 8  -5510214.78645  23467511.603    23467523.2674
  21208249.296   -18598199.731 9 -14480576.17648  21208252.145    21208260.8254
  21051832.881   -18051705.042 9 -14051227.46447  21051834.722    21051843.9394
 00  4 27  1 23 30.0000000  0  7 17 26 21 03 29 23 09
  20304576.355   -23807332.367 9 -18536858.38948  20304578.947    20304587.8914
  22285194.130   -11914873.217 8  -9268218.06847  22285198.148    22285208.1994
  23845688.769    -6089605.037 8  -4729237.88445  23845693.446    23845706.9764
  24334141.917    -2954376.932 7  -2294667.58745  24334145.102    24334157.2744
  23451690.196    -7181351.987 8  -5574991.11145  23451691.674    23451705.3934
  21201519.206   -18633562.562 9 -14508131.55748  21201523.040    21201531.5814
  21043301.975   -18096525.303 9 -14086152.27347  21043305.363    21043313.9984
 00  4 27  1 24  0.0000000  0  7 17 26 21 03 29 23 09
  20312683.707   -23764729.037 9 -18503660.99248  20312686.007    20312695.1024
  22302269.587   -11825162.479 8  -9198313.62346  22302269.958    22302279.0364
  23830630.533    -6168745.027 8  -4790905.26345  23830634.418    23830646.8804
  24334671.319    -2951565.966 7  -2292477.20745  24334679.802    24334692.3944
  23435905.033    -7264294.508 8  -5639621.44046  23435909.440    23435921.9214
  21194821.078   -18668768.685 9 -14535564.84648  21194823.523    21194832.1204
  21034887.495   -18140759.931 9 -14120620.75247  21034887.613    21034896.5534
 00  4 27  1 24 30.0000000  0  7 17 26 21 03 29 23 09
  20320906.015   -23721520.495 9 -18469992.00648  20320908.113    20320917.5784
  22319363.312   -11735323.868 8  -9128309.53546  22319365.893    22319374.4774
  23815572.298    -6247896.447 8  -4852581.55245  23815572.731    23815583.9464
  24335312.336    -2948239.231 7  -2289884.86545  24335312.835    24335325.2104
  23420163.254    -7347040.839 8  -5704098.89846  23420163.275    23420174.9414
  21188152.598   -18703814.288 9 -14562873.05748  21188154.383    21188163.3364
  21026575.342   -18184426.670 9 -14154646.71047  21026578.145    21026586.7424
 00  4 27  1 25  0.0000000  0  7 17 26 21 03 29 23 09
  20329245.910   -23677690.146 9 -18435838.49448  20329248.883    20329258.0294
  22336485.819   -11645334.371 8  -9058187.84146  22336489.917    22336498.8964
  23800506.360    -6327059.810 8  -4914267.18446  23800508.718    23800519.2594
  24336037.857    -2944390.578 7  -2286885.85245  24336044.668    24336058.0524
  23404452.217    -7429588.007 8  -5768421.13746  23404455.872    23404466.2184
  21181512.972   -18738702.262 9 -14590058.43848  21181515.352    21181524.4064
  21018373.841   -18227542.714 9 -14188243.55547  21018373.595    21018382.3714
 00  4 27  1 25 30.0000000  0  7 17 26 21 03 29 23 09
  20337702.606   -23633249.019 9 -18401209.05548  20337705.707    20337715.2154
  22353640.880   -11555193.465 8  -8987948.18546  22353642.916    22353652.5274
  23785442.263    -6406233.052 8  -4975960.46845  23785441.914    23785455.0134
  24336875.692    -2940031.639 7  -2283489.23745  24336875.635    24336887.4314
  23388781.699    -7511927.930 8  -5832581.92246  23388786.039    23388796.5564
  21174903.202   -18773437.918 9 -14617125.13948  21174905.825    21174914.3174
  21010271.129   -18270110.271 9 -14221413.02547  21010273.141    21010281.8784
 00  4 27  1 26  0.0000000  0  7 17 26 21 03 29 23 09
  20346274.679   -23588201.668 9 -18366107.23448  20346277.914    20346287.3554
  22370819.010   -11464907.474 8  -8917595.48346  22370823.939    22370832.8714
  23770371.656    -6485414.552 8  -5037660.19646  23770374.391    23770386.5614
  24337792.005    -2935178.007 7  -2279707.20745  24337797.819    24337811.9404
  23373158.129    -7594042.543 8  -5896567.16746  23373160.147    23373170.5124
  21168324.493   -18808011.915 9 -14644065.89748  21168326.597    21168335.1214
  21002275.469   -18312121.242 9 -14254148.77347  21002278.600    21002287.5174
 00  4 27  1 26 30.0000000  0  7 17 26 21 03 29 23 09
  20354964.866   -23542547.763 9 -18330532.77748  20354965.762    20354974.7114
  22388034.902   -11374462.730 8  -8847119.07746  22388034.816    22388044.7504
  23755308.228    -6564590.860 8  -5099355.86846  23755307.468    23755319.9714
  24338813.797    -2929831.751 7  -2275541.29645  24338816.038    24338827.4934
  23357578.763    -7675922.555 8  -5960369.56846  23357579.228    23357589.4034
  21161774.765   -18842424.128 9 -14670880.56848  21161777.870    21161786.5234
  20994389.455   -18353562.690 9 -14286440.73847  20994392.666    20994401.0724
 00  4 27  1 27  0.0000000  0  7 17 26 21 03 29 23 09
  20363761.285   -23496318.073 9 -18294509.65048  20363763.311    20363772.2034
  22405273.140   -11283863.100 8  -8776521.98846  22405275.350    22405284.6014
  23740236.387    -6643769.873 8  -5161053.65846  23740240.153    23740252.3364
  24339919.544    -2923996.290 7  -2270994.15845  24339926.446    24339938.0984
  23342036.427    -7757591.717 8  -6024007.70346  23342038.351    23342049.3134
  21155253.169   -18876694.598 9 -14697584.79448  21155255.943    21155264.9684
  20986617.551   -18394408.568 9 -14318268.63747  20986620.246    20986628.2434
 00  4 27  1 27 30.0000000  0  7 17 26 21 03 29 23 09
  20372661.436   -23449532.292 9 -18258053.20848  20372665.996    20372675.1604
  22422531.690   -11193140.191 8  -8705828.82746  22422538.801    22422549.1614
  23725168.376    -6722954.041 8  -5222755.47746  23725171.078    23725183.2304
  24341126.706    -2917672.001 7  -2266066.11645  24341130.443    24341142.2974
  23326524.507    -7839055.872 8  -6087486.09646  23326534.429    23326545.8674
  21148760.482   -18910823.155 9 -14724178.43648  21148761.716    21148770.5594
  20978958.565   -18434657.262 9 -14349631.20947  20978960.774    20978969.0444
 00  4 27  1 28  0.0000000  0  7 17 26 21 03 29 23 09
  20381674.265   -23402176.605 9 -18221152.68548  20381677.101    20381686.1104
  22439826.683   -11102308.736 8  -8635051.08146  22439823.867    22439833.4134
  23710098.028    -6802138.772 8  -5284457.72646  23710103.566    23710115.0384
  24342431.589    -2910844.971 7  -2260746.36545  24342429.982    24342443.0044
  23311073.181    -7920313.579 8  -6150803.65446  23311070.909    23311083.7374
  21142296.600   -18944792.902 9 -14750648.32748  21142297.329    21142306.1464
  20971413.934   -18474303.065 9 -14380523.98847  20971416.551    20971424.7214
 00  4 27  1 28 30.0000000  0  7 17 26 21 03 29 23 09
  20390792.041   -23354259.295 9 -18183814.52848  20390795.827    20390804.8374
  22457122.463   -11011377.985 8  -8564195.98246  22457127.655    22457137.2524
  23695029.575    -6881322.429 8  -5346159.12646  23695035.478    23695046.2394
  24343819.763    -2903509.499 7  -2255030.33444  24343820.884    24343838.1054
  23295639.457    -8001380.844 8  -6213972.77046  23295645.250    23295657.0644
  21135858.933   -18978614.304 9 -14777002.60948  21135861.022    21135870.0564
  20963984.607   -18513340.341 9 -14410942.58548  20963988.122    20963996.3994
 00  4 27  1 29  0.0000000  0  7 17 26 21 03 29 23 09
  20400018.385   -23305777.191 9 -18146036.28048  20400021.532    20400030.8784
  22474446.965   -10920371.653 8  -8493281.97946  22474445.470    22474455.0074
  23679963.366    -6960499.276 8  -5407855.22146  23679968.770    23679979.7274
  24345313.350    -2895666.775 7  -2248919.07845  24345316.433    24345329.4094
  23280252.005    -8082250.053 8  -6276987.59446  23280256.552    23280268.3724
  21129449.555   -19012281.488 9 -14803236.72848  21129454.328    21129463.5484
  20956671.696   -18551768.604 9 -14440886.63148  20956674.444    20956683.8444
 00  4 27  1 29 30.0000000  0  7 17 26 21 03 29 23 09
  20409354.930   -23256703.308 9 -18107796.90848  20409359.711    20409369.2704
  22491769.289   -10829285.885 8  -8422306.09346  22491778.748    22491788.8084
  23664900.960    -7039677.717 8  -5469552.59446  23664901.828    23664912.2904
  24346901.148    -2887325.107 7  -2242419.03445  24346903.284    24346915.6854
  23264903.408    -8162891.250 8  -6339824.72846  23264910.486    23264921.9624
  21123080.873   -19045767.581 9 -14829329.75248  21123082.600    21123091.3154
  20949475.041   -18589592.722 9 -14470359.90948  20949476.831    20949485.9474
 00  4 27  1 30  0.0000000  0  7 17 26 21 03 29 23 09
  20418811.432   -23207023.370 9 -18069085.28248  20418813.883    20418823.0144
  22509125.992   -10738105.197 8  -8351256.23946  22509129.456    22509140.3014
  23649831.570    -7118863.721 8  -5531255.84346  23649831.723    23649843.1294
  24348581.204    -2878492.749 7  -2235536.60245  24348584.633    24348596.6934
  23249608.905    -8243305.594 8  -6402485.09146  23249608.126    23249619.2484
  21116741.080   -19079076.621 9 -14855284.79248  21116743.586    21116752.2434
  20942394.377   -18626802.247 9 -14499354.28047  20942396.202    20942405.2034
 00  4 27  1 30 30.0000000  0  7 17 26 21 03 29 23 09
  20428377.291   -23156752.245 9 -18029912.99048  20428380.145    20428389.2034
  22526497.800   -10646818.705 8  -8280123.94046  22526500.980    22526511.3144
  23634756.198    -7198066.999 8  -5592972.52046  23634759.015    23634770.9714
  24350357.308    -2869172.075 7  -2228273.62545  24350359.341    24350370.7684
  23234346.681    -8323507.776 8  -6464980.14446  23234345.814    23234357.2364
  21110433.027   -19112226.148 9 -14881115.54148  21110435.508    21110444.5294
  20935427.479   -18663406.956 9 -14527877.37547  20935430.152    20935439.2724
 00  4 27  1 31  0.0000000  0  7 17 26 21 03 29 23 09
  20438055.038   -23105889.602 9 -17990279.78048  20438058.762    20438068.2204
  22543890.781   -10555419.432 8  -8208903.76346  22543893.736    22543903.2204
  23619686.045    -7277293.450 8  -5654707.25646  23619684.506    23619694.4584
  24352213.200    -2859362.871 7  -2220630.05045  24352224.772    24352235.1514
  23219122.321    -8403490.916 8  -6527304.50246  23219125.232    23219136.6184
  21104157.019   -19145204.968 9 -14906813.27748  21104160.019    21104169.0984
  20928574.660   -18699414.426 9 -14555935.09947  20928578.213    20928586.8994
 00  4 27  1 31 30.0000000  0  7 17 26 21 03 29 23 09
  20447846.086   -23054449.832 9 -17950196.85948  20447847.543    20447856.7254
  22561306.798   -10463897.047 8  -8137587.63846  22561309.347    22561320.0054
  23604597.443    -7356551.174 8  -5716466.36646  23604601.926    23604613.3754
  24354183.518    -2849070.487 7  -2212609.97145  24354182.095    24354197.6484
  23203941.106    -8483272.809 8  -6589472.06346  23203943.767    23203955.2044
  21097913.671   -19178021.724 9 -14932384.75048  21097915.195    21097923.9024
  20921837.173   -18734826.438 9 -14583528.81547  20921840.182    20921848.4164
 00  4 27  1 32  0.0000000  0  7 17 26 21 03 29 23 09
  20457739.061   -23002454.165 9 -17909680.76748  20457742.038    20457751.0584
  22578746.623   -10372267.389 8  -8066187.95046  22578746.962    22578756.9454
  23589509.365    -7435829.197 8  -5778241.29446  23589515.406    23589526.5694
  24356231.332    -2838281.908 7  -2204203.20345  24356235.222    24356249.9524
  23188797.494    -8562873.258 8  -6651498.23946  23188796.392    23188806.7994
  21091699.087   -19210679.470 9 -14957832.31748  21091700.437    21091709.4604
  20915212.854   -18769637.486 9 -14610654.24847  20915215.497    20915224.3194
 00  4 27  1 32 30.0000000  0  7 17 26 21 03 29 23 09
  20467739.464   -22949900.089 9 -17868729.56048  20467743.012    20467751.9384
  22596199.616   -10280541.936 8  -7994713.57846  22596201.670    22596210.7554
  23574422.757    -7515110.654 8  -5840018.88546  23574428.792    23574439.8484
  24358387.989    -2826992.716 7  -2195406.41045  24358383.517    24358397.1294
  23173679.638    -8642282.722 8  -6713375.59446  23173684.169    23173695.2554
  21085516.979   -19243162.960 9 -14983144.11148  21085519.251    21085528.0944
  20908704.371   -18803838.572 9 -14637304.39047  20908707.090    20908715.7904
 00  4 27  1 33  0.0000000  0  7 17 26 21 03 29 23 09
  20477848.885   -22896783.347 9 -17827339.91148  20477850.669    20477859.9304
  22613669.995   -10188725.927 8  -7923168.67246  22613673.781    22613683.9204
  23559343.400    -7594392.139 8  -5901796.49446  23559341.876    23559353.4794
  24360624.592    -2815207.655 7  -2186223.19545  24360627.048    24360640.8534
  23158608.916    -8721477.373 8  -6775085.55246  23158614.510    23158625.1604
  21079371.293   -19275453.514 9 -15008305.56548  21079374.138    21079383.3104
  20902314.883   -18837412.190 9 -14663465.59647  20902318.133    20902327.2604
 00  4 27  1 33 30.0000000  0  7 17 26 21 03 29 23 09
  20488064.020   -22843096.817 9 -17785506.28048  20488067.251    20488076.0484
  22631158.022   -10096826.493 8  -7851558.75746  22631161.491    22631171.4114
  23544248.531    -7673675.616 8  -5963575.65546  23544253.536    23544265.7754
  24362966.968    -2802917.738 7  -2176646.55545  24362965.492    24362979.0504
  23143580.296    -8800462.198 8  -6836632.00746  23143583.820    23143594.6484
  21073266.608   -19307538.483 9 -15033306.82248  21073268.160    21073277.4714
  20896046.250   -18870355.631 9 -14689135.75248  20896049.634    20896058.2104
 00  4 27  1 34  0.0000000  0  7 17 26 21 03 29 23 09
  20498392.497   -22788824.155 9 -17743215.91148  20498394.894    20498403.6344
  22648657.851   -10004853.269 8  -7779891.33846  22648663.403    22648672.9044
  23529165.674    -7752963.581 8  -6025358.32346  23529165.974    23529177.7714
  24365398.541    -2790115.886 7  -2166671.03645  24365403.042    24365414.1564
  23128591.351    -8879224.168 8  -6898004.80346  23128594.442    23128606.2744
  21067200.337   -19339412.209 9 -15058143.48148  21067203.400    21067212.2084
  20889897.334   -18902673.871 9 -14714318.74848  20889899.192    20889907.7324
 00  4 27  1 34 30.0000000  0  7 17 26 21 03 29 23 09
  20508833.660   -22733958.378 9 -17700463.36548  20508835.408    20508844.6854
  22666178.426    -9912797.014 8  -7708159.22146  22666180.971    22666189.8804
  23514074.835    -7832260.198 8  -6087147.76246  23514076.200    23514087.5974
  24367930.089    -2776819.969 7  -2156310.51045  24367932.219    24367948.1544
  23113651.176    -8957754.432 8  -6959197.07846  23113651.327    23113662.3704
  21061174.405   -19371087.166 9 -15082825.22948  21061175.763    21061184.2954
  20883864.838   -18934373.170 9 -14739019.44847  20883867.078    20883875.4624
 00  4 27  1 35  0.0000000  0  7 17 26 21 03 29 23 09
  20519383.909   -22678512.464 9 -17657258.78348  20519386.487    20519395.5194
  22683713.550    -9820652.701 8  -7636358.48746  22683714.982    22683725.4044
  23498974.022    -7911578.518 8  -6148954.09346  23498980.835    23498994.0024
  24370550.883    -2763037.522 7  -2145570.90145  24370554.607    24370566.4874
  23098746.583    -9036063.965 8  -7020217.32846  23098749.178    23098761.4464
  21055183.838   -19402574.690 9 -15107360.92548  21055184.124    21055192.2974
  20877944.495   -18965468.253 9 -14763249.32948  20877950.193    20877958.5684
 00  4 27  1 35 30.0000000  0  7 17 26 21 03 29 23 09
  20530047.313   -22622483.827 9 -17613600.12648  20530048.492    20530057.2444
  22701258.410    -9728421.443 8  -7564490.03746  22701266.010    22701276.2544
  23483888.120    -7990903.152 8  -6210765.33046  23483886.387    23483899.2884
  24373253.390    -2748779.559 7  -2134460.74944  24373264.944    24373282.2704
  23083886.102    -9114172.822 8  -7081081.23046  23083886.466    23083897.0344
  21049219.538   -19433890.723 9 -15131762.98148  21049224.488    21049232.8474
  20872143.108   -18995966.319 9 -14787014.00048  20872146.575    20872155.1984
 00  4 27  1 36  0.0000000  0  7 17 26 21 03 29 23 09
  20540816.005   -22565884.209 9 -17569496.54548  20540818.796    20540828.0434
  22718839.385    -9636095.659 8  -7492547.86746  22718835.794    22718844.5004
  23468791.964    -8070216.037 8  -6272567.42546  23468794.449    23468806.7214
  24376056.485    -2734063.943 7  -2122994.02145  24376065.805    24376082.0264
  23069062.368    -9192070.093 8  -7141780.27246  23069063.245    23069073.3124
  21043290.123   -19465063.931 9 -15156053.73448  21043292.626    21043301.0004
  20866455.391   -19025866.369 9 -14810312.69348  20866456.664    20866465.0804
 00  4 27  1 36 30.0000000  0  7 17 26 21 03 29 23 09
  20551690.546   -22508738.189 9 -17524967.19448  20551693.448    20551702.4024
  22736417.539    -9543661.901 8  -7420521.60346  22736424.418    22736435.3304
  23453708.218    -8149503.508 8  -6334349.73746  23453705.721    23453718.3564
  24378958.395    -2718892.815 7  -2111172.32245  24378953.465    24378967.6254
  23054276.755    -9269758.533 8  -7202316.58246  23054277.817    23054288.3284
  21037386.770   -19496098.284 9 -15180236.28548  21037387.091    21037395.4924
  20860882.573   -19055155.347 9 -14833135.22348  20860883.010    20860891.2384
 00  4 27  1 37  0.0000000  0  7 17 26 21 03 29 23 09
  20562668.038   -22451049.628 9 -17480015.08448  20562671.295    20562680.2954
  22754031.574    -9451122.411 8  -7348412.94446  22754034.961    22754044.6724
  23438626.635    -8228753.781 8  -6396103.11046  23438624.491    23438635.7244
  24381928.695    -2703251.306 7  -2098984.10644  24381933.698    24381943.1394
  23039533.645    -9347240.416 8  -7262691.89546  23039533.973    23039543.7204
  21031506.520   -19526989.309 9 -15204307.16148  21031508.664    21031517.0544
  20855422.443   -19083835.247 9 -14855483.14847  20855425.384    20855433.4904
 00  4 27  1 37 30.0000000  0  7 17 26 21 03 29 23 09
  20573747.852   -22392815.663 9 -17434637.98448  20573752.691    20573761.9524
  22771660.382    -9358485.331 8  -7276228.22046  22771662.986    22771672.9934
  23423552.812    -8307961.196 8  -6457823.07646  23423552.995    23423562.4564
  24385004.551    -2687120.165 7  -2086414.32644  24385001.851    24385014.5834
  23024826.653    -9424507.625 8  -7322899.96646  23024831.173    23024841.5054
  21025652.732   -19557747.282 9 -15228274.35348  21025655.575    21025663.6354
  20850080.049   -19111906.648 9 -14877356.92347  20850083.446    20850091.3854
 00  4 27  1 38  0.0000000  0  7 17 26 21 03 29 23 09
  20584932.590   -22334042.855 9 -17388841.01248  20584936.767    20584946.2134
  22789305.868    -9265755.216 8  -7203971.02046  22789309.282    22789319.0694
  23408484.831    -8387144.817 8  -6519524.47146  23408484.651    23408495.1184
  24388149.196    -2670482.091 7  -2073449.60645  24388167.447    24388180.6804
  23010167.065    -9501553.412 8  -7382935.46246  23010169.306    23010179.6464
  21019825.225   -19588367.197 9 -15252133.97748  21019828.655    21019837.1204
  20844856.063   -19139360.506 9 -14898749.49548  20844859.340    20844867.3214
 00  4 27  1 38 30.0000000  0  7 17 26 21 03 29 23 09
  20596222.828   -22274716.432 9 -17342612.65848  20596225.960    20596235.9504
  22806970.803    -9172943.288 8  -7131650.07146  22806970.827    22806980.7324
  23393412.801    -8466318.225 8  -6581217.89746  23393416.788    23393428.1984
  24391430.952    -2653331.854 7  -2060085.77144  24391428.941    24391444.7944
  22995548.061    -9578379.232 8  -7442799.58646  22995550.091    22995559.2154
  21014031.252   -19618825.560 9 -15275867.71348  21014032.321    21014041.1344
  20839753.250   -19166192.641 9 -14919657.60248  20839753.407    20839761.2394
 00  4 27  1 39  0.0000000  0  7 17 26 21 03 29 23 09
  20607620.692   -22214818.762 9 -17295939.18448  20607624.086    20607633.7384
  22824640.080    -9080060.323 8  -7059273.76446  22824645.959    22824655.3724
  23378348.635    -8545497.904 8  -6642916.22046  23378350.509    23378361.5524
  24394784.447    -2635673.402 7  -2046325.90844  24394790.398    24394802.0734
  22980970.503    -9654982.327 8  -7502490.16446  22980972.703    22980983.0994
  21008264.996   -19649117.212 9 -15299471.54948  21008268.288    21008277.2574
  20834763.728   -19192401.392 9 -14940079.95948  20834765.968    20834774.4334
 00  4 27  1 39 30.0000000  0  7 17 26 21 03 29 23 09
  20619127.350   -22154349.922 9 -17248820.64148  20619130.926    20619140.8224
  22842330.608    -8987113.664 8  -6986847.79746  22842333.330    22842342.1904
  23363278.438    -8624692.158 8  -6704625.86646  23363280.951    23363291.3374
  24398241.653    -2617514.352 7  -2032175.99944  24398246.826    24398260.4994
  22966437.367    -9731348.349 8  -7561995.98546  22966440.477    22966450.5434
  21002534.510   -19679233.010 9 -15322938.35348  21002537.353    21002546.2674
  20829896.454   -19217974.353 9 -14960006.89948  20829899.320    20829907.7454
 00  4 27  1 40  0.0000000  0  7 17 26 21 03 29 23 09
  20630741.317   -22093318.945 9 -17201264.06548  20630744.869    20630754.6404
  22860034.377    -8894100.591 8  -6914370.09946  22860032.554    22860041.8364
  23348208.512    -8703902.544 8  -6766348.06746  23348207.490    23348217.0414
  24401780.575    -2598878.399 7  -2017654.45445  24401792.879    24401804.3374
  22951950.319    -9807471.703 8  -7621312.76546  22951954.953    22951964.1174
  20996845.446   -19709146.194 9 -15346247.28848  20996844.792    20996853.9214
  20825154.283   -19242898.866 9 -14979428.54448  20825156.092    20825165.0314
 00  4 27  1 40 30.0000000  0  7 17 26 21 03 29 23 09
  20642463.878   -22031723.422 9 -17153267.58248  20642466.216    20642475.4284
  22877741.503    -8801019.082 8  -6841839.07646  22877745.322    22877755.4124
  23333128.451    -8783109.444 8  -6828067.59646  23333134.249    23333145.0084
  24405432.194    -2579773.294 7  -2002767.36945  24405429.411    24405441.8034
  22937510.310    -9883352.376 8  -7680440.41446  22937515.296    22937525.7084
  20991188.902   -19738847.374 9 -15369391.01348  20991192.891    20991201.8504
  20820533.994   -19267178.329 9 -14998347.56048  20820535.716    20820544.8524
 00  4 27  1 41  0.0000000  0  7 17 26 21 03 29 23 09
  20654289.924   -21969579.551 9 -17104843.81347  20654291.888    20654301.4144
  22895468.370    -8707871.257 8  -6769256.39746  22895470.941    22895480.4644
  23318065.608    -8862308.526 8  -6889781.08946  23318064.502    23318073.7584
  24409147.574    -2560198.587 7  -1987514.34745  24409155.708    24409164.7894
  22923116.488    -9958997.107 8  -7739384.19646  22923120.513    22923130.7454
  20985576.416   -19768342.990 9 -15392374.57448  20985579.818    20985588.9914
  20816035.687   -19290817.082 9 -15016767.33548  20816037.594    20816046.4144
 00  4 27  1 41 30.0000000  0  7 17 26 21 03 29 23 09
  20666217.684   -21906895.557 9 -17055999.17748  20666220.432    20666229.8664
  22913209.053    -8614658.925 8  -6696623.45646  22913208.646    22913217.9514
  23302993.944    -8941486.047 8  -6951477.81646  23302996.860    23303006.7534
  24412965.323    -2540164.993 7  -1971903.75845  24412967.193    24412977.6964
  22908765.755   -10034414.911 8  -7798151.14546  22908768.184    22908778.8914
  20980007.009   -19797616.978 9 -15415185.44348  20980009.389    20980018.2264
  20811657.157   -19313826.370 9 -15034696.60848  20811658.940    20811667.6214
 00  4 27  1 42  0.0000000  0  7 17 26 21 03 29 23 09
  20678249.143   -21843671.656 9 -17006733.82648  20678251.717    20678261.1814
  22930956.922    -8521380.933 8  -6623939.33746  22930958.767    22930968.0754
  23287931.762    -9020637.485 8  -7013154.22746  23287934.367    23287945.6274
  24416865.623    -2519686.317 7  -1955946.32245  24416862.209    24416875.7854
  22894455.695   -10109622.361 8  -7856754.20046  22894457.449    22894467.2044
  20974478.305   -19826669.655 9 -15437823.85948  20974480.832    20974489.7934
  20807398.066   -19336210.345 9 -15052138.62248  20807399.695    20807407.8944
 00  4 27  1 42 30.0000000  0  7 17 26 21 03 29 23 09
  20690384.621   -21779897.003 9 -16957039.32148  20690387.496    20690397.1044
  22948715.631    -8428034.152 8  -6551201.61646  22948722.005    22948731.8684
  23272874.566    -9099767.980 8  -7074814.26346  23272875.951    23272887.2014
  24420841.499    -2498755.248 7  -1939636.43045  24420845.771    24420858.9324
  22880178.823   -10184621.112 8  -7915194.63746  22880185.413    22880195.9304
  20968989.471   -19855516.440 9 -15460301.83448  20968991.485    20969000.3814
  20803255.131   -19357978.104 9 -15069100.46448  20803257.407    20803265.5624
 00  4 27  1 43  0.0000000  0  7 17 26 21 03 29 23 09
  20702623.850   -21715580.244 9 -16906922.38748  20702626.904    20702635.8144
  22966494.289    -8334619.069 8  -6478410.68246  22966497.900    22966507.5134
  23257819.087    -9178890.102 8  -7136467.73046  23257819.869    23257830.3604
  24424915.558    -2477386.386 7  -1922985.36944  24424913.372    24424924.4744
  22865955.833   -10259401.064 8  -7973464.61646  22865954.716    22865964.9614
  20963537.093   -19884162.712 9 -15482623.57048  20963540.228    20963549.1554
  20799227.217   -19379140.117 9 -15085590.30348  20799229.829    20799238.1364
 00  4 27  1 43 30.0000000  0  7 17 26 21 03 29 23 09
  20714967.502   -21650723.418 9 -16856384.61447  20714968.614    20714977.6114
  22984286.955    -8241130.429 8  -6405562.43046  22984288.581    22984297.5894
  23242762.004    -9258000.865 8  -7198112.37846  23242765.369    23242775.6004
  24429063.776    -2455584.997 7  -1905997.29045  24429062.691    24429073.4034
  22851763.986   -10333952.316 8  -8031556.36146  22851768.135    22851777.6364
  20958121.392   -19912620.106 9 -15504798.12548  20958124.880    20958133.5374
  20795318.795   -19399688.712 9 -15101602.15448  20795320.050    20795328.3944
 00  4 27  1 44  0.0000000  0  7 17 26 21 03 29 23 09
  20727409.797   -21585325.630 9 -16805425.31647  20727413.189    20727422.0254
  23002087.438    -8147567.059 8  -6332655.93946  23002093.841    23002103.5414
  23227705.762    -9337105.621 8  -7259752.35546  23227711.249    23227722.8304
  24433292.587    -2433338.311 7  -1888662.20245  24433292.936    24433306.6584
  22837626.503   -10408259.195 8  -8089457.65646  22837627.713    22837636.9674
  20952737.790   -19940911.481 9 -15526843.31248  20952741.248    20952749.7814
  20791526.763   -19419614.344 9 -15117128.58148  20791528.286    20791536.7314
 00  4 27  1 44 30.0000000  0  7 17 26 21 03 29 23 09
  20739958.532   -21519386.950 9 -16754044.55447  20739960.708    20739969.9124
  23019910.219    -8053932.966 8  -6259694.36146  23019911.694    23019921.6394
  23212661.441    -9416197.152 8  -7321381.99646  23212661.154    23212671.9274
  24437612.662    -2410636.368 7  -1870972.41845  24437615.585    24437627.7084
  22823534.774   -10482317.385 8  -8147165.19646  22823535.180    22823544.4564
  20947385.120   -19969041.970 9 -15548763.13948  20947388.145    20947396.6184
  20787852.154   -19438910.318 9 -15132164.37048  20787856.205    20787864.4624
 00  4 27  1 45  0.0000000  0  7 17 26 21 03 29 23 09
  20752607.306   -21452918.633 9 -16702251.08047  20752609.151    20752618.7614
  23037734.881    -7960242.886 8  -6186689.13546  23037740.699    23037749.0864
  23197615.228    -9495263.269 8  -7382991.85646  23197615.327    23197626.3764
  24442014.617    -2387478.498 7  -1852927.32945  24442020.362    24442032.0674
  22809487.982   -10556131.342 8  -8204682.41946  22809488.207    22809498.4594
  20942065.245   -19997004.769 9 -15570552.29748  20942067.018    20942075.4594
  20784304.501   -19457565.796 9 -15146701.07648  20784306.467    20784314.1754
 00  4 27  1 45 30.0000000  0  7 17 26 21 03 29 23 09
  20765356.218   -21385908.472 9 -16650035.39247  20765360.530    20765370.4414
  23055571.516    -7866503.948 8  -6113645.83046  23055577.954    23055587.2774
  23182569.169    -9574299.518 8  -7444578.43446  23182574.165    23182586.4244
  24446515.101    -2363850.674 7  -1834516.03245  24446518.354    24446529.9364
  22795480.964   -10629709.459 8  -8262015.83746  22795486.381    22795496.7954
  20936777.713   -20024786.854 9 -15592200.64848  20936780.373    20936788.7104
  20780882.253   -19475562.455 9 -15160724.40148  20780881.803    20780889.6104
 00  4 27  1 46  0.0000000  0  7 17 26 21 03 29 23 09
  20778211.913   -21318346.475 9 -16597389.71547  20778217.117    20778226.8944
  23073423.089    -7772723.064 8  -6040569.87446  23073423.568    23073435.0094
  23167535.932    -9653303.364 8  -7506139.77646  23167539.758    23167552.4684
  24451102.496    -2339751.968 7  -1815737.83245  24451102.086    24451115.4114
  22781524.846   -10703063.785 8  -8319174.90046  22781527.065    22781537.8464
  20931530.791   -20052364.183 9 -15613689.45148  20931532.593    20931540.8884
  20777578.224   -19492903.328 9 -15174236.74148  20777581.832    20777589.9374
 00  4 27  1 46 30.0000000  0  7 17 26 21 03 29 23 09
  20791171.784   -21250248.661 9 -16544326.51047  20791175.823    20791185.3604
  23091273.301    -7678909.397 8  -5967468.36646  23091275.628    23091286.0364
  23152509.966    -9732273.172 8  -7567674.60146  23152513.420    23152523.8844
  24455774.412    -2315194.218 7  -1796601.92445  24455775.936    24455789.1304
  22767604.590   -10776208.161 8  -8376170.36646  22767608.696    22767618.6534
  20926323.893   -20079726.583 9 -15635010.76548  20926326.039    20926334.0004
  20774402.462   -19509593.946 9 -15187242.38748  20774405.556    20774413.6494
 00  4 27  1 47  0.0000000  0  7 17 26 21 03 29 23 09
  20804231.553   -21181623.766 9 -16490852.59547  20804234.980    20804243.9224
  23109129.575    -7585060.740 8  -5894339.57546  23109134.295    23109144.2584
  23137485.411    -9811219.818 8  -7629191.34646  23137490.393    23137500.8384
  24460532.691    -2290183.868 7  -1777113.32445  24460535.808    24460550.3664
  22753725.358   -10849150.979 8  -8433008.80146  22753728.268    22753738.3484
  20921158.998   -20106865.874 9 -15656158.22948  20921161.199    20921169.5504
  20771350.876   -19525641.288 9 -15199746.77348  20771352.047    20771360.1724
 00  4 27  1 47 30.0000000  0  7 17 26 21 03 29 23 09
  20817392.117   -21112469.166 9 -16436965.91247  20817394.989    20817403.6404
  23126997.807    -7491173.719 8  -5821180.89046  23127000.869    23127011.0104
  23122468.285    -9890141.676 8  -7690688.79446  23122471.397    23122482.1424
  24465373.830    -2264729.139 7  -1757278.45945  24465378.217    24465392.1254
  22739881.164   -10921891.464 8  -8489689.55046  22739885.791    22739896.3014
  20916036.819   -20133784.928 9 -15677134.08148  20916038.729    20916046.8984
  20768415.053   -19541050.989 9 -15211754.29748  20768419.079    20768427.6024
 00  4 27  1 48  0.0000000  0  7 17 26 21 03 29 23 09
  20830648.296   -21042802.109 9 -16382679.91147  20830652.303    20830661.2734
  23144871.958    -7397251.987 8  -5747995.18346  23144873.890    23144883.8934
  23107458.819    -9969040.432 8  -7752168.26546  23107457.772    23107469.7824
  24470305.257    -2238827.967 7  -1737095.70545  24470308.158    24470321.3884
  22726079.315   -10994424.846 8  -8546208.94046  22726082.400    22726092.6254
  20910954.370   -20160494.751 9 -15697946.89348  20910955.803    20910964.1504
  20765604.545   -19555834.573 9 -15223273.93548  20765606.130    20765614.4504
 00  4 27  1 48 30.0000000  0  7 17 26 21 03 29 23 09
  20844001.849   -20972630.485 9 -16328000.74247  20844005.663    20844014.6784
  23162753.303    -7303299.157 8  -5674785.22346  23162751.965    23162762.4144
  23092445.820   -10047928.502 8  -7813639.37446  23092446.732    23092457.6374
  24475312.832    -2212479.716 7  -1716564.58545  24475320.466    24475336.0624
  22712318.718   -11066733.403 8  -8602553.13946  22712322.137    22712333.2564
  20905907.605   -20187011.644 9 -15718609.37448  20905909.870    20905918.1804
  20762910.320   -19569985.593 9 -15234300.66948  20762913.517    20762921.7734
 00  4 27  1 49  0.0000000  0  7 17 26 21 03 29 23 09
  20857458.159   -20901934.015 9 -16272912.60347  20857459.126    20857467.9834
  23180625.988    -7209297.577 8  -5601537.28846  23180640.226    23180649.6364
  23077434.536   -10126804.982 8  -7875101.50346  23077437.366    23077447.7374
  24480417.342    -2185678.160 7  -1695680.27145  24480420.781    24480435.1224
  22698603.114   -11138809.448 8  -8658716.14746  22698606.897    22698618.0414
  20900900.009   -20213330.210 9 -15739117.30848  20900901.405    20900909.9484
  20760341.481   -19583493.655 9 -15244826.39648  20760342.713    20760350.7464
 00  4 27  1 49 30.0000000  0  7 17 26 21 03 29 23 09
  20871008.808   -20830711.959 9 -16217414.92147  20871011.494    20871021.3084
  23198532.794    -7115250.795 8  -5528254.13146  23198536.778    23198546.0564
  23062429.407   -10205670.152 8  -7936554.79246  23062429.473    23062439.2554
  24485607.384    -2158414.061 7  -1674435.45045  24485611.338    24485624.2934
  22684935.490   -11210637.064 8  -8714685.59846  22684937.865    22684948.9724
  20895927.525   -20239454.653 9 -15759473.99648  20895929.942    20895938.5084
  20757892.895   -19596360.726 9 -15254852.65048  20757894.124    20757901.8844
 00  4 27  1 50  0.0000000  0  7 17 26 21 03 29 23 09
  20884663.424   -20758965.959 9 -16161508.97747  20884664.668    20884673.9644
  23216439.878    -7021155.137 8  -5454932.89946  23216442.022    23216452.7184
  23047416.900   -10284542.499 8  -7998013.59946  23047420.161    23047430.9824
  24490886.533    -2130683.812 7  -1652827.49245  24490886.941    24490900.6584
  22671314.318   -11282218.095 8  -8770462.92146  22671317.033    22671326.6454
  20890993.147   -20265390.003 9 -15779683.33948  20890994.697    20891003.4684
  20755566.357   -19608584.869 9 -15264377.92548  20755568.097    20755575.7444
 00  4 27  1 50 30.0000000  0  7 17 26 21 03 29 23 09
  20898417.944   -20686680.036 9 -16105182.30947  20898419.930    20898429.4484
  23234366.763    -6926994.043 8  -5381560.69746  23234361.332    23234370.9564
  23032407.333   -10363415.436 8  -8059472.82146  23032410.935    23032421.1034
  24496249.535    -2102512.324 7  -1630875.69245  24496246.906    24496262.0504
  22657734.383   -11353562.605 8  -8826055.92346  22657740.685    22657750.7224
  20886092.389   -20291135.929 9 -15799745.05948  20886095.152    20886104.1864
  20753363.680   -19620155.692 9 -15273394.12948  20753365.847    20753374.3364
 00  4 27  1 51  0.0000000  0  7 17 26 21 03 29 23 09
  20912275.025   -20613857.115 9 -16048437.20447  20912277.873    20912287.2074
  23252284.927    -6832759.481 8  -5308131.21446  23252293.525    23252302.6954
  23017401.938   -10442272.059 8  -8120919.40246  23017405.307    23017416.3324
  24501685.726    -2073901.093 7  -1608581.13644  24501693.595    24501703.6584
  22644207.881   -11424685.012 8  -8881475.85146  22644207.382    22644216.9764
  20881231.598   -20316680.468 9 -15819649.86448  20881234.250    20881243.1404
  20751286.217   -19631074.868 9 -15281902.54448  20751288.067    20751296.3884
 00  4 27  1 51 30.0000000  0  7 17 26 21 03 29 23 09
  20926232.253   -20540504.604 9 -15991279.43547  20926236.844    20926245.8824
  23270230.837    -6738477.300 8  -5234664.61646  23270234.383    23270244.0624
  23002400.161   -10521113.118 8  -8182353.90446  23002401.535    23002412.8534
  24507222.860    -2044845.170 7  -1585940.18444  24507221.755    24507233.8224
  22630713.727   -11495579.901 8  -8936718.50246  22630716.158    22630726.7204
  20876408.762   -20342027.850 9 -15839401.06448  20876411.199    20876419.6844
  20749331.140   -19641344.161 9 -15289904.55748  20749334.037    20749342.0874
 00  4 27  1 52  0.0000000  0  7 17 26 21 03 29 23 09
  20940291.588   -20466619.196 9 -15933706.42747  20940296.163    20940305.6354
  23288179.727    -6644149.211 8  -5161162.29646  23288184.915    23288194.9234
  22987403.276   -10599924.057 8  -8243764.87746  22987404.145    22987415.1404
  24512829.167    -2015348.867 7  -1562956.01844  24512835.498    24512847.0684
  22617265.182   -11566252.341 8  -8991787.79846  22617267.066    22617277.7434
  20871625.753   -20367171.892 9 -15858993.80648  20871626.560    20871635.0544
  20747500.781   -19650949.301 9 -15297389.05048  20747506.195    20747514.4224
 00  4 27  1 52 30.0000000  0  7 17 26 21 03 29 23 09
  20954453.756   -20392214.532 9 -15875728.81347  20954455.132    20954464.4174
  23306142.685    -6549779.820 8  -5087627.75646  23306143.847    23306152.6204
  22972416.664   -10678673.308 8  -8305127.82646  22972418.655    22972429.1984
  24518523.479    -1985412.924 7  -1539629.33944  24518531.001    24518545.9164
  22603858.928   -11636703.705 8  -9046684.84746  22603860.617    22603869.7264
  20866879.971   -20392100.361 9 -15878418.56648  20866882.617    20866891.1654
  20745804.453   -19659881.720 9 -15304349.34448  20745806.674    20745814.5144
 00  4 27  1 53  0.0000000  0  7 17 26 21 03 29 23 09
  20968704.269   -20317318.461 9 -15817368.27247  20968707.392    20968716.5764
  23324096.006    -6455399.270 8  -5014084.50546  23324102.795    23324113.0244
  22957441.064   -10757360.650 8  -8366442.48746  22957445.024    22957455.2884
  24524316.654    -1955015.113 7  -1515942.67144  24524315.283    24524329.5814
  22590493.026   -11706921.868 8  -9101400.18046  22590498.729    22590508.6984
  20862179.598   -20416807.974 9 -15897671.22448  20862180.956    20862189.3294
  20744227.874   -19668159.969 9 -15310799.90248  20744231.201    20744239.3454
 00  4 27  1 53 30.0000000  0  7 17 26 21 03 29 23 09
  20983050.398   -20241933.578 9 -15758626.84247  20983052.528    20983061.7484
  23342060.078    -6361015.009 8  -4940538.42346  23342063.654    23342074.6034
  22942479.198   -10835997.538 8  -8427717.89746  22942480.837    22942491.6694
  24530180.708    -1924171.798 7  -1491908.93544  24530187.370    24530198.4744
  22577182.111   -11776904.456 8  -9155931.94946  22577181.790    22577191.3924
  20857518.594   -20441300.012 9 -15916755.89548  20857520.291    20857528.4074
  20742774.935   -19675800.409 9 -15316753.47048  20742777.511    20742785.0314
 00  4 27  1 54  0.0000000  0  7 17 26 21 03 29 23 09
  20997485.151   -20166075.512 9 -15699516.69347  20997488.234    20997497.4444
  23360030.902    -6266614.608 8  -4866979.75246  23360028.895    23360037.8634
  22927525.541   -10914578.292 8  -8488949.58046  22927526.619    22927538.2854
  24536133.733    -1892909.350 7  -1467548.54644  24536130.793    24536147.4764
  22563901.834   -11846667.523 8  -9210292.62946  22563905.951    22563915.3864
  20852897.548   -20465580.977 9 -15935676.10548  20852899.577    20852907.7504
  20741439.177   -19682818.261 9 -15322221.89948  20741441.747    20741449.8034
 00  4 27  1 54 30.0000000  0  7 17 26 21 03 29 23 09
  21012007.405   -20089755.012 9 -15640046.21847  21012011.408    21012020.4844
  23377985.799    -6172195.544 8  -4793406.50946  23377995.106    23378005.5904
  22912581.449   -10993112.580 8  -8550145.07546  22912583.324    22912593.4214
  24542156.294    -1861241.287 7  -1442872.22244  24542161.838    24542173.6924
  22550671.942   -11916204.835 8  -9264477.40646  22550672.869    22550682.8194
  20848316.324   -20489658.775 9 -15954438.00048  20848317.683    20848325.9964
  20740217.625   -19689230.679 9 -15327218.56348  20740221.233    20740229.7904
 00  4 27  1 55  0.0000000  0  7 17 26 21 03 29 23 09
  21026624.063   -20012959.056 9 -15580205.24347  21026625.298    21026634.4004
  23395966.444    -6077759.657 8  -4719820.15746  23395966.360    23395975.6524
  22897643.398   -11071620.196 8  -8611319.71446  22897643.663    22897652.9924
  24548264.657    -1829179.578 7  -1417889.06244  24548259.807    24548274.6964
  22537480.542   -11985511.029 8  -9318482.12746  22537484.542    22537494.6104
  20843770.714   -20513538.466 9 -15973045.52148  20843773.428    20843781.7204
  20739112.239   -19695045.682 9 -15331749.71848  20739114.919    20739123.4704
 00  4 27  1 55 30.0000000  0  7 17 26 21 03 29 23 09
  21041331.185   -19935669.764 9 -15519979.85947  21041332.735    21041341.9504
  23413937.678    -5983291.179 8  -4646208.42446  23413942.153    23413953.2144
  22882707.018   -11150096.064 8  -8672469.66846  22882709.604    22882719.4414
  24554431.464    -1796740.453 7  -1392611.80244  24554434.514    24554448.2034
  22524334.206   -12054593.279 8  -9372312.32246  22524337.787    22524348.4434
  20839263.656   -20537222.000 9 -15991500.18248  20839266.504    20839274.9474
  20738124.847   -19700241.793 9 -15335798.60048  20738126.148    20738134.5094
 00  4 27  1 56  0.0000000  0  7 17 26 21 03 29 23 09
  21056131.311   -19857879.361 9 -15459364.00647  21056135.770    21056145.6234
  23431926.640    -5888784.624 8  -4572567.02146  23431926.913    23431937.4274
  22867785.999   -11228526.089 8  -8733583.93446  22867784.982    22867795.2144
  24560686.096    -1763909.478 7  -1367029.21144  24560681.927    24560695.8354
  22511236.841   -12123445.232 8  -9425963.04346  22511236.026    22511245.5674
  20834793.587   -20560706.403 9 -16009799.68748  20834797.609    20834805.8084
  20737256.418   -19704795.519 9 -15339346.93548  20737259.503    20737267.7954
 00  4 27  1 56 30.0000000  0  7 17 26 21 03 29 23 09
  21071033.384   -19779574.109 9 -15398346.98847  21071036.903    21071046.1934
  23449918.128    -5794235.645 8  -4498892.54946  23449918.813    23449928.6474
  22852867.123   -11306910.686 8  -8794662.76146  22852869.718    22852879.4514
  24567001.502    -1730675.711 7  -1341132.79644  24567007.883    24567022.4224
  22498181.878   -12192058.177 8  -9479427.52946  22498179.456    22498189.3524
  20830365.907   -20583983.109 9 -16027937.35248  20830368.464    20830376.3874
  20736516.699   -19708689.380 9 -15342381.09348  20736518.263    20736526.5834
 00  4 27  1 57  0.0000000  0  7 17 26 21 03 29 23 09
  21086034.100   -19700745.870 9 -15336922.43847  21086037.349    21086047.2034
  23467918.919    -5699644.172 8  -4425184.93046  23467918.804    23467927.9024
  22837963.665   -11385248.034 8  -8855704.77246  22837963.236    22837971.6674
  24573410.508    -1697027.295 7  -1314913.28944  24573410.400    24573418.8924
  22485162.928   -12260444.189 8  -9532715.23446  22485166.238    22485174.9144
  20825978.870   -20607040.580 9 -16045904.19748  20825980.864    20825988.7314
  20735903.281   -19711911.552 9 -15344891.85448  20735905.267    20735913.6134
 00  4 27  1 57 30.0000000  0  7 17 26 21 03 29 23 09
  21101132.487   -19621405.165 9 -15275098.55347  21101135.734    21101144.6144
  23485921.623    -5605011.169 8  -4351444.97946  23485926.228    23485937.4194
  22823063.415   -11463539.897 8  -8916711.29446  22823064.152    22823073.0454
  24579887.248    -1662959.978 7  -1288367.26744  24579894.892    24579906.8544
  22472191.927   -12328606.679 8  -9585828.73446  22472195.573    22472204.6404
  20821635.026   -20629867.398 9 -16063691.31448  20821636.953    20821645.0344
  20735416.283   -19714458.817 9 -15346876.71348  20735420.731    20735429.0864
 00  4 27  1 58  0.0000000  0  7 17 26 21 03 29 23 09
  21116328.783   -19541563.760 9 -15212884.52247  21116329.101    21116338.3444
  23503936.577    -5510344.332 8  -4277678.71746  23503941.800    23503951.6204
  22808168.645   -11541799.262 8  -8977692.47646  22808170.555    22808180.7294
  24586454.896    -1628473.528 7  -1261494.70444  24586456.384    24586468.7754
  22459264.299   -12396540.157 8  -9638763.82146  22459267.795    22459277.0704
  20817336.226   -20652454.853 9 -16081291.89148  20817338.371    20817347.0354
  20735062.242   -19716335.476 9 -15348339.02348  20735063.364    20735071.7134
 00  4 27  1 58 30.0000000  0  7 17 26 21 03 29 23 09
  21131609.148   -19461246.832 9 -15150299.95147  21131612.843    21131622.0664
  23521952.013    -5415666.069 8  -4203903.50845  23521957.741    23521967.8234
  22793280.704   -11620036.597 8  -9038656.53946  22793282.348    22793292.0154
  24593094.411    -1593571.080 7  -1234298.00644  24593096.193    24593108.3544
  22446378.570   -12464256.616 8  -9691529.79746  22446381.192    22446390.4834
  20813085.052   -20674793.449 9 -16098698.56348  20813087.303    20813095.8814
  20734831.791   -19717545.543 9 -15349281.91148  20734833.173    20734841.3904
 00  4 27  1 59  0.0000000  0  7 17 26 21 03 29 23 09
  21146979.149   -19380470.993 9 -15087357.79447  21146983.667    21146993.4384
  23539971.400    -5320992.900 8  -4130132.26645  23539973.617    23539984.2844
  22778395.448   -11698252.500 8  -9099603.95046  22778399.294    22778408.5814
  24599815.777    -1558254.248 7  -1206778.41544  24599817.208    24599832.2244
  22433536.154   -12531748.329 8  -9744120.65246  22433537.358    22433547.7404
  20808883.518   -20696876.578 9 -16115906.17348  20808885.371    20808893.5454
  20734726.396   -19718098.146 9 -15349712.49948  20734727.828    20734735.7614
 00  4 27  1 59 30.0000000  0  7 17 26 21 03 29 23 09
  21162435.870   -19299247.806 9 -15024067.05747  21162440.472    21162449.7144
  23557982.243    -5226331.916 8  -4056370.51745  23557986.746    23557998.2454
  22763513.677   -11776448.278 8  -9160535.69646  22763517.968    22763527.4094
  24606609.178    -1522536.100 7  -1178946.06744  24606616.150    24606626.0204
  22420736.878   -12598999.522 8  -9796524.05746  22420741.061    22420749.5784
  20804728.630   -20718709.720 9 -16132918.98848  20804730.749    20804738.7524
  20734742.082   -19718004.135 9 -15349639.22648  20734745.954    20734754.0364
 00  4 27  2  0  0.0000000  0  7 17 26 21 03 29 23 09
  21177978.434   -19217573.282 9 -14960424.61547  21177982.470    21177992.3504
  23575995.926    -5131681.188 8  -3982616.78046  23575999.717    23576009.3824
  22748643.544   -11854607.974 8  -9221439.25746  22748644.978    22748654.2134
  24613488.347    -1486422.845 7  -1150805.84044  24613490.771    24613500.7694
  22407987.578   -12666005.269 8  -9848736.21346  22407990.211    22407999.3794
  20800618.479   -20740307.793 9 -16149748.64048  20800620.651    20800628.3914
  20734882.074   -19717275.959 9 -15349071.80048  20734884.225    20734892.7624
 00  4 27  2  0 30.0000000  0  7 17 26 21 03 29 23 09
  21193612.916   -19135431.628 9 -14896418.18847  21193613.600    21193623.1584
  23594015.319    -5037028.836 8  -3908861.74145  23594011.449    23594020.4194
  22733781.381   -11932714.544 8  -9282301.39446  22733781.829    22733791.1814
  24620430.141    -1449916.857 7  -1122359.60744  24620433.432    24620446.1654
  22395282.686   -12732758.095 8  -9900751.30646  22395287.113    22395296.5404
  20796553.005   -20761676.294 9 -16166399.40448  20796554.455    20796562.4154
  20735139.259   -19715923.408 9 -15348017.85248  20735141.878    20735150.0024
 00  4 27  2  1  0.0000000  0  7 17 26 21 03 29 23 09
  21209335.108   -19052799.413 9 -14832029.50847  21209338.124    21209347.2734
  23612024.435    -4942357.856 8  -3835092.18145  23612025.030    23612035.3784
  22718926.795   -12010759.916 8  -9343115.88546  22718930.742    22718939.9574
  24627450.582    -1413032.663 7  -1093618.68344  24627450.875    24627465.7804
  22382635.748   -12799238.613 8  -9952554.21746  22382636.728    22382645.6064
  20792527.065   -20782826.227 9 -16182879.85648  20792529.605    20792538.0254
  20735513.213   -19713955.234 9 -15346484.18848  20735516.409    20735524.1864
 00  4 27  2  1 30.0000000  0  7 17 26 21 29 23 09 15
  21225153.101   -18969669.185 9 -14767252.75347  21225157.174    21225166.3734
  23630041.820    -4847658.827 8  -3761300.79745  23630045.558    23630056.6064
  22704087.254   -12088737.440 8  -9403877.47046  22704091.277    22704100.8084
  22370032.328   -12865451.945 8 -10004148.89846  22370035.586    22370045.6294
  20788541.927   -20803767.168 9 -16199197.44048  20788544.485    20788553.0584
  20736006.921   -19711359.721 9 -15344461.69248  20736010.410    20736018.2404
  24228037.637     -997075.72017   -498495.26855  24228040.426    24228051.7664
 00  4 27  2  2  0.0000000  0  7 17 26 21 29 23 09 15
  21241068.281   -18886040.016 9 -14702087.22247  21241071.150    21241080.6904
  23648070.200    -4752938.418 8  -3687492.75145  23648071.287    23648081.6194
  22689265.669   -12166635.966 8  -9464577.51146  22689268.103    22689276.9134
  22357480.211   -12931410.913 8 -10055545.40046  22357484.117    22357494.6554
  20784597.036   -20824494.488 9 -16215348.56148  20784600.370    20784608.8494
  20736621.958   -19708130.282 9 -15341945.22748  20736624.804    20736632.9014
  24207908.912    -1102851.907 7   -580918.11145  24207911.854    24207923.8774
 00  4 27  2  2 30.0000000  0  7 17 26 21 29 23 09 15
  21257074.418   -18801919.932 9 -14636539.15447  21257078.433    21257088.2414
  23666100.213    -4658201.564 8  -3613671.88745  23666098.123    23666109.3544
  22674457.714   -12244461.650 8  -9525220.74946  22674458.022    22674466.5584
  22344978.891   -12997120.383 8 -10106747.47146  22344980.720    22344990.1014
  20780695.640   -20845002.407 9 -16231328.71948  20780697.947    20780706.2794
  20737360.578   -19704250.832 9 -15338922.26548  20737362.921    20737370.9354
  24187810.805    -1208426.373 7   -663183.74045  24187819.582    24187835.4854
 00  4 27  2  3  0.0000000  0  7 17 26 21 29 23 09 15
  21273170.759   -18717336.912 9 -14570630.37047  21273174.193    21273184.0914
  23684118.424    -4563458.894 8  -3539846.49345  23684126.953    23684137.8234
  22659657.196   -12322226.910 8  -9585816.96346  22659659.916    22659668.4554
  22332516.507   -13062602.513 8 -10157772.41146  22332519.405    22332529.0124
  20776834.264   -20865292.453 9 -16247139.12948  20776836.460    20776845.0844
  20738222.783   -19699723.430 9 -15335394.40848  20738224.432    20738232.7444
  24167762.699    -1313796.302 7   -745289.98545  24167768.484    24167783.2384
 00  4 27  2  3 30.0000000  0  7 17 26 21 29 23 09 15
  21289353.566   -18632298.299 9 -14504366.56447  21289356.250    21289366.4134
  23702154.785    -4468718.822 8  -3466023.10645  23702157.153    23702167.3304
  22644866.670   -12399938.789 8  -9646371.59746  22644871.684    22644881.3264
  22320092.413   -13127881.808 8 -10208639.30846  22320097.207    22320106.9744
  20773015.610   -20885362.982 9 -16262778.50348  20773017.257    20773025.6744
  20739206.043   -19694551.913 9 -15331364.63948  20739208.546    20739216.8974
  24147749.860    -1418958.839 7   -827234.66845  24147756.892    24147771.3894
 00  4 27  2  4  0.0000000  0  7 17 26 21 29 23 09 15
  21305623.568   -18546801.727 9 -14437745.92047  21305626.469    21305635.7094
  23720184.814    -4373991.476 8  -3392209.64745  23720182.823    23720192.6044
  22630091.088   -12477595.447 8  -9706883.28546  22630093.844    22630103.9154
  22307709.375   -13192961.173 8 -10259350.40946  22307713.034    22307722.0924
  20769238.929   -20905210.348 9 -16278243.98148  20769240.520    20769248.6634
  20740310.287   -19688740.500 9 -15326836.26248  20740314.147    20740322.0114
  24127781.989    -1523911.110 7   -909015.52645  24127785.663    24127798.6084
 00  4 27  2  4 30.0000000  0  7 17 26 21 29 23 09 15
  21321978.850   -18460853.651 9 -14370773.43647  21321981.815    21321991.3044
  23738205.395    -4279271.741 8  -3318402.10445  23738207.210    23738218.0494
  22615324.464   -12555215.138 8  -9767366.15846  22615323.990    22615332.4844
  22295365.224   -13257838.982 8 -10309904.47446  22295367.005    22295375.5184
  20765505.061   -20924831.835 9 -16293533.43248  20765506.502    20765515.0604
  20741538.807   -19682281.938 9 -15321803.59948  20741543.203    20741551.5134
  24107854.339    -1628650.214 7   -990630.25045  24107854.442    24107868.0784
 00  4 27  2  5  0.0000000  0  7 17 26 21 29 23 09 15
  21338418.214   -18374460.944 9 -14303454.49347  21338421.799    21338431.1914
  23756230.552    -4184562.954 8  -3244603.14145  23756229.812    23756240.9154
  22600554.595   -12632792.703 8  -9827816.17846  22600560.799    22600569.6794
  22283058.203   -13322508.682 8 -10360296.35746  22283060.484    22283069.1164
  20761814.845   -20944221.856 9 -16308642.51548  20761816.693    20761825.1214
  20742892.847   -19675183.881 9 -15316272.62848  20742894.171    20742902.4544
  24087952.199    -1733173.329 7  -1072076.67745  24087963.699    24087977.0454
 00  4 27  2  5 30.0000000  0  7 17 26 21 29 23 09 15
  21354943.954   -18287620.079 9 -14235786.34647  21354946.897    21354956.6054
  23774249.271    -4089865.555 8  -3170813.04246  23774250.213    23774261.1204
  22585807.071   -12710316.862 8  -9888224.55746  22585808.855    22585817.9694
  22270791.933   -13386946.493 8 -10410507.54646  22270798.201    22270807.8414
  20758171.272   -20963370.805 9 -16323563.74948  20758172.876    20758181.0074
  20744367.280   -19667431.727 9 -15310231.98048  20744368.950    20744377.2174
  24068107.630    -1837477.701 7  -1153352.65145  24068115.988    24068127.4724
 00  4 27  2  6  0.0000000  0  7 17 26 21 29 23 09 15
  21371552.149   -18200350.182 9 -14167783.87747  21371554.086    21371563.4414
  23792260.338    -3995172.976 8  -3097026.66145  23792269.526    23792280.3394
  22571066.404   -12787781.258 8  -9948586.37146  22571067.789    22571076.8154
  22258583.728   -13451131.476 8 -10460521.71346  22258583.519    22258593.9964
  20754575.605   -20982261.578 9 -16338283.79648  20754577.928    20754586.2594
  20745966.222   -19659018.076 9 -15303675.87448  20745970.407    20745978.5684
  24048312.934    -1941560.312 7  -1234455.84845  24048308.999    24048321.2044
 00  4 27  2  6 30.0000000  0  7 17 26 21 29 23 09 15
  21388239.445   -18112656.188 8 -14099450.96247  21388241.206    21388251.6774
  23810284.284    -3900476.128 8  -3023236.97645  23810290.512    23810300.0234
  22556330.736   -12865194.438 8 -10008908.23546  22556335.883    22556345.8874
  22246416.745   -13515060.325 8 -10510336.31446  22246419.318    22246428.5084
  20751030.044   -21000894.627 9 -16352803.02348  20751032.413    20751040.3344
  20747691.434   -19649952.863 9 -15296612.06648  20747695.260    20747703.7564
  24028543.320    -2045418.458 7  -1315384.15145  24028545.448    24028556.7854
 00  4 27  2  7  0.0000000  0  7 17 26 21 29 23 09 15
  21405009.608   -18024520.582 9 -14030773.93547  21405012.992    21405023.1084
  23828302.606    -3805768.748 8  -2949439.06945  23828311.676    23828323.1154
  22541617.761   -12942543.029 8 -10069179.77446  22541616.822    22541626.4664
  22234299.772   -13578731.228 8 -10559949.92546  22234302.953    22234311.1654
  20747534.114   -21019266.639 9 -16367118.84348  20747536.219    20747544.0794
  20749538.474   -19640249.968 9 -15289051.35648  20749541.256    20749549.8164
  24008824.407    -2149049.271 7  -1396135.31945  24008824.955    24008836.7964
 00  4 27  2  7 30.0000000  0  7 17 26 21 29 23 09 15
  21421867.476   -17935931.486 8 -13961743.52247  21421871.301    21421881.0764
  23846345.232    -3711053.061 8  -2875634.74045  23846336.491    23846347.1344
  22526906.979   -13019831.070 8 -10129404.07946  22526909.647    22526918.9024
  22222233.743   -13642151.602 8 -10609368.28046  22222234.186    22222243.0024
  20744085.814   -21037380.408 9 -16381233.43848  20744089.166    20744096.9494
  20751508.890   -19629902.159 9 -15280988.11548  20751510.759    20751518.9614
  23989145.761    -2252449.847 7  -1476707.05045  23989148.901    23989161.3214
 00  4 27  2  8  0.0000000  0  7 17 26 21 29 23 09 15
  21438814.768   -17846877.481 8 -13892350.84547  21438817.917    21438827.6954
  23864353.207    -3616342.672 8  -2801834.52045  23864359.286    23864369.0514
  22512210.892   -13097061.512 8 -10189583.47146  22512212.765    22512222.7904
  22210208.849   -13705334.263 8 -10658601.43546  22210210.688    22210220.0004
  20740687.901   -21055249.912 9 -16395157.68248  20740688.900    20740696.7384
  20753597.817   -19618918.977 9 -15272429.78048  20753601.065    20753609.3254
  23969507.584    -2355617.306 8  -1557097.17745  23969516.445    23969528.8054
 00  4 27  2  8 30.0000000  0  7 17 26 21 29 23 09 15
  21455851.844   -17757350.102 8 -13822589.31447  21455854.080    21455864.2204
  23882369.396    -3521653.387 8  -2728050.67445  23882376.942    23882387.5124
  22497525.992   -13174224.476 8 -10249710.32246  22497528.637    22497538.9534
  22198231.663   -13768285.799 8 -10707654.45846  22198231.423    22198241.0594
  20737329.363   -21072893.940 9 -16408906.25048  20737331.448    20737339.6044
  20755809.549   -19607305.926 9 -15263380.63948  20755810.649    20755819.3754
  23949929.403    -2458548.877 7  -1637303.50245  23949929.579    23949941.7154
 00  4 27  2  9  0.0000000  0  7 17 26 21 29 23 09 15
  21472975.098   -17667367.498 8 -13752473.06547  21472976.932    21472987.8024
  23900384.741    -3426992.422 8  -2654288.92845  23900389.276    23900400.8704
  22482858.485   -13251300.818 8 -10309769.68847  22482862.074    22482872.2284
  22186295.687   -13831006.898 8 -10756527.95147  22186296.446    22186304.8354
  20734016.839   -21090303.750 9 -16422472.30548  20734018.020    20734026.5184
  20758138.015   -19595058.977 9 -15253837.54948  20758141.393    20758149.4814
  23930384.246    -2561241.599 8  -1717323.63345  23930387.377    23930399.7114
 00  4 27  2  9 30.0000000  0  7 17 26 21 29 23 09 15
  21490177.192   -17576951.953 8 -13682019.46047  21490182.823    21490192.9444
  23918389.788    -3332373.124 8  -2580559.65045  23918395.835    23918406.0024
  22468205.973   -13328285.461 8 -10369757.55447  22468212.079    22468222.7144
  22174405.653   -13893496.032 8 -10805220.68547  22174404.542    22174413.5294
  20730746.012   -21107484.999 9 -16435860.26948  20730748.662    20730756.9024
  20760587.673   -19582182.817 9 -15243804.16048  20760591.422    20760599.7274
  23910891.405    -2663692.748 8  -1797155.56345  23910892.338    23910904.0244
 00  4 27  2 10  0.0000000  0  7 17 26 21 29 23 09 15
  21507464.698   -17486120.633 8 -13611241.87047  21507467.708    21507477.8414
  23936396.225    -3237790.751 8  -2506859.17945  23936395.799    23936405.8604
  22453578.322   -13405173.406 8 -10429670.04147  22453580.995    22453590.1294
  22162554.682   -13955750.080 8 -10853730.22447  22162558.031    22162566.7454
  20727522.834   -21124424.734 9 -16449060.05548  20727524.968    20727533.6964
  20763157.886   -19568690.196 9 -15233290.41848  20763158.833    20763167.1704
  23891432.670    -2765899.480 7  -1876797.02345  23891441.297    23891454.1314
 00  4 27  2 10 30.0000000  0  7 17 26 21 29 23 09 15
  21524824.825   -17394891.282 8 -13540154.12547  21524827.706    21524837.7834
  23954384.372    -3143222.464 8  -2433169.63345  23954391.397    23954401.5934
  22438964.527   -13481965.706 8 -10489507.99347  22438966.893    22438977.2374
  22150751.598   -14017772.715 8 -10902059.47247  22150756.394    22150764.1554
  20724348.700   -21141102.003 9 -16462055.31648  20724351.374    20724360.3684
  20765840.342   -19554577.202 9 -15222293.27148  20765844.419    20765852.8074
  23872045.849    -2867858.770 8  -1956245.68045  23872041.234    23872051.8254
 00  4 27  2 11  0.0000000  0  7 17 26 21 29 23 09 15
  21542263.058   -17303268.157 8 -13468759.54747  21542263.114    21542273.3574
  23972388.580    -3048653.462 8  -2359479.53345  23972387.038    23972397.4094
  22424368.820   -13558675.286 8 -10549281.59147  22424370.112    22424379.7104
  22138991.820   -14079568.033 8 -10950211.60147  22138996.797    22139004.4884
  20721227.306   -21157505.006 9 -16474836.85748  20721230.136    20721238.4514
  20768647.552   -19539834.064 9 -15210805.09848  20768650.019    20768658.3214
  23852689.085    -2969567.909 8  -2035499.40145  23852686.831    23852696.5724
 00  4 27  2 11 30.0000000  0  7 17 26 21 29 23 09 15
  21559773.941   -17211246.606 9 -13397054.51647  21559774.772    21559783.8554
  23990382.436    -2954083.015 8  -2285788.31345  23990383.542    23990394.0584
  22409781.967   -13635321.242 8 -10609005.67147  22409784.421    22409795.0054
  22127277.013   -14141134.781 8 -10998185.60947  22127280.610    22127288.8254
  20718157.564   -21173641.132 9 -16487410.44348  20718160.079    20718167.7584
  20771572.249   -19524447.853 9 -15198815.83148  20771578.024    20771586.1754
  23833366.577    -3071023.994 8  -2114555.95045  23833379.430    23833390.5504
 00  4 27  2 12  0.0000000  0  7 17 26 21 29 23 09 15
  21577357.701   -17118828.852 8 -13325040.74647  21577361.159    21577371.1084
  24008375.130    -2859508.913 8  -2212094.24645  24008380.658    24008390.2744
  22395207.481   -13711906.611 8 -10668682.62847  22395211.348    22395220.1384
  22115606.299   -14202471.609 8 -11045980.41147  22115608.410    22115616.1794
  20715137.594   -21189511.714 9 -16499777.10448  20715139.876    20715147.6114
  20774628.462   -19508396.318 9 -15186308.13048  20774632.411    20774640.6384
  23814114.476    -3172223.950 8  -2193412.89745  23814121.187    23814134.7034
 00  4 27  2 12 30.0000000  0  7 17 26 21 29 23 09 15
  21595017.908   -17026006.660 8 -13252711.85047  21595024.058    21595033.9614
  24026373.972    -2764938.447 8  -2138403.04045  24026375.989    24026386.5804
  22380644.064   -13788438.329 8 -10728317.81747  22380647.311    22380656.7604
  22103978.016   -14263577.902 8 -11093595.59947  22103980.666    22103988.3784
  20712165.293   -21205132.845 9 -16511949.40348  20712167.236    20712175.1804
  20777810.763   -19491670.714 9 -15173275.18348  20777814.739    20777823.4804
  23794910.984    -3273164.870 8  -2272067.97045  23794913.185    23794925.4334
 00  4 27  2 13  0.0000000  0  7 17 26 21 29 23 09 15
  21612765.179   -16932767.883 8 -13180058.31647  21612767.373    21612777.1974
  24044370.177    -2670389.577 8  -2064728.64445  24044368.604    24044378.6194
  22366090.412   -13864920.157 8 -10787914.02447  22366093.557    22366103.8044
  22092395.717   -14324442.295 8 -11141022.27947  22092398.119    22092407.3764
  20709235.006   -21220518.869 9 -16523938.49848  20709239.107    20709247.3084
  20781123.406   -19474276.527 9 -15159721.26848  20781125.389    20781133.3774
  23775746.002    -3373843.890 7  -2350518.98245  23775753.563    23775766.1244
 00  4 27  2 13 30.0000000  0  7 17 26 21 29 23 09 15
  21630588.666   -16839108.354 8 -13107076.93647  21630590.436    21630600.3104
  24062345.344    -2575876.186 8  -1991081.88145  24062353.947    24062364.0464
  22351547.828   -13941341.459 8 -10847462.96147  22351550.746    22351560.2154
  22080859.819   -14385063.337 8 -11188259.33747  22080861.661    22080870.9024
  20706355.593   -21235669.273 9 -16535743.99048  20706356.148    20706364.1684
  20784557.868   -19456232.238 9 -15145660.77748  20784559.045    20784567.2874
  23756641.052    -3474258.294 7  -2428763.77745  23756643.548    23756658.1074
 00  4 27  2 14  0.0000000  0  7 17 26 21 29 23 09 15
  21648490.429   -16745022.775 8 -13033763.56947  21648494.174    21648504.1224
  24080328.572    -2481397.701 8  -1917462.31445  24080332.047    24080343.4734
  22337019.444   -14017693.073 8 -10906957.60947  22337021.197    22337031.0774
  22069368.984   -14445442.592 8 -11235307.98647  22069372.255    22069380.7954
  20703517.919   -21250575.100 9 -16547358.89548  20703519.559    20703527.7904
  20788107.124   -19437562.199 9 -15131112.69048  20788111.033    20788120.1214
  23737588.133    -3574405.073 8  -2506800.06645  23737589.496    23737600.8324
 00  4 27  2 14 30.0000000  0  7 17 26 21 29 23 09 15
  21666476.422   -16650507.958 8 -12960115.71747  21666479.839    21666489.8394
  24098303.836    -2386942.558 7  -1843860.95845  24098306.504    24098317.4614
  22322504.680   -14093971.257 8 -10966395.09847  22322506.690    22322515.5214
  22057926.650   -14505582.303 8 -11282170.00047  22057927.689    22057935.6034
  20700729.876   -21265227.172 9 -16558776.08148  20700731.431    20700739.5904
  20791777.231   -19418287.464 9 -15116093.40948  20791779.382    20791788.0214
  23718578.649    -3674281.532 7  -2584625.73145  23718581.904    23718595.1594
 00  4 27  2 15  0.0000000  0  7 17 26 21 29 23 09 15
  21684543.087   -16555573.331 8 -12886140.77147  21684545.270    21684555.5004
  24116266.788    -2292503.228 8  -1770271.95845  24116277.888    24116287.8744
  22308004.583   -14170163.567 8 -11025765.67547  22308007.173    22308017.1834
  22046523.985   -14565486.542 8 -11328848.49147  22046527.890    22046536.7874
  20697993.815   -21279608.624 9 -16569982.39648  20697994.780    20698002.9924
  20795559.200   -19398414.541 9 -15100608.00548  20795561.219    20795570.0404
  23699616.252    -3773884.596 7  -2662238.34345  23699627.155    23699640.6544
 00  4 27  2 15 30.0000000  0  7 17 26 21 29 23 09 15
  21702684.954   -16460235.262 8 -12811851.44147  21702687.599    21702697.7094
  24134249.029    -2198075.241 8  -1696691.77545  24134247.486    24134257.2154
  22293526.430   -14246258.700 8 -11085060.52247  22293527.277    22293537.0414
  22035169.086   -14625158.417 8 -11375345.94447  22035172.916    22035182.4504
  20695307.700   -21293718.774 9 -16580977.30948  20695309.763    20695317.6334
  20799454.787   -19377944.466 9 -15084657.30348  20799456.530    20799465.1414
  23680726.942    -3873211.479 8  -2739635.85345  23680726.421    23680738.3844
 00  4 27  2 16  0.0000000  0  7 17 26 21 29 23 09 15
  21720904.424   -16364504.171 9 -12737255.86447  21720905.582    21720914.7804
  24152202.743    -2103651.829 7  -1623115.13045  24152214.651    24152225.7194
  22279059.727   -14322252.845 8 -11144276.68347  22279066.263    22279075.6094
  22023856.868   -14684600.031 8 -11421663.97847  22023860.748    22023870.1264
  20692672.561   -21307559.503 9 -16591762.27648  20692675.678    20692683.6684
  20803466.139   -19356871.995 9 -15068237.19848  20803466.915    20803475.0694
  23661870.629    -3972259.240 8  -2816815.79245  23661878.148    23661891.5034
 00  4 27  2 16 30.0000000  0  7 17 26 21 29 23 09 15
  21739191.890   -16268387.078 8 -12662359.49347  21739195.470    21739204.9104
  24170174.702    -2009243.379 8  -1549550.17745  24170180.592    24170190.7474
  22264626.641   -14398138.942 9 -11203408.63647  22264625.704    22264634.5044
  22012589.746   -14743811.493 8 -11467802.68647  22012593.563    22012602.2574
  20690089.741   -21321130.438 9 -16602337.01748  20690093.257    20690101.0134
  20807590.622   -19335188.407 9 -15051340.89948  20807593.053    20807600.7854
  23643087.498    -4071024.850 8  -2893775.85245  23643084.861    23643095.9854
 00  4 27  2 17  0.0000000  0  7 17 26 21 29 23 09 15
  21757554.333   -16171895.200 8 -12587171.10147  21757556.642    21757567.0114
  24188137.538    -1914869.229 8  -1476011.92945  24188138.518    24188149.0384
  22250200.535   -14473920.156 8 -11262458.87447  22250204.980    22250214.1934
  22001370.510   -14802779.716 8 -11513751.88247  22001372.570    22001380.4594
  20687558.488   -21334433.892 9 -16612703.33748  20687561.765    20687569.6064
  20811832.879   -19312890.247 9 -15033965.70648  20811835.909    20811844.3724
  23624340.234    -4169505.425 8  -2970513.82245  23624344.008    23624355.5614
 00  4 27  2 17 30.0000000  0  7 17 26 21 29 23 09 15
  21775987.331   -16075032.883 8 -12511694.04747  21775989.386    21775999.3864
  24206083.620    -1820529.961 7  -1402500.86045  24206090.207    24206101.7424
  22235803.341   -14549593.991 8 -11321425.44147  22235804.346    22235813.7744
  21990197.287   -14861494.438 8 -11559503.52347  21990199.682    21990208.4414
  20685078.452   -21347474.341 9 -16622864.71348  20685080.333    20685088.2144
  20816194.612   -19289980.936 9 -15016114.30248  20816195.453    20816203.7354
  23605654.480    -4267698.322 8  -3047027.68145  23605657.555    23605669.4434
 00  4 27  2 18  0.0000000  0  7 17 26 21 29 23 09 15
  21794488.634   -15977803.139 8 -12435930.68447  21794491.796    21794502.4144
  24224033.440    -1726226.735 8  -1329017.89745  24224036.322    24224046.8964
  22221419.657   -14625170.258 8 -11380315.97047  22221422.145    22221431.9254
  21979070.400   -14919956.235 8 -11605058.06647  21979074.249    21979083.0984
  20682649.221   -21360238.521 9 -16632810.81148  20682651.263    20682659.0824
  20820668.691   -19266450.005 9 -14997778.51348  20820672.930    20820681.4274
  23587030.902    -4365600.604 8  -3123315.02245  23587027.252    23587039.0674
 00  4 27  2 18 30.0000000  0  7 17 26 21 29 23 09 15
  21813062.334   -15880202.025 8 -12359877.94747  21813063.815    21813074.8354
  24241967.907    -1631958.593 8  -1255562.24145  24241975.317    24241985.2914
  22207053.870   -14700658.309 8 -11439137.74947  22207057.741    22207067.3344
  21967998.845   -14978151.839 8 -11650405.15447  21967999.372    21968009.0664
  20680273.368   -21372725.468 9 -16642540.88448  20680275.251    20680283.0274
  20825271.784   -19242279.828 9 -14978944.61548  20825272.941    20825280.9394
  23568448.011    -4463209.267 8  -3199373.58745  23568454.305    23568466.0894
 00  4 27  2 19  0.0000000  0  7 17 26 21 29 23 09 15
  21831705.047   -15782228.300 8 -12283534.87847  21831708.420    21831719.2424
  24259906.769    -1537709.965 8  -1182121.79645  24259910.376    24259921.0124
  22192706.026   -14776056.302 8 -11497889.38547  22192709.923    22192718.6894
  21956973.657   -15036080.679 8 -11695544.37747  21956976.384    21956985.7104
  20677947.381   -21384949.035 9 -16652065.71848  20677949.095    20677956.9614
  20829994.767   -19217462.517 9 -14959606.45448  20829995.609    20830003.5794
  23549937.113    -4560521.499 8  -3275201.16145  23549935.722    23549948.1404
 00  4 27  2 19 30.0000000  0  7 17 26 21 29 23 09 15
  21850425.573   -15683867.570 8 -12206890.22647  21850426.462    21850436.2594
  24277840.067    -1443466.418 8  -1108685.29345  24277844.730    24277854.0374
  22178376.273   -14851353.809 8 -11556562.75847  22178380.429    22178390.0614
  21945998.806   -15093761.913 8 -11740490.70747  21946000.286    21946009.5904
  20675669.564   -21396912.180 9 -16661387.63548  20675672.616    20675680.4364
  20834840.972   -19191995.942 9 -14939762.37848  20834841.785    20834849.8754
  23531468.596    -4657534.362 8  -3350795.45645  23531474.725    23531487.1194
 00  4 27  2 20  0.0000000  0  7 17 26 21 29 23 09 15
  21869218.885   -15585109.170 8 -12129935.70447  21869219.281    21869229.6454
  24295773.446    -1349237.424 8  -1035260.10145  24295775.561    24295785.7634
  22164068.613   -14926554.775 8 -11615160.87747  22164070.706    22164079.7054
  21935063.610   -15151212.247 8 -11785257.14447  21935067.640    21935076.5334
  20673442.238   -21408619.458 9 -16670510.16948  20673444.589    20673452.6734
  20839806.201   -19165882.567 9 -14919414.30248  20839811.189    20839819.3884
  23513071.362    -4754244.867 8  -3426154.19445  23513070.681    23513082.3644
 00  4 27  2 20 30.0000000  0  7 17 26 21 29 23 09 15
  21888085.906   -15485946.185 8 -12052665.93147  21888089.785    21888099.0194
  24313696.589    -1255028.629 8   -961850.71945  24313704.282    24313713.6424
  22149774.677   -15001645.237 8 -11673672.90347  22149781.286    22149791.0804
  21924174.853   -15208438.063 8 -11829848.62347  21924177.557    21924186.7514
  20671261.037   -21420081.635 9 -16679441.72748  20671263.453    20671271.2174
  20844896.242   -19139139.565 9 -14898575.60548  20844900.220    20844908.3204
  23494726.600    -4850650.017 8  -3501274.93645  23494725.601    23494738.6824
 00  4 27  2 21  0.0000000  0  7 17 26 21 29 23 09 15
  21907031.396   -15386390.572 8 -11975090.20147  21907033.855    21907044.7444
  24331624.358    -1160844.193 8   -888460.32745  24331626.388    24331636.7604
  22135514.447   -15076618.777 8 -11732093.80547  22135514.475    22135523.6364
  21913323.107   -15265452.883 8 -11874275.64847  21913328.318    21913336.3854
  20669129.656   -21431287.399 9 -16688173.48048  20669131.210    20669138.8754
  20850101.953   -19111793.722 9 -14877267.15948  20850103.428    20850111.7174
  23476438.626    -4946746.972 8  -3576155.52246  23476440.436    23476450.9594
 00  4 27  2 21 30.0000000  0  7 17 26 21 29 23 09 15
  21926050.470   -15286448.982 8 -11897213.72846  21926052.373    21926062.8284
  24349530.615    -1066705.089 8   -815105.26245  24349540.162    24349551.4654
  22121264.252   -15151482.978 8 -11790429.50047  22121267.912    22121277.7284
  21902515.947   -15322263.730 8 -11918543.76347  21902517.402    21902525.8344
  20667051.949   -21442209.097 9 -16696683.86948  20667052.761    20667060.7484
  20855418.062   -19083858.751 9 -14855499.65248  20855419.648    20855427.9064
  23458207.735    -5042532.925 8  -3650793.84245  23458211.465    23458222.3804
 00  4 27  2 22  0.0000000  0  7 17 26 21 29 23 09 15
  21945138.303   -15186136.526 8 -11819048.26147  21945141.648    21945152.5334
  24367436.397     -972629.907 8   -741799.93145  24367441.307    24367452.7924
  22107036.604   -15226253.818 8 -11848692.46247  22107039.650    22107049.0394
  21891743.398   -15378860.044 8 -11962644.74747  21891747.018    21891754.7594
  20665026.626   -21452834.946 9 -16704963.74048  20665030.532    20665038.8384
  20860844.469   -19055340.839 9 -14833277.90448  20860846.207    20860854.3944
  23440038.651    -5138005.165 8  -3725187.64345  23440043.710    23440054.1584
 00  4 27  2 22 30.0000000  0  7 17 26 21 29 23 09 15
  21964296.568   -15085470.502 8 -11740607.28947  21964297.628    21964308.2954
  24385331.516     -878609.826 8   -668537.57845  24385333.364    24385344.8094
  22092828.371   -15300931.621 8 -11906882.89047  22092828.714    22092837.3494
  21881018.325   -15435221.329 8 -12006562.59047  21881022.297    21881030.7964
  20663065.201   -21463154.651 9 -16713005.06348  20663066.945    20663075.0384
  20866385.817   -19026224.086 9 -14810589.52948  20866387.042    20866395.3464
  23421932.373    -5233160.647 8  -3799334.60145  23421933.998    23421946.3634
 00  4 27  2 23  0.0000000  0  7 17 26 21 29 23 09 15
  21983516.487   -14984463.839 8 -11661900.88347  21983518.878    21983529.0944
  24403217.687     -784632.443 7   -595308.50245  24403216.059    24403226.8354
  22078632.492   -15375512.100 8 -11964997.49347  22078636.036    22078645.2364
  21870340.097   -15491340.682 8 -12050291.91447  21870343.490    21870351.2624
  20661161.340   -21473159.012 9 -16720800.65248  20661162.875    20661171.2554
  20872043.471   -18996500.150 9 -14787428.02748  20872043.615    20872051.5574
  23403883.754    -5327996.324 8  -3873232.40145  23403889.521    23403899.3884
 00  4 27  2 23 30.0000000  0  8 17 26 21 29 23 09 05 15
  22002803.553   -14883108.261 8 -11582922.58947  22002805.723    22002816.5414
  24421081.488     -690703.057 7   -522116.88245  24421089.990    24421101.9304
  22064461.007   -15449996.838 8 -12023037.50147  22064461.917    22064471.8304
  21859709.689   -15547213.749 8 -12093829.32147  21859710.879    21859718.4594
  20659314.266   -21482862.814 9 -16728362.03948  20659316.351    20659324.5094
  20877816.338   -18966158.124 9 -14763784.89648  20877817.433    20877825.6214
  24550461.220      -17303.14717
  23385905.128    -5422509.376 8  -3946878.79745  23385904.994    23385914.5814
 00  4 27  2 24  0.0000000  0  8 17 26 21 29 23 09 05 15
  22022156.696   -14781407.177 8 -11503675.10346  22022159.413    22022169.6304
  24438953.163     -596812.353 7   -448955.33945  24438956.411    24438967.9724
  22050303.919   -15524378.071 8 -12080996.83047  22050308.367    22050317.6874
  21849125.378   -15602833.331 8 -12137169.20547  21849126.283    21849134.6294
  20657521.537   -21492290.728 9 -16735708.45448  20657522.594    20657530.3834
  20883709.175   -18935187.368 9 -14739651.83448  20883710.745    20883718.9044
  24535134.750      -97763.761 7
  23367978.952    -5516697.078 8  -4020271.66945  23367979.959    23367991.4334
 00  4 27  2 24 30.0000000  0  8 17 26 21 29 23 09 05 15
  22041576.228   -14679358.965 8 -11424157.10046  22041578.690    22041588.3684
  24456820.711     -502952.823 7   -375818.12345  24456817.778    24456829.1624
  22036175.485   -15598636.947 8 -12138860.84547  22036177.323    22036186.9044
  21838585.760   -15658206.270 8 -12180316.87047  21838589.442    21838597.5304
  20655778.634   -21501447.258 9 -16742843.40048  20655779.683    20655787.8744
  20889721.590   -18903577.350 9 -14715020.66348  20889726.067    20889734.1134
  24519831.177     -178187.457 7   -130119.79555  24519827.513    24519844.8334
  23350115.786    -5610556.528 8  -4093408.73745  23350118.291    23350128.4984
 00  4 27  2 25  0.0000000  0  8 17 26 21 29 23 09 05 15
  22061062.001   -14576951.845 8 -11344359.43646  22061065.760    22061076.5334
  24474661.269     -409142.610 7   -302719.38845  24474669.491    24474681.2834
  22022068.175   -15672771.464 8 -12196627.95247  22022069.522    22022079.0804
  21828094.901   -15713343.057 8 -12223280.52447  21828097.344    21828105.6494
  20654085.283   -21510339.931 9 -16749772.74048  20654087.656    20654095.6394
  20895858.188   -18871348.565 9 -14689907.32348  20895859.099    20895867.3314
  24504537.435     -258549.218 7   -192739.05545  24504540.449    24504554.3554
  23332315.034    -5704084.650 8  -4166287.66645  23332320.907    23332332.4514
 00  4 27  2 25 30.0000000  0  8 17 26 21 29 23 09 05 15
  22080620.069   -14474184.296 8 -11264280.93946  22080621.991    22080632.0284
  24492510.652     -315391.989 7   -229667.03245  24492510.161    24492521.9814
  22007981.991   -15746792.245 8 -12254306.39047  22007983.752    22007992.7224
  21817648.468   -15768243.382 8 -12266059.89947  21817650.305    21817657.5134
  20652442.720   -21518971.806 9 -16756498.87248  20652445.235    20652453.0644
  20902105.887   -18838506.282 9 -14664315.94148  20902108.446    20902116.6804
  24489259.014     -338837.677 7   -255301.22045  24489259.733    24489273.8144
  23314588.452    -5797278.581 8  -4238906.19645  23314587.737    23314598.2204
 00  4 27  2 26  0.0000000  0  8 17 26 21 29 23 09 05 15
  22100244.066   -14371070.389 8 -11183932.52646  22100243.722    22100254.8504
  24510329.128     -221690.798 7   -156653.17345  24510341.850    24510352.0524
  21993919.835   -15820690.636 8 -12311889.43447  21993921.267    21993930.5104
  21807242.216   -15822908.915 8 -12308656.33547  21807247.523    21807255.1154
  20650852.746   -21527327.100 9 -16763009.47848  20650855.260    20650863.2724
  20908470.900   -18805054.694 9 -14638249.77947  20908474.084    20908482.3424
  24474003.939     -419055.828 7   -317808.63845  24473993.476    24474009.7934
  23296913.100    -5890135.543 8  -4311262.06945  23296915.175    23296928.4264
 00  4 27  2 26 30.0000000  0  8 17 26 21 29 23 09 05 15
  22119923.744   -14267619.213 8 -11103321.34246  22119929.828    22119940.5954
  24528165.968     -128030.261 7    -83670.98645  24528164.289    24528174.5934
  21979880.978   -15894466.367 8 -12369376.97047  21979882.491    21979892.0214
  21796887.570   -15877341.250 8 -12351071.06047  21796889.139    21796896.3774
  20649317.152   -21535396.282 9 -16769297.13648  20649319.690    20649327.8374
  20914950.358   -18771008.282 9 -14611720.11047  20914952.598    20914961.3584
  24458749.736     -499200.642 7   -380258.85845  24458744.738    24458756.0474
  23279300.538    -5982652.716 7  -4383353.25245  23279308.533    23279321.6694
 00  4 27  2 27  0.0000000  0  8 17 26 21 29 23 09 05 15
  22139676.392   -14163840.627 8 -11022455.00846  22139678.557    22139688.4184
  24545983.689      -34400.510 8    -10712.78345  24545982.477    24545992.5074
  21965863.698   -15968128.066 8 -12426775.65647  21965865.074    21965874.5424
  21786572.102   -15931537.388 8 -12393301.73247  21786575.799    21786583.3894
  20647834.972   -21543185.267 9 -16775366.47048  20647837.275    20647845.2454
  20921541.325   -18736384.100 9 -14584740.23647  20921541.172    20921549.6584
  24443498.853     -579285.155 7   -442662.19245  24443504.717    24443519.0544
  23261771.318    -6074826.984 8  -4455177.22045  23261771.254    23261780.4424
 00  4 27  2 27 30.0000000  0  8 17 26 21 29 23 09 05 15
  22159485.810   -14059751.125 8 -10941346.39846  22159486.310    22159496.5044
  24563787.590       59203.976 7     62225.67145  24563794.297    24563804.5844
  21951866.287   -16041674.181 8 -12484084.25847  21951869.667    21951879.7984
  21776303.938   -15985505.817 8 -12435354.97947  21776306.156    21776314.6034
  20646406.855   -21550685.579 9 -16781210.85948  20646409.962    20646417.9664
  20928239.144   -18701176.146 9 -14557305.46647  20928241.396    20928249.4754
  24428269.219     -659335.297 7   -505038.70445  24428270.574    24428286.7164
  23244292.171    -6166655.655 8  -4526731.89345  23244295.503    23244306.1844
 00  4 27  2 28  0.0000000  0  8 17 26 21 29 23 09 05 15
  22179348.682   -13955352.249 8 -10859996.71546  22179352.457    22179363.6634
  24581599.738      152774.571 7    135137.75745  24581599.732    24581611.4854
  21937893.745   -16115097.541 8 -12541297.20647  21937897.441    21937907.6854
  21766078.704   -16039243.862 8 -12477228.71647  21766079.729    21766087.7284
  20645033.553   -21557896.819 9 -16786829.99548  20645037.649    20645045.7354
  20935049.026   -18665385.324 9 -14529416.52247  20935052.515    20935060.6234
  24413041.780     -739355.796 7   -567392.08145  24413043.380    24413058.3154
  23226885.885    -6258135.807 8  -4598015.00945  23226887.760    23226898.3344
 00  4 27  2 28 30.0000000  0  8 17 26 21 29 23 09 05 15
  22199274.631   -13850641.751 8 -10778404.23646  22199278.421    22199289.5364
  24599390.940      246298.241 7    208013.23445  24599395.961    24599408.0514
  21923945.527   -16188406.656 9 -12598421.12347  21923947.689    21923956.4754
  21755897.536   -16092748.356 8 -12518920.49647  21755898.511    21755905.9454
  20643718.656   -21564821.402 9 -16792225.76948  20643720.347    20643728.1504
  20941969.444   -18629013.942 9 -14501075.19847  20941973.596    20941981.8464
  24397817.070     -819343.791 7   -629720.13745  24397822.052    24397835.0894
  23209540.547    -6349264.532 8  -4669024.22046  23209546.727    23209559.2844
 00  4 27  2 29  0.0000000  0  8 17 26 21 29 23 09 05 15
  22219265.231   -13745617.772 8 -10696567.46246  22219264.139    22219274.0224
  24617168.729      339755.053 7    280836.67345  24617180.258    24617192.0784
  21910019.852   -16261594.548 9 -12655450.60247  21910020.925    21910029.1124
  21745757.074   -16146031.157 8 -12560439.49747  21745759.291    21745766.0384
  20642457.668   -21571445.641 9 -16797387.49948  20642459.664    20642467.6854
  20949003.680   -18592055.569 9 -14472276.47047  20949005.693    20949014.5274
  24382598.974     -899283.422 7   -692010.60545  24382607.909    24382623.9884
  23192271.364    -6440038.917 8  -4739757.43345  23192272.145    23192281.1104
 00  4 27  2 29 30.0000000  0  8 17 26 21 29 23 09 05 15
  22239303.828   -13640273.983 8 -10614481.48646  22239310.180    22239320.8364
  24634939.170      433135.160 7    353600.25345  24634949.463    24634962.6644
  21896116.634   -16334652.476 9 -12712378.77747  21896117.690    21896126.3494
  21735659.647   -16199087.553 9 -12601782.12347  21735662.812    21735670.3424
  20641256.427   -21577756.591 9 -16802305.11448  20641258.906    20641266.7194
  20956149.311   -18554501.249 9 -14443013.36847  20956152.439    20956160.7564
  24367406.340     -979152.912 7   -754246.37345  24367410.792    24367423.3144
  23175069.600    -6530456.101 8  -4810212.25246  23175067.116    23175078.2444
 00  4 27  2 30  0.0000000  0  8 17 26 21 29 23 09 05 15
  22259415.564   -13534614.416 8 -10532149.48146  22259417.270    22259427.7804
  24652711.986      526452.381 7    426314.92845  24652708.370    24652720.1844
  21882236.655   -16407574.655 9 -12769201.14147  21882241.105    21882250.0914
  21725608.890   -16251907.053 8 -12642940.09347  21725610.297    21725619.1404
  20640115.415   -21583753.782 9 -16806978.24648  20640117.451    20640125.7484
  20963408.384   -18516360.092 9 -14413292.98947  20963411.062    20963419.0964
  24352232.558    -1058925.313 7   -816406.47945  24352230.365    24352244.3954
  23157921.969    -6620513.136 8  -4880386.42846  23157929.256    23157940.6284
 00  4 27  2 30 30.0000000  0  8 17 26 21 29 23 09 05 15
  22279584.777   -13428633.705 8 -10449567.20846  22279584.372    22279595.3024
  24670455.152      619714.372 7    498986.55245  24670456.161    24670466.6164
  21868387.464   -16480356.571 9 -12825914.18247  21868391.265    21868400.2074
  21715598.717   -16304502.790 8 -12683923.70247  21715602.107    21715610.2704
  20639032.591   -21589441.115 9 -16811409.92448  20639035.175    20639043.5174
  20970778.634   -18477635.571 9 -14383118.05247  20970779.934    20970787.9344
  24337068.617    -1138586.663 7   -878479.99345  24337070.924    24337083.2784
  23140859.944    -6710207.377 8  -4950277.91045  23140861.534    23140869.9444
 00  4 27  2 31  0.0000000  0  8 17 26 21 29 23 09 05 15
  22299812.240   -13322324.168 8 -10366728.72046  22299814.112    22299826.0344
  24688199.227      712930.481 7    571622.34845  24688194.273    24688205.7334
  21854568.478   -16552991.111 9 -12882512.42747  21854569.636    21854578.4414
  21705635.523   -16356863.976 8 -12724724.56547  21705638.337    21705646.3204
  20638007.729   -21594828.856 9 -16815608.14748  20638010.017    20638018.0954
  20978256.279   -18438325.201 9 -14352486.60447  20978260.821    20978268.5584
  24321921.428    -1218120.065 7   -940453.91445  24321935.805    24321951.2474
  23123860.888    -6799535.988 8  -5019884.57545  23123862.541    23123872.4474
 00  4 27  2 31 30.0000000  0  8 17 26 21 29 23 09 05 15
  22320101.245   -13215682.873 8 -10283631.73346  22320107.928    22320118.2414
  24705925.466      806110.221 7    644229.78845  24705926.808    24705937.7124
  21840773.830   -16625482.624 9 -12938999.20047  21840775.072    21840783.6484
  21695719.040   -16408969.864 8 -12765326.47747  21695723.214    21695730.0774
  20637038.207   -21599925.714 9 -16819579.71848  20637040.188    20637047.8704
  20985849.704   -18398434.730 9 -14321403.12347  20985851.527    20985859.7824
  24306824.299    -1297536.685 7  -1002336.80545  24306823.967    24306837.5284
  23106933.039    -6888495.981 8  -5089203.90646  23106934.142    23106945.7154
 00  4 27  2 32  0.0000000  0  8 17 26 21 29 23 09 05 15
  22340463.559   -13108707.755 8 -10200274.59146  22340464.026    22340475.3294
  24723649.335      899251.965 7    716807.67645  24723650.148    24723660.6304
  21827004.793   -16697836.409 9 -12995378.75047  21827006.606    21827015.1124
  21685855.093   -16460826.435 8 -12805734.15047  21685854.896    21685862.5954
  20636122.370   -21604739.063 9 -16823330.36448  20636124.082    20636132.0094
  20993548.338   -18357969.830 9 -14289872.03847  20993551.606    20993559.6984
  24291732.312    -1376847.100 7  -1064136.83645  24291731.647    24291745.3064
  23090077.327    -6977084.588 8  -5158233.84746  23090076.261    23090086.8684
 00  4 27  2 32 30.0000000  0  8 17 26 21 29 23 09 05 15
  22360880.979   -13001396.529 8 -10116655.55746  22360885.618    22360895.2104
  24741366.869      992347.285 7    789349.41245  24741367.323    24741376.4504
  21813260.823   -16770056.268 9 -13051653.94047  21813263.363    21813271.6164
  21676032.540   -16512430.037 8 -12845944.71847  21676035.123    21676043.5784
  20635259.495   -21609268.637 9 -16826859.88548  20635262.168    20635269.9254
  21001362.738   -18316916.423 9 -14257882.38647  21001363.990    21001372.2364
  24276656.311    -1456053.190 7  -1125855.67345  24276659.596    24276671.6444
  23073290.570    -7065298.991 8  -5226972.24746  23073288.858    23073299.9694
 00  4 27  2 33  0.0000000  0  8 17 26 21 29 23 09 05 15
  22381364.421   -12893769.943 8 -10032790.77546  22381366.413    22381377.1234
  24759068.908     1085393.273 7    861852.74345  24759071.827    24759082.3744
  21799543.638   -16842143.749 9 -13107825.96147  21799545.113    21799553.5474
  21666259.254   -16563778.305 8 -12885956.30247  21666263.495    21666272.1224
  20634454.024   -21613499.308 9 -16830156.49848  20634457.072    20634464.7684
  21009285.834   -18275274.236 9 -14225433.93847  21009288.068    21009296.1814
  24261602.900    -1535160.112 7  -1187497.19345  24261603.055    24261618.5974
  23056565.575    -7153136.174 8  -5295416.67746  23056574.171    23056585.0304
 00  4 27  2 33 30.0000000  0  8 17 26 21 29 23 09 05 15
  22401900.320   -12785850.330 8  -9948697.68546  22401902.637    22401913.1344
  24776774.764     1178380.899 7    934310.62345  24776766.906    24776778.3524
  21785851.959   -16914092.826 9 -13163890.12547  21785853.360    21785862.7554
  21656534.537   -16614887.433 8 -12925781.54247  21656537.758    21656546.1974
  20633710.175   -21617410.089 9 -16833203.85148  20633712.753    20633720.4334
  21017319.200   -18233050.019 9 -14192531.96447  21017323.065    21017331.5354
  24246564.519    -1614182.829 7  -1249073.14745  24246566.321    24246581.5214
  23039929.860    -7240593.326 8  -5363565.00146  23039932.777    23039943.2864
 00  4 27  2 34  0.0000000  0  8 17 26 21 29 23 09 05 15
  22422489.434   -12677659.418 8  -9864393.18446  22422490.494    22422500.6344
  24794450.573     1271306.919 7   1006720.38745  24794450.248    24794460.7814
  21772189.742   -16985889.219 9 -13219835.33547  21772191.258    21772199.5974
  21646853.614   -16665773.375 8 -12965432.87647  21646854.858    21646863.0004
  20633026.676   -21621000.576 9 -16836001.61948  20633029.577    20633037.3024
  21025467.166   -18190242.265 9 -14159175.27847  21025469.586    21025477.4664
  24231548.508    -1693104.631 7  -1310570.41445  24231550.416    24231562.3554
  23023361.287    -7327667.815 8  -5431415.14946  23023362.169    23023372.1884
 00  4 27  2 34 30.0000000  0  7 17 21 29 23 09 05 15
  22443127.078   -12569213.835 8  -9779890.22046  22443127.345    22443137.8754
  21758556.525   -17057525.197 9 -13275655.57647  21758558.970    21758568.1584
  21637211.385   -16716437.170 8 -13004911.12847  21637213.919    21637222.2814
  20632404.822   -21624267.304 9 -16838547.11748  20632407.846    20632415.8704
  21033726.749   -18146845.554 9 -14125359.67547  21033727.798    21033735.4374
  24216541.758    -1771913.168 7  -1371979.44445  24216551.160    24216565.3094
  23006861.216    -7414356.703 8  -5498964.75946  23006865.485    23006876.7724
 00  4 27  2 35  0.0000000  0  7 17 21 29 23 09 05 15
  22463806.516   -12460520.842 8  -9695194.50046  22463810.848    22463821.9974
  21744959.088   -17128996.042 9 -13331347.13147  21744958.596    21744967.7144
  21627611.261   -16766887.770 8 -13044223.28147  21627613.743    21627622.3674
  20631845.488   -21627207.352 9 -16840838.05448  20631848.389    20631856.4434
  21042094.255   -18102871.300 9 -14091094.03547  21042095.537    21042103.8144
  24201574.682    -1850611.593 7  -1433302.71445  24201575.271    24201588.7454
  22990443.062    -7500657.365 8  -5566211.89746  22990444.587    22990453.3694
 00  4 27  2 35 30.0000000  0  7 17 21 29 23 09 05 15
  22484541.154   -12351573.140 8  -9610300.27346  22484542.775    22484553.7584
  21731389.209   -17200294.709 9 -13386904.56147  21731390.915    21731400.5844
  21618052.439   -16817111.390 8 -13083358.47947  21618055.427    21618064.0274
  20631347.966   -21629830.105 9 -16842881.74748  20631349.393    20631357.2694
  21050569.694   -18058324.786 9 -14056382.46747  21050572.867    21050580.5534
  24186629.548    -1929196.089 7  -1494537.24545  24186621.773    24186632.9184
  22974091.734    -7586566.816 8  -5633154.26246  22974094.559    22974104.2594
 00  4 27  2 36  0.0000000  0  7 17 21 29 23 09 05 15
  22505322.919   -12242360.111 8  -9525199.31946  22505325.788    22505335.5154
  21717851.814   -17271429.648 9 -13442334.37447  21717854.368    21717863.8384
  21608539.966   -16867104.787 9 -13122314.28947  21608542.524    21608550.8494
  20630905.987   -21632153.272 9 -16844692.00548  20630907.068    20630915.0374
  21059153.211   -18013213.480 9 -14021230.80847  21059157.273    21059165.3444
  24171693.562    -2007646.113 8  -1555666.94045  24171693.794    24171706.5584
  22957815.832    -7672082.267 8  -5699789.50346  22957821.040    22957833.1614
 00  4 27  2 36 30.0000000  0  7 17 21 29 23 09 05 15
  22526161.194   -12132868.670 8  -9439881.38746  22526160.889    22526172.5224
  21704342.802   -17342422.525 9 -13497653.45147  21704344.958    21704354.4484
  21599073.330   -16916866.931 8 -13161089.95047  21599073.052    21599081.6804
  20630520.015   -21634174.172 9 -16846266.72548  20630522.479    20630530.5104
  21067846.872   -17967541.130 9 -13985641.97147  21067848.002    21067855.8534
  24156781.493    -2085975.425 7  -1616702.54745  24156786.651    24156801.5294
  22941623.355    -7757200.567 8  -5766115.33546  22941624.542    22941634.5134
 00  4 27  2 37  0.0000000  0  7 17 21 29 23 09 05 15
  22547044.060   -12023097.896 8  -9354345.83846  22547049.965    22547061.6724
  21690859.768   -17413277.236 9 -13552864.85947  21690861.085    21690870.6724
  21589644.857   -16966392.209 9 -13199681.02347  21589648.950    21589657.0674
  20630192.804   -21635889.091 9 -16847603.02848  20630195.993    20630203.9384
  21076639.648   -17921320.227 9 -13949625.69047  21076643.096    21076651.3404
  24141897.023    -2164184.432 7  -1677644.44945  24141905.590    24141919.7604
  22925500.554    -7841919.215 8  -5832129.75746  22925502.495    22925513.0184
 00  4 27  2 37 30.0000000  0  7 17 21 29 23 09 05 15
  22567995.210   -11913041.987 8  -9268588.11446  22567993.189    22568003.7864
  21677399.319   -17483992.102 8 -13607967.31347  21677404.405    21677413.9614
  21580267.985   -17015676.464 9 -13238084.29547  21580270.318    21580278.2064
  20629924.432   -21637305.896 9 -16848707.03048  20629926.886    20629934.5474
  21085538.804   -17874558.595 9 -13913188.06547  21085542.119    21085550.2944
  24127048.532    -2242265.638 7  -1738486.80145  24127046.443    24127058.2964
  22909453.530    -7926235.473 8  -5897830.60546  22909456.933    22909468.3084
 00  4 27  2 38  0.0000000  0  7 17 21 29 23 09 05 15
  22588985.830   -11802699.647 8  -9182607.16246  22588990.910    22589000.9874
  21663970.071   -17554582.462 9 -13662972.73647  21663971.436    21663981.0264
  21570932.331   -17064730.698 9 -13276308.34247  21570935.699    21570943.8284
  20629713.330   -21638413.672 9 -16849570.23548  20629715.729    20629723.9934
  21094542.986   -17827250.007 9 -13876324.23947  21094545.006    21094552.3444
  24112211.984    -2320219.325 7  -1799229.77045  24112211.512    24112225.5704
  22893485.831    -8010146.684 8  -5963215.86846  22893488.656    22893500.3064
 00  4 27  2 38 30.0000000  0  7 17 21 29 23 09 05 15
  22610037.564   -11692076.710 8  -9096407.59146  22610042.102    22610052.9104
  21650563.921   -17625040.369 9 -13717874.95547  21650564.085    21650572.8244
  21561642.510   -17113548.707 9 -13314348.31447  21561645.982    21561653.3684
  20629563.478   -21639203.679 9 -16850185.82748  20629565.343    20629573.8004
  21103650.263   -17779384.034 9 -13839026.09047  21103653.546    21103661.4724
  24097397.953    -2398053.506 7  -1859879.60445  24097400.506    24097413.1954
  22877597.107    -8093649.875 8  -6028283.17746  22877599.391    22877610.7084
 00  4 27  2 39  0.0000000  0  7 17 21 29 23 09 05 15
  22631142.928   -11581167.819 8  -9009985.18346  22631146.878    22631158.1134
  21637184.303   -17695337.861 9 -13772652.19547  21637186.611    21637195.6124
  21552398.487   -17162121.037 9 -13352196.83747  21552402.895    21552410.8164
  20629473.608   -21639678.177 9 -16850555.58048  20629475.254    20629483.4614
  21112862.515   -17730970.856 9 -13801301.53947  21112865.033    21112873.4844
  24082617.893    -2475754.777 8  -1920425.83345  24082614.219    24082627.2934
  22861787.121    -8176742.082 8  -6093030.25146  22861787.619    22861798.1724
 00  4 27  2 39 30.0000000  0  7 17 21 29 23 09 05 15
  22652305.728   -11469972.360 8  -8923339.49346  22652306.576    22652317.9924
  21623838.784   -17765465.516 9 -13827297.09847  21623841.851    21623850.7784
  21543201.552   -17210451.415 9 -13389856.81747  21543205.527    21543213.4884
  20629443.122   -21639838.398 9 -16850680.42948  20629444.816    20629452.9274
  21122176.448   -17682009.233 9 -13763149.63347  21122182.289    21122190.7854
  24067848.741    -2553326.422 7  -1980871.07345  24067852.160    24067864.9124
  22846049.240    -8259420.588 8  -6157454.99845  22846053.087    22846062.5004
 00  4 27  2 40  0.0000000  0  7 17 21 29 23 09 05 15
  22673512.072   -11358504.035 8  -8836481.21346  22673517.531    22673530.6574
  21610529.308   -17835416.681 9 -13881804.47147  21610531.034    21610539.8834
  21534050.154   -17258541.677 9 -13427329.69747  21534054.256    21534062.0884
  20629475.738   -21639676.731 9 -16850554.45148  20629475.814    20629483.6444
  21131605.378   -17632487.434 9 -13724561.22347  21131606.665    21131614.2514
  24053109.624    -2630772.009 7  -2041218.12045  24053114.817    24053127.3174
  22830392.513    -8341682.733 8  -6221555.31446  22830399.045    22830410.0424
 00  4 27  2 40 30.0000000  0  7 17 21 29 23 09 05 15
  22694775.925   -11246772.696 8  -8749417.97646  22694780.349    22694792.2924
  21597257.038   -17905174.139 9 -13936160.89647  21597257.171    21597266.1324
  21524947.379   -17306394.705 9 -13464617.72347  21524948.417    21524956.2354
  20629563.821   -21639205.845 9 -16850187.53048  20629565.430    20629573.3414
  21141131.755   -17582410.889 9 -13685540.55847  21141135.714    21141144.3804
  24038404.135    -2708081.354 8  -2101458.99645  24038402.773    24038416.5764
  22814821.650    -8423525.917 8  -6285329.10646  22814826.289    22814835.9504
 00  4 27  2 41  0.0000000  0  7 17 21 29 23 09 05 15
  22716090.192   -11134788.779 8  -8662157.91346  22716090.528    22716101.7384
  21584018.213   -17974730.205 9 -13990360.38047  21584020.702    21584029.4684
  21515880.774   -17354023.016 9 -13501730.65747  21515885.006    21515892.7344
  20629711.496   -21638422.011 9 -16849576.74548  20629714.177    20629722.2634
  21150767.092   -17531778.865 9 -13646087.04447  21150770.537    21150779.0054
  24023720.932    -2785250.038 8  -2161590.29645  24023719.365    24023731.3354
  22799327.942    -8504947.370 8  -6348774.31146  22799331.019    22799341.1654
 00  4 27  2 41 30.0000000  0  7 17 21 29 23 09 05 15
  22737436.935   -11022573.474 8  -8574717.55746  22737444.443    22737455.9904
  21570817.958   -18044096.242 9 -14044411.76447  21570820.597    21570829.4104
  21506860.352   -17401434.951 9 -13538674.98647  21506862.928    21506870.1834
  20629921.650   -21637320.771 9 -16848718.64448  20629923.783    20629931.7954
  21160511.154   -17480575.118 9 -13606188.02347  21160514.539    21160522.7574
  24009054.594    -2862274.397 8  -2221609.10245  24009062.052    24009074.4814
  22783914.850    -8585944.500 8  -6411888.82246  22783918.679    22783927.8874
 00  4 27  2 42  0.0000000  0  7 17 21 29 23 09 05 15
  22758839.066   -10910131.249 8  -8487100.37446  22758841.653    22758852.2204
  21557652.753   -18113281.052 9 -14098321.95047  21557655.019    21557663.8794
  21497878.228   -17448635.755 9 -13575454.77347  21497880.436    21497887.0174
  20630191.575   -21635900.808 9 -16847612.17548  20630193.857    20630201.8444
  21170365.576   -17428795.758 9 -13565840.48447  21170368.054    21170376.4044
  23994430.961    -2939135.364 8  -2281500.57545  23994434.170    23994447.2344
  22768584.373    -8666514.352 8  -6474670.45546  22768586.734    22768593.8924
 00  4 27  2 42 30.0000000  0  7 17 21 29 23 09 05 15
  22780279.472   -10797457.681 8  -8399302.92146  22780283.293    22780294.1164
  21544520.637   -18182282.238 9 -14152089.05847  21544524.573    21544532.9604
  21488940.089   -17495625.516 9 -13612070.08447  21488938.476    21488945.7134
  20630523.511   -21634156.871 9 -16846253.25848  20630525.747    20630533.9014
  21180324.576   -17376451.823 9 -13525053.02347  21180328.184    21180336.6974
  23979842.393    -3015824.748 8  -2341258.39145  23979841.774    23979853.9524
  22753329.207    -8746654.269 8  -6537117.08446  22753334.724    22753345.8884
 00  4 27  2 43  0.0000000  0  7 17 21 29 23 09 05 15
  22801766.822   -10684561.323 8  -8311331.87246  22801765.682    22801778.1104
  21531427.259   -18251102.348 9 -14205715.09147  21531428.201    21531436.9744
  21480034.833   -17542391.114 9 -13648510.75447  21480039.000    21480046.9884
  20630921.908   -21632071.933 9 -16844628.63748  20630922.458    20630930.6774
  21190392.447   -17323554.251 9 -13483834.14847  21190394.275    21190402.7144
  23965274.198    -3092344.742 8  -2400884.22145  23965280.763    23965293.0714
  22738167.423    -8826361.510 8  -6599226.53046  22738169.149    22738178.8854
 00  4 27  2 43 30.0000000  0  7 17 21 29 23 09 05 15
  22823286.282   -10571436.821 8  -8223183.07146  22823293.534    22823304.1754
  21518363.325   -18319753.399 9 -14259209.34447  21518364.974    21518373.5864
  21471185.546   -17588911.711 9 -13684760.53247  21471186.989    21471194.7664
  20631382.465   -21629644.442 9 -16842737.08448  20631384.354    20631392.7754
  21200555.647   -17270123.903 9 -13442200.12847  21200561.292    21200569.9264
  23950753.046    -3168690.326 8  -2460374.14045  23950752.458    23950764.2914
  22723075.715    -8905633.328 8  -6660996.65646  22723083.113    22723091.8364
 00  4 27  2 44  0.0000000  0  7 17 21 29 23 09 05 15
  22844864.909   -10458074.409 8  -8134848.87246  22844866.117    22844877.1784
  21505328.937   -18388238.316 9 -14312574.16347  21505332.210    21505340.9504
  21462379.361   -17635182.372 9 -13720815.56147  21462381.581    21462389.9494
  20631911.097   -21626866.260 9 -16840572.26648  20631913.084    20631921.3994
  21210822.620   -17216177.958 9 -13400164.33747  21210827.269    21210836.0724
  23936246.225    -3244865.751 8  -2519731.41945  23936255.805    23936267.7994
  22708080.932    -8984467.053 8  -6722425.46446  22708082.445    22708090.3964
 00  4 27  2 44 30.0000000  0  7 17 21 29 23 09 05 15
  22866476.556   -10344480.729 8  -8046334.46446  22866481.812    22866493.4084
  21492329.955   -18456555.471 9 -14365808.21747  21492331.651    21492340.4334
  21453621.034   -17681196.039 8 -13756670.39047  21453625.520    21453633.4854
  20632507.859   -21623733.705 9 -16838131.31748  20632509.261    20632517.6194
  21221186.905   -17161726.904 9 -13357734.96147  21221189.309    21221197.4214
  23921785.992    -3320883.695 8  -2578966.05045  23921789.686    23921802.3684
  22693161.840    -9062860.101 8  -6783510.89146  22693164.101    22693174.0604
 00  4 27  2 45  0.0000000  0  7 17 21 29 23 09 05 15
  22888143.129   -10230650.932 8  -7957636.06546  22888142.681    22888154.8214
  21479358.918   -18524712.808 9 -14418917.75347  21479361.417    21479370.3494
  21444917.324   -17726950.158 9 -13792322.96947  21444918.583    21444926.2754
  20633171.230   -21620254.130 9 -16835419.96448  20633171.775    20633179.6584
  21231643.326   -17106780.754 9 -13314919.78947  21231645.460    21231653.8154
  23907352.457    -3396736.516 8  -2638071.97645  23907355.151    23907367.4774
  22678325.496    -9140809.823 8  -6844250.82546  22678329.966    22678340.6304
 00  4 27  2 45 30.0000000  0  7 17 21 29 23 09 05 15
  22909845.906   -10116572.942 8  -7868744.27646  22909851.756    22909862.2564
  21466419.665   -18592708.584 9 -14471901.42547  21466422.802    21466431.0884
  21436253.917   -17772464.236 8 -13827788.48547  21436257.692    21436265.3684
  20633894.160   -21616445.652 9 -16832452.31948  20633896.422    20633904.3474
  21242196.145   -17051330.900 9 -13271712.12147  21242197.053    21242205.2364
  23892953.372    -3472418.350 8  -2697044.69145  23892953.780    23892965.6594
  22663581.924    -9218313.434 8  -6904643.18746  22663582.641    22663593.2204
 00  4 27  2 46  0.0000000  0  7 17 21 29 23 09 05 15
  22931601.464   -10002255.738 8  -7779666.09246  22931604.991    22931617.0844
  21453516.087   -18660518.146 9 -14524739.99847  21453518.679    21453527.5174
  21427633.138   -17817763.634 8 -13863086.66047  21427637.115    21427645.1184
  20634680.073   -21612318.775 9 -16829236.57648  20634681.683    20634689.7264
  21252842.861   -16995364.997 9 -13228102.33847  21252846.236    21252855.5434
  23878574.514    -3547925.981 8  -2755881.67045  23878584.231    23878597.8464
  22648916.150    -9295368.311 8  -6964685.82446  22648919.479    22648929.4184
 00  4 27  2 46 30.0000000  0  7 17 21 29 23 09 05 15
  22953400.671    -9887711.178 8  -7690410.74046  22953403.584    22953413.3434
  21440652.960   -18728126.446 9 -14577421.77647  21440653.355    21440662.1654
  21419054.739   -17862852.273 8 -13898220.62147  21419057.039    21419065.1544
  20635521.246   -21607888.387 9 -16825784.32948  20635524.637    20635532.8124
  21263591.952   -16938879.242 9 -13184087.47647  21263595.748    21263604.1614
  23864249.873    -3623252.525 8  -2814577.50645  23864250.774    23864263.0344
  22634340.189    -9371971.765 8  -7024376.78046  22634342.736    22634352.7894
 00  4 27  2 47  0.0000000  0  7 17 21 29 23 09 05 15
  22975246.150    -9772942.568 8  -7600980.76446  22975243.612    22975254.1944
  21427828.086   -18795519.418 9 -14629935.74347  21427828.648    21427837.5524
  21410511.246   -17907736.636 8 -13933195.40547  21410515.504    21410523.8624
  20636423.133   -21603156.231 9 -16822096.94448  20636425.210    20636433.3984
  21274440.087   -16881867.990 9 -13139663.13247  21274445.001    21274453.2374
  23849943.885    -3698388.313 8  -2873124.74045  23849952.862    23849964.4504
  22619846.853    -9448121.406 8  -7083714.03846  22619850.998    22619860.8854
 00  4 27  2 47 30.0000000  0  7 17 21 29 23 09 05 15
  22997117.352    -9657963.122 8  -7511386.56346  22997122.446    22997134.6704
  21415044.174   -18862686.080 9 -14682273.38247  21415047.233    21415056.2094
  21402007.343   -17952430.937 9 -13968022.10747  21402010.809    21402019.0194
  20637383.207   -21598113.120 9 -16818167.25048  20637384.778    20637392.8684
  21285391.793   -16824310.097 9 -13094812.84547  21285397.192    21285405.8114
  23835691.001    -3773332.201 8  -2931522.46445  23835690.898    23835703.3184
  22605444.139    -9523814.318 8  -7142695.45846  22605447.433    22605456.3684
 00  4 27  2 48  0.0000000  0  7 17 21 29 23 09 05 15
  23019035.831    -9542787.668 8  -7421639.61846  23019040.174    23019051.2154
  21402308.340   -18929623.309 9 -14734432.25047  21402309.878    21402318.0954
  21393542.095   -17996921.997 8 -14002690.43147  21393544.311    21393552.5024
  20638405.304   -21592737.663 9 -16813978.58648  20638407.700    20638415.5904
  21296452.250   -16766215.443 9 -13049544.29347  21296452.363    21296461.2754
  23821461.741    -3848075.974 8  -2989764.20645  23821467.494    23821480.0454
  22591130.589    -9599048.020 8  -7201319.01646  22591131.585    22591140.7564
 00  4 27  2 48 30.0000000  0  7 17 21 29 23 09 05 15
  23040997.692    -9427411.300 8  -7331736.09246  23040995.301    23041006.1314
  21389610.895   -18996357.222 9 -14786432.68147  21389610.746    21389619.0774
  21385116.890   -18041195.108 9 -14037188.94447  21385120.027    21385127.6314
  20639495.861   -21587009.079 9 -16809514.76748  20639498.131    20639505.9924
  21307605.169   -16707591.043 9 -13003862.94347  21307608.836    21307617.2784
  23807278.306    -3922610.842 8  -3047843.18345  23807284.067    23807296.4314
  22576899.559    -9673819.992 8  -7259582.79746  22576902.463    22576912.6474
 00  4 27  2 49  0.0000000  0  7 17 21 29 23 09 05 15
  23062993.239    -9311823.869 8  -7241668.13546  23062991.113    23063002.7884
  21376945.555   -19062897.902 9 -14838282.55847  21376948.410    21376956.5004
  21376734.337   -18085248.791 9 -14071516.40247  21376736.947    21376744.9484
  20640657.434   -21580911.606 9 -16804763.49948  20640658.735    20640666.1264
  21318861.707   -16648446.319 9 -12957776.16947  21318863.475    21318872.1384
  23793143.289    -3996926.266 8  -3105751.15245  23793142.217    23793155.9244
  22562759.458    -9748127.609 8  -7317484.73546  22562762.714    22562772.0464
 00  4 27  2 49 30.0000000  0  7 17 21 29 23 09 05 15
  23085020.779    -9196029.043 8  -7151438.56946  23085026.486    23085038.0054
  21364318.398   -19129253.378 9 -14889988.13347  21364320.942    21364329.8544
  21368395.730   -18129067.928 9 -14105661.14347  21368398.387    21368406.1184
  20641887.763   -21574438.273 9 -16799719.35348  20641890.335    20641898.0654
  21330210.932   -16588795.263 9 -12911294.84347  21330214.696    21330223.0124
  23779040.893    -4071023.046 8  -3163488.77445  23779042.583    23779054.0864
  22548708.795    -9821968.327 8  -7375022.90546  22548711.130    22548721.9034
 00  4 27  2 50  0.0000000  0  7 17 21 29 23 09 05 15
  23107096.150    -9080032.523 8  -7061051.84346  23107099.877    23107111.7904
  21351728.531   -19195426.131 9 -14941551.31547  21351729.191    21351737.5064
  21360107.397   -18172623.997 9 -14139600.91447  21360109.842    21360117.4904
  20643189.642   -21567591.666 9 -16794384.34748  20643193.086    20643201.1904
  21341654.512   -16528661.253 9 -12864437.18447  21341657.686    21341665.8084
  23764986.900    -4144907.655 8  -3221061.07145  23764982.734    23764993.4834
  22534744.957    -9895339.489 8  -7432195.13246  22534747.476    22534759.3564
 00  4 27  2 50 30.0000000  0  7 17 21 29 23 09 05 15
  23129204.426    -8963832.350 8  -6970506.42246  23129211.134    23129224.0044
  21339172.128   -19261410.014 9 -14992967.34247  21339173.299    21339181.0434
  21351866.533   -18215919.584 8 -14173337.71647  21351870.318    21351878.5694
  20644563.427   -21560380.381 9 -16788765.17948  20644565.395    20644573.7494
  21353191.429   -16468035.249 9 -12817196.16447  21353194.559    21353202.3414
  23750951.402    -4218590.795 8  -3278476.36545  23750960.504    23750973.1334
  22520876.680    -9968238.516 8  -7488999.49646  22520877.307    22520887.0014
 00  4 27  2 51  0.0000000  0  7 17 21 29 23 09 05 15
  23151363.455    -8847441.977 8  -6879812.80846  23151359.981    23151372.4344
  21326655.228   -19327181.097 9 -15044217.53347  21326657.612    21326665.5164
  21343678.461   -18258949.887 8 -14206867.80047  21343681.426    21343690.1754
  20646002.761   -21552818.385 9 -16782872.74048  20646004.376    20646012.5974
  21364822.712   -16406913.875 9 -12769569.13147  21364825.203    21364833.3804
  23736973.740    -4292080.453 8  -3335740.90745  23736975.148    23736988.3724
  22507094.249   -10040662.776 8  -7545433.90846  22507093.604    22507105.0664
 00  4 27  2 51 30.0000000  0  7 17 21 29 23 09 05 15
  23173536.220    -8730884.256 8  -6788988.74346  23173540.890    23173552.2104
  21314182.487   -19392732.909 9 -15095296.83047  21314183.097    21314191.1524
  21335542.879   -18301708.929 9 -14240186.51347  21335545.339    21335553.0514
  20647505.320   -21544915.153 9 -16776714.39348  20647508.041    20647516.5554
  21376546.774   -16345290.423 9 -12721550.87347  21376552.102    21376559.7854
  23723025.782    -4365380.582 8  -3392857.75845  23723027.598    23723039.5884
  22493397.739   -10112609.840 8  -7601496.43546  22493403.279    22493412.7174
 00  4 27  2 52  0.0000000  0  7 17 21 29 23 09 05 15
  23195750.907    -8614159.320 8  -6698034.40645  23195752.879    23195764.6234
  21301749.044   -19458063.676 9 -15146203.89647  21301750.899    21301759.5824
  21327454.171   -18344222.478 9 -14273313.94647  21327455.582    21327463.3114
  20649074.260   -21536684.582 9 -16770300.97948  20649074.570    20649082.5484
  21388374.947   -16283158.743 8 -12673136.58347  21388374.756    21388383.8014
  23709112.321    -4438477.612 8  -3449816.34546  23709118.075    23709130.4374
  22479804.141   -10184077.253 8  -7657185.27246  22479802.895    22479813.2014
 00  4 27  2 52 30.0000000  0  7 17 21 29 23 09 05 15
  23217990.189    -8497265.841 8  -6606948.75745  23217996.550    23218008.2754
  21289359.310   -19523172.631 9 -15196938.13347  21289361.550    21289369.9564
  21319406.757   -18386506.387 9 -14306262.44447  21319409.529    21319416.8864
  20650702.003   -21528127.357 9 -16763633.03848  20650703.015    20650711.0414
  21400293.373   -16220508.277 8 -12624318.05447  21400297.221    21400305.2724
  23695249.405    -4511356.461 8  -3506604.93045  23695248.045    23695260.7954
  22466294.227   -10255062.423 8  -7712498.30246  22466295.267    22466305.5014
 00  4 27  2 53  0.0000000  0  7 17 21 29 23 09 05 15
  23240275.477    -8380207.707 8  -6515734.79845  23240272.152    23240283.6324
  21277010.696   -19588063.782 9 -15247502.65447  21277012.960    21277021.0514
  21311406.765   -18428560.615 9 -14339031.99647  21311406.852    21311414.0934
  20652391.748   -21519245.415 9 -16756712.06148  20652392.969    20652401.2284
  21412313.262   -16157359.633 8 -12575111.32747  21412314.075    21412322.7084
  23681419.862    -4584003.377 8  -3563212.79145  23681423.812    23681436.3904
  22452875.339   -10325562.702 8  -7767433.49846  22452878.653    22452888.0564
 00  4 27  2 53 30.0000000  0  7 17 21 29 23 09 05 15
  23262573.484    -8262992.048 8  -6424398.10845  23262578.428    23262589.2924
  21264701.977   -19652748.977 9 -15297906.64947  21264703.785    21264712.1984
  21303442.230   -18470401.378 9 -14371635.20147  21303444.132    21303452.3594
  20654143.843   -21510035.370 9 -16749535.42148  20654145.911    20654154.0284
  21424421.519   -16093724.070 8 -12525525.18347  21424423.068    21424431.8194
  23667646.302    -4656413.833 8  -3619636.39145  23667646.287    23667657.3174
  22439551.385   -10395575.725 8  -7821989.02446  22439555.713    22439565.5944
 00  4 27  2 54  0.0000000  0  7 17 21 29 23 09 05 15
  23284912.093    -8145611.034 8  -6332932.52545  23284914.765    23284928.1764
  21252432.312   -19717223.199 9 -15348146.25947  21252434.519    21252442.5444
  21295517.590   -18512043.538 9 -14404083.65847  21295520.231    21295527.7664
  20655963.415   -21500479.764 9 -16742089.50148  20655964.343    20655972.3284
  21436622.927   -16029609.259 8 -12475565.61847  21436624.225    21436632.7444
  23653908.387    -4728590.928 8  -3675878.14645  23653910.802    23653922.3914
  22426324.584   -10465099.088 8  -7876162.98346  22426326.345    22426335.5924
 00  4 27  2 54 30.0000000  0  7 17 21 29 23 09 05 15
  23307277.015    -8028070.156 8  -6241342.40746  23307282.967    23307294.9824
  21240205.099   -19781482.155 9 -15398218.13947  21240206.944    21240214.5704
  21287631.604   -18553480.455 9 -14436372.14047  21287634.631    21287642.4814
  20657849.113   -21490560.141 9 -16734359.93348  20657851.852    20657859.7954
  21448912.451   -15965017.445 8 -12425234.35547  21448915.577    21448923.8824
  23640205.862    -4800545.746 7  -3731946.69545  23640216.488    23640229.9794
  22413188.499   -10534130.318 8  -7929953.49846  22413188.631    22413198.0674
 00  4 27  2 55  0.0000000  0  7 17 21 29 23 09 05 15
  23329679.826    -7910375.447 8  -6149632.41646  23329679.507    23329692.8324
  21228017.446   -19845530.160 9 -15448125.62947  21228018.946    21228026.9444
  21279784.460   -18594725.402 9 -14468511.02947  21279786.057    21279794.1674
  20659806.514   -21480277.552 9 -16726347.53548  20659808.359    20659816.5234
  21461292.835   -15899958.882 8 -12374539.37747  21461295.694    21461304.4704
  23626568.909    -4872282.210 8  -3787845.08646  23626566.708    23626579.2734
  22400145.721   -10602666.836 8  -7983358.52146  22400148.765    22400157.1574
 00  4 27  2 55 30.0000000  0  7 17 21 29 23 09 05 15
  23352105.129    -7792525.739 8  -6057801.67545  23352105.638    23352118.0674
  21215871.985   -19909356.693 9 -15497860.55647  21215873.138    21215881.6374
  21271970.333   -18635783.166 9 -14500504.07447  21271973.439    21271981.1434
  20661834.127   -21469626.010 9 -16718047.64448  20661835.315    20661843.5094
  21473761.845   -15834428.852 8 -12323477.04447  21473765.325    21473773.9844
  23612956.718    -4943794.649 8  -3843568.92445  23612958.210    23612969.4764
  22387197.810   -10670706.270 8  -8036376.16946  22387200.154    22387209.8664
 00  4 27  2 56  0.0000000  0  7 17 21 29 23 09 05 15
  23374557.783    -7674499.433 8  -5965833.30645  23374565.435    23374577.5394
  21203767.943   -19972956.150 9 -15547418.54547  21203770.524    21203778.6634
  21264196.323   -18676640.835 9 -14532341.19547  21264198.819    21264206.4914
  20663928.326   -21458612.602 9 -16709465.77948  20663931.233    20663938.8644
  21486323.006   -15768423.846 8 -12272044.58047  21486325.287    21486334.4344
  23599394.790    -5015074.489 8  -3899111.53346  23599395.021    23599405.4344
  22374344.041   -10738246.152 8  -8089004.60546  22374348.266    22374356.7884
 00  4 27  2 56 30.0000000  0  7 17 21 29 23 09 05 15
  23397053.198    -7556292.082 8  -5873723.88545  23397059.428    23397071.2514
  21191708.188   -20036328.063 9 -15596799.23847  21191710.775    21191719.0874
  21256463.949   -18717277.230 9 -14564005.89447  21256465.592    21256473.1614
  20666089.581   -21447256.863 9 -16700617.15948  20666091.962    20666099.8954
  21498976.486   -15701946.666 8 -12220244.20747  21498976.539    21498984.6004
  23585867.429    -5086109.955 8  -3954463.70445  23585875.546    23585888.3924
  22361587.606   -10805284.122 8  -8141241.88846  22361589.180    22361601.4874
 00  4 27  2 57  0.0000000  0  7 17 21 29 23 09 05 15
  23419583.217    -7437902.573 8  -5781472.50745  23419588.514    23419601.1314
  21179693.697   -20099458.352 9 -15645991.64647  21179697.116    21179705.8364
  21248773.951   -18757673.424 9 -14595483.45747  21248778.299    21248786.1124
  20668312.333   -21435575.330 9 -16691514.68048  20668314.861    20668323.2184
  21511711.951   -15635006.311 9 -12168082.90847  21511714.776    21511723.3154
  23572406.767    -5156892.567 8  -4009618.83146  23572407.088    23572418.2754
  22348930.084   -10871817.901 8  -8193086.30246  22348929.618    22348938.9734
 00  4 27  2 57 30.0000000  0  7 17 21 29 23 09 05 15
  23442153.878    -7319334.377 8  -5689081.88945  23442151.536    23442162.9514
  21167726.602   -20162335.003 9 -15694986.41447  21167731.684    21167740.6174
  21241139.689   -18797803.240 9 -14626753.44847  21241142.233    21241149.8184
  20670597.717   -21423568.100 9 -16682158.41848  20670599.827    20670608.1164
  21524540.717   -15567602.739 8 -12115560.66447  21524541.333    21524549.5634
  23558984.081    -5227425.418 8  -4064579.38745  23558985.214    23558995.5664
  22336360.307   -10937845.161 8  -8244536.09746  22336363.886    22336373.9264
 00  4 27  2 58  0.0000000  0  7 17 21 29 23 09 05 15
  23464744.556    -7200601.379 8  -5596562.87245  23464745.482    23464756.8364
  21155812.605   -20224970.728 9 -15743793.45747  21155812.990    21155821.7194
  21233555.602   -18837659.462 9 -14657810.26647  21233557.614    21233565.5134
  20672945.147   -21411228.229 9 -16672542.95448  20672948.004    20672956.4634
  21537453.351   -15499734.438 8 -12062676.29347  21537455.941    21537464.6374
  23545608.537    -5297711.844 8  -4119347.90245  23545609.295    23545621.0964
  22323896.578   -11003363.476 8  -8295589.24246  22323897.517    22323906.9284
 00  4 27  2 58 30.0000000  0  7 17 21 29 23 09 05 15
  23487365.584    -7081732.295 8  -5503937.81245  23487365.729    23487378.2024
  21143940.975   -20287352.649 9 -15792402.72647  21143942.315    21143950.7614
  21226019.472   -18877250.777 9 -14688660.61347  21226023.563    21226031.3664
  20675361.482   -21398537.777 9 -16662654.30548  20675363.280    20675371.2914
  21550455.302   -15431403.855 8 -12009431.70447  21550458.524    21550467.8834
  23532280.616    -5367750.805 8  -4173923.57846  23532282.232    23532293.2164
  22311523.516   -11068370.560 8  -8346244.02646  22311525.891    22311535.7704
 00  4 27  2 59  0.0000000  0  7 17 21 29 23 09 05 15
  23510010.122    -6962738.882 8  -5411215.90845  23510010.047    23510022.6434
  21132116.918   -20349480.714 9 -15840814.18147  21132119.581    21132128.0214
  21218532.446   -18916595.033 9 -14719318.39447  21218536.266    21218544.4344
  20677844.448   -21385483.720 9 -16652482.32448  20677847.175    20677855.3084
  21563547.571   -15362611.559 8 -11955827.33047  21563549.832    21563558.5434
  23518995.055    -5437537.691 8  -4228302.85646  23519000.611    23519012.7364
  22299250.772   -11132864.030 8  -8396498.61846  22299253.240    22299262.2354
 00  4 27  2 59 30.0000000  0  7 17 21 29 23 09 05 15
  23532673.152    -6843624.344 8  -5318399.58945  23532676.573    23532689.8244
  21120340.488   -20411367.830 9 -15889037.88347  21120342.773    21120351.0264
  21211086.368   -18955722.245 9 -14749807.07447  21211090.233    21211098.4084
  20680402.634   -21372043.255 9 -16642009.25548  20680404.689    20680412.8974
  21576727.656   -15293350.806 8 -11901857.93247  21576729.273    21576738.0764
  23505770.169    -5507058.312 8  -4282474.62046  23505771.583    23505784.0094
  22287073.436   -11196841.489 8  -8446351.16746  22287077.990    22287088.1784
 00  4 27  3  0  0.0000000  0  7 17 21 29 23 09 05 15
  23555356.911    -6724386.315 7  -5225487.08245  23555366.558    23555379.8934
  21108608.920   -20473008.729 9 -15937069.72147  21108612.792    21108621.1074
  21203677.895   -18994656.680 9 -14780145.56747  21203681.607    21203689.7994
  20683033.631   -21358211.880 9 -16631231.57848  20683036.573    20683044.7874
  21589997.392   -15223615.002 8 -11847518.36647  21590000.090    21590008.6304
  23492595.218    -5576297.097 8  -4336426.81146  23492596.630    23492607.9424
  22275001.426   -11260300.589 8  -8495799.75046  22275002.660    22275011.5374
 00  4 27  3  0 30.0000000  0  7 17 21 29 23 09 05 15
  23578074.284    -6605016.217 7  -5132471.62745  23578081.573    23578095.8484
  21096929.110   -20534398.953 9 -15984906.22047  21096931.035    21096939.0694
  21196306.704   -19033404.119 9 -14810338.40047  21196308.524    21196315.9254
  20685738.940   -21344003.521 9 -16620160.14748  20685740.132    20685748.9524
  21603358.313   -15153406.479 8 -11792810.44547  21603360.213    21603368.2884
  23479474.118    -5645245.633 8  -4390152.80546  23479476.322    23479486.6744
  22263022.462   -11323239.009 8  -8544842.61246  22263026.462    22263035.1944
 00  4 27  3  1  0.0000000  0  7 17 21 29 23 09 05 15
  23600829.039    -6485502.208 8  -5039344.06645  23600826.196    23600837.8494
  21085289.681   -20595556.903 9 -16032561.73047  21085292.889    21085300.8634
  21188967.218   -19071967.530 9 -14840387.79547  21188969.839    21188977.1354
  20688512.927   -21329432.157 9 -16608805.85748  20688513.365    20688521.8034
  21616807.326   -15082724.995 8 -11737733.98147  21616810.900    21616819.2884
  23466407.617    -5713892.426 8  -4443643.70646  23466412.529    23466423.7784
  22251146.341   -11385654.710 8  -8593478.15046  22251148.430    22251158.6184
 00  4 27  3  1 30.0000000  0  7 17 21 29 23 09 05 15
  23623591.683    -6365843.287 8  -4946103.55245  23623595.916    23623609.8124
  21073694.359   -20656487.124 9 -16080039.78547  21073697.592    21073706.2964
  21181666.170   -19110334.069 9 -14870283.77147  21181669.033    21181676.4814
  20691350.872   -21314503.604 9 -16597173.24548  20691354.307    20691362.3224
  21630349.897   -15011569.299 8 -11682288.00547  21630351.269    21630359.7754
  23453396.610    -5782247.875 8  -4496907.57945  23453404.129    23453414.9584
  22239372.301   -11447545.202 8  -8641704.43246  22239372.497    22239381.7274
 00  4 27  3  2  0.0000000  0  7 17 21 29 23 09 05 15
  23646393.100    -6246050.323 8  -4852758.60445  23646391.537    23646405.0384
  21062145.681   -20717186.571 9 -16127338.01647  21062147.170    21062155.6764
  21174409.664   -19148468.492 9 -14899998.87947  21174412.438    21174419.8254
  20694260.517   -21299227.788 9 -16585270.02248  20694261.369    20694269.0894
  21643974.920   -14939956.098 9 -11626485.53447  21643978.869    21643987.5914
  23440452.380    -5850325.371 8  -4549954.84446  23440449.135    23440461.6474
  22227692.054   -11508908.666 8  -8689520.05746  22227693.728    22227704.1464
 00  4 27  3  2 30.0000000  0  7 17 21 29 23 09 05 15
  23669210.039    -6126130.259 8  -4759314.63745  23669211.826    23669225.6924
  21050637.117   -20777655.753 9 -16174456.83147  21050640.451    21050648.8194
  21167198.765   -19186364.337 9 -14929528.10747  21167201.426    21167208.6234
  20697233.728   -21283598.418 9 -16573091.30448  20697235.487    20697243.4454
  21657684.892   -14867903.826 8 -11570340.95247  21657689.421    21657698.0784
  23427541.405    -5918137.866 8  -4602795.61346  23427545.305    23427557.8574
  22216116.100   -11569742.537 8  -8736923.02446  22216118.555    22216127.6694
 00  4 27  3  3  0.0000000  0  7 17 21 29 23 09 05 15
  23692052.994    -6006091.496 8  -4665778.14045  23692055.418    23692067.9634
  21039179.608   -20837878.090 9 -16221383.31047  21039180.642    21039188.6624
  21160031.766   -19224020.473 9 -14958870.52947  21160035.161    21160042.6244
  20700275.723   -21267605.940 9 -16560629.65448  20700278.622    20700286.7244
  21671481.886   -14795421.356 8 -11513861.14647  21671483.013    21671490.9804
  23414689.669    -5985704.982 8  -4655445.22346  23414688.243    23414698.7294
  22204640.400   -11630044.574 8  -8783911.55246  22204642.328    22204653.6234
 00  4 27  3  3 30.0000000  0  7 17 21 29 23 09 05 15
  23714910.187    -5885948.583 8  -4572160.51845  23714917.386    23714930.8864
  21027770.307   -20897829.348 9 -16268098.56947  21027771.721    21027780.4314
  21152912.849   -19261428.348 9 -14988019.49047  21152916.550    21152924.2054
  20703392.577   -21251230.213 9 -16547869.36548  20703394.883    20703402.8844
  21685351.617   -14722526.772 8 -11457060.19547  21685354.049    21685362.0554
  23401873.832    -6053041.178 8  -4707914.86746  23401873.966    23401885.4024
  22193266.343   -11689812.504 8  -8830483.90446  22193270.288    22193280.0424
 00  4 27  3  4  0.0000000  0  7 17 21 29 23 09 05 15
  23737790.006    -5765710.557 8  -4478468.76545  23737797.367    23737810.5034
  21016417.196   -20957489.183 9 -16314586.73547  21016419.107    21016427.5574
  21145839.187   -19298601.185 9 -15016985.26547  21145842.547    21145850.5184
  20706581.990   -21234465.260 9 -16534805.77248  20706585.342    20706593.3964
  21699299.917   -14649221.592 8 -11399939.30947  21699303.505    21699312.4004
  23389103.399    -6120128.877 8  -4760190.87445  23389107.417    23389117.6564
  22181992.440   -11749044.298 8  -8876638.47746  22181996.290    22182008.7154
 00  4 27  3  4 30.0000000  0  7 17 21 29 23 09 05 15
  23760701.927    -5645362.638 8  -4384691.40345  23760700.314    23760713.0134
  21005121.948   -21016850.067 9 -16360841.93047  21005123.068    21005131.7204
  21138805.331   -19335561.381 8 -15045785.37347  21138809.144    21138817.4174
  20709846.941   -21217309.135 9 -16521437.37448  20709850.074    20709858.1124
  21713331.380   -14575495.606 8 -11342490.52947  21713333.588    21713341.4754
  23376381.523    -6186941.257 8  -4812252.34946  23376392.869    23376406.1434
  22170824.092   -11807737.978 8  -8922373.74246  22170827.207    22170838.6584
 00  4 27  3  5  0.0000000  0  7 17 21 29 23 09 05 15
  23783618.885    -5524903.214 8  -4290827.17945  23783622.568    23783636.8614
  20993882.513   -21075910.288 9 -16406862.84347  20993884.281    20993892.8124
  21131817.021   -19372292.712 8 -15074407.12547  21131819.408    21131827.8504
  20713187.124   -21199767.755 9 -16507768.77748  20713187.776    20713196.0564
  21727443.158   -14501345.745 8 -11284711.44347  21727443.427    21727451.3664
  23363732.241    -6253457.616 8  -4864083.16846  23363735.108    23363746.8684
  22159761.598   -11865891.387 8  -8967688.04246  22159762.271    22159771.8414
 00  4 27  3  5 30.0000000  0  7 17 21 29 23 09 05 15
  23806563.135    -5404337.702 8  -4196880.28046  23806565.499    23806579.0544
  20982699.290   -21134676.861 9 -16452654.99247  20982701.799    20982709.8584
  21124871.691   -19408791.618 9 -15102847.72747  21124873.880    21124881.8604
  20716595.519   -21181839.049 9 -16493798.36647  20716599.399    20716607.5984
  21741632.612   -14426762.748 8 -11226594.85447  21741636.390    21741644.4904
  23351143.185    -6319639.359 8  -4915653.24146  23351142.436    23351153.4184
  22148795.978   -11923502.341 8  -9012579.62146  22148799.232    22148808.6974
 00  4 27  3  6  0.0000000  0  7 17 21 29 23 09 05 15
  23829534.064    -5283659.516 8  -4102845.59746  23829530.664    23829543.7284
  20971569.932   -21193162.639 9 -16498228.31847  20971572.251    20971580.3614
  21117970.340   -19445062.214 9 -15131110.49147  21117972.063    21117979.9324
  20720080.554   -21163542.287 9 -16479541.15948  20720081.629    20720089.6964
  21755909.105   -14351738.303 8 -11168134.29447  21755912.877    21755921.6324
  23338611.300    -6385469.818 8  -4966949.58846  23338614.237    23338625.6524
  22137937.957   -11980568.668 8  -9057046.83146  22137940.297    22137949.7944
 00  4 27  3  6 30.0000000  0  7 17 21 29 23 09 05 15
  23852514.227    -5162879.399 8  -4008731.48646  23852514.709    23852528.2764
  20960493.675   -21251382.365 9 -16543594.31147  20960493.595    20960501.4934
  21111113.660   -19481100.851 9 -15159192.51147  21111114.416    21111122.0004
  20723630.214   -21144879.745 9 -16464998.93048  20723632.852    20723641.0664
  21770272.499   -14276278.742 8 -11109334.68847  21770272.188    21770281.1544
  23326151.632    -6450959.754 8  -5017980.61646  23326151.886    23326163.3634
  22127185.430   -12037088.557 8  -9101088.25246  22127185.260    22127194.3004
 00  4 27  3  7  0.0000000  0  7 17 21 29 23 09 05 15
  23875510.401    -5042024.121 8  -3914558.82845  23875512.199    23875525.9124
  20949463.715   -21309329.209 9 -16588747.67547  20949466.782    20949474.2614
  21104296.058   -19516915.035 9 -15187099.66247  21104299.215    21104306.1234
  20727252.454   -21125854.326 9 -16450173.93347  20727252.972    20727261.3804
  21784709.513   -14200388.154 8 -11050199.20147  21784714.230    21784722.8944
  23313746.883    -6516135.779 8  -5068767.02246  23313749.946    23313760.8304
  22116534.601   -12093059.909 8  -9144702.24746  22116533.170    22116543.5834
 00  4 27  3  7 30.0000000  0  7 17 21 29 23 09 05 15
  23898521.269    -4921106.967 8  -3820337.97045  23898522.589    23898535.9534
  20938489.299   -21367005.728 9 -16633690.40647  20938491.006    20938498.3944
  21097520.797   -19552531.922 9 -15214853.11747  21097521.444    21097528.5284
  20730940.589   -21106460.315 9 -16435061.72148  20730943.658    20730951.9374
  21799232.288   -14124069.036 8 -10990729.80647  21799237.037    21799246.3624
  23301405.239    -6581001.653 8  -5119311.76046  23301405.642    23301416.7604
  22105980.501   -12148480.223 8  -9187886.82146  22105986.594    22105996.9664
 00  4 27  3  8  0.0000000  0  7 17 21 29 23 09 05 15
  23921534.418    -4800124.958 8  -3726066.56745  23921544.615    23921557.9424
  20927563.187   -21424418.615 9 -16678427.68647  20927565.671    20927573.6094
  21090774.154   -19587967.633 9 -15242465.38647  21090778.173    21090785.5584
  20734701.441   -21086704.303 9 -16419667.42548  20734703.199    20734711.3954
  21813833.720   -14047334.327 8 -10930936.55747  21813839.266    21813847.7394
  23289115.691    -6645573.719 8  -5169627.52846  23289117.962    23289128.1604
  22095545.406   -12203347.740 8  -9230640.67246  22095546.860    22095556.3134
 00  4 27  3  8 30.0000000  0  7 17 21 29 23 09 05 15
  23944575.288    -4679074.043 8  -3631741.46745  23944579.731    23944594.4394
  20916688.566   -21481564.280 9 -16722956.76147  20916691.042    20916699.0344
  21084067.021   -19623225.467 9 -15269939.03747  21084068.977    21084076.4284
  20738531.318   -21066571.986 9 -16403979.90048  20738533.999    20738542.3334
  21828512.857   -13970192.659 8 -10870826.19547  21828517.887    21828527.1874
  23276881.362    -6709856.578 8  -5219717.95946  23276885.054    23276896.7204
  22085209.866   -12257660.594 8  -9272962.37046  22085211.448    22085221.8384
 00  4 27  3  9  0.0000000  0  7 17 21 29 23 09 05 15
  23967625.230    -4557935.332 8  -3537347.96545  23967632.379    23967646.1394
  20905868.073   -21538435.561 9 -16767272.02147  20905869.056    20905876.9604
  21077393.496   -19658290.057 9 -15297262.07247  21077396.409    21077404.1674
  20742435.997   -21046058.538 9 -16387995.40048  20742437.727    20742446.4154
  21843268.526   -13892650.419 8 -10810403.71947  21843274.595    21843282.6814
  23264708.728    -6773835.782 8  -5269571.78246  23264711.021    23264722.1454
  22074978.413   -12311416.965 8  -9314850.38946  22074980.809    22074991.7044
 00  4 27  3  9 30.0000000  0  7 17 21 29 23 09 05 15
  23990701.567    -4436683.400 8  -3442866.23245  23990706.567    23990720.3974
  20895095.214   -21595044.717 9 -16811383.01947  20895096.394    20895104.5394
  21070763.749   -19693139.795 9 -15324417.67547  21070765.077    21070772.3094
  20746410.506   -21025168.845 9 -16371717.72148  20746412.634    20746421.3324
  21858104.533   -13814709.659 8 -10749670.68247  21858106.203    21858114.1794
  23252594.470    -6837494.776 8  -5319176.11346  23252596.548    23252607.1414
  22064854.007   -12364614.692 8  -9356303.14846  22064858.001    22064868.3824
 00  4 27  3 10  0.0000000  0  7 17 21 29 23 09 05 15
  24013798.346    -4315307.646 8  -3348288.02145  24013803.178    24013816.7024
  20884372.030   -21651388.153 9 -16855286.96847  20884374.288    20884382.6704
  21064176.522   -19727742.671 9 -15351380.89847  21064180.119    21064187.5784
  20750454.796   -21003906.747 9 -16355149.86247  20750458.450    20750467.2884
  21873012.872   -13736369.808 9 -10688626.70147  21873014.525    21873022.5914
  23240538.263    -6900833.613 8  -5368530.94446  23240543.584    23240554.4564
  22054837.042   -12417251.774 8  -9397319.00746  22054841.513    22054850.7654
 00  4 27  3 10 30.0000000  0  7 17 21 29 23 09 05 15
  24036917.078    -4193820.274 7  -3253622.82245  24036921.616    24036935.9424
  20873704.554   -21707446.592 9 -16898968.84947  20873706.723    20873715.1484
  21057643.046   -19762074.887 9 -15378133.25747  21057646.383    21057654.4104
  20754576.509   -20982263.729 9 -16338285.18147  20754577.315    20754585.4954
  21887997.733   -13657633.067 8 -10627273.43347  21887997.254    21888006.0654
  23228550.811    -6963844.764 8  -5417630.43646  23228552.128    23228563.0924
  22044930.906   -12469326.179 8  -9437896.43846  22044932.893    22044941.3154
 00  4 27  3 11  0.0000000  0  7 17 21 29 23 09 05 15
  24060062.151    -4072237.984 8  -3158883.66945  24060058.423    24060072.5004
  20863090.799   -21763220.389 9 -16942428.93447  20863092.963    20863101.8114
  21051161.877   -19796141.401 9 -15404678.55947  21051163.895    21051171.5804
  20758761.981   -20960256.999 9 -16321137.09247  20758764.995    20758773.3524
  21903055.291   -13578491.935 9 -10565605.07547  21903058.261    21903065.6654
  23216622.877    -7026518.185 8  -5466466.77146  23216626.010    23216637.3354
  22035129.878   -12520836.051 8  -9478033.94046  22035131.453    22035139.7334
 00  4 27  3 11 30.0000000  0  7 17 21 29 23 09 05 15
  24083211.746    -3950586.187 8  -3064090.37045  24083208.738    24083222.8214
  20852532.191   -21818706.874 9 -16985665.13747  20852534.275    20852543.2094
  21044726.765   -19829963.032 9 -15431033.05147  21044728.060    21044735.2824
  20763019.714   -20937890.821 9 -16303708.90848  20763021.660    20763029.5894
  21918191.713   -13498942.331 8 -10503618.40047  21918195.325    21918203.5094
  23204764.427    -7088852.962 8  -5515039.23746  23204764.688    23204774.7554
  22025435.872   -12571779.584 8  -9517730.16746  22025436.724    22025445.7384
 00  4 27  3 12  0.0000000  0  7 17 21 29 23 09 05 15
  24106358.023    -3828898.493 7  -2969269.03845  24106365.097    24106379.0094
  20842031.250   -21873889.189 9 -17028664.33747  20842033.918    20842042.3794
  21038330.684   -19863564.266 9 -15457215.84047  21038333.958    21038341.2554
  20767346.308   -20915155.070 9 -16285992.74648  20767348.139    20767356.1194
  21933407.553   -13418990.927 8 -10441318.66047  21933409.538    21933418.2054
  23192964.465    -7150844.226 8  -5563344.02946  23192968.037    23192979.2974
  22015844.694   -12622155.014 8  -9556983.70946  22015848.863    22015859.4264
 00  4 27  3 12 30.0000000  0  7 17 21 29 23 09 05 15
  24129527.409    -3707180.910 7  -2874424.44945  24129526.951    24129541.0594
  20831589.601   -21928763.480 9 -17071423.50747  20831591.842    20831599.6484
  21031973.918   -19896975.926 9 -15483250.90547  21031976.003    21031983.1424
  20771742.044   -20892052.214 9 -16267990.53748  20771744.097    20771752.6024
  21948695.656   -13338640.636 8 -10378708.09947  21948699.310    21948707.8594
  23181235.500    -7212496.720 8  -5611384.83446  23181235.689    23181246.3184
  22006366.570   -12671960.371 8  -9595793.05846  22006372.054    22006381.4364
 00  4 27  3 13  0.0000000  0  7 17 21 29 23 09 05 15
  24152691.139    -3585429.919 7  -2779553.83445  24152696.260    24152709.9434
  20821205.956   -21983334.741 9 -17113946.55447  20821207.240    20821215.4364
  21025648.801   -19930210.332 9 -15509147.87547  21025651.727    21025658.6814
  20776208.725   -20868579.798 9 -16249700.35448  20776210.900    20776219.0574
  21964063.058   -13257893.910 8 -10315788.61647  21964065.016    21964072.7524
  23169565.508    -7273820.910 8  -5659169.82946  23169565.552    23169576.6304
  21997001.295   -12721193.628 8  -9634156.59146  21997003.633    21997013.0584
 00  4 27  3 13 30.0000000  0  7 17 21 29 23 09 05 15
  24175875.282    -3463648.110 7  -2684659.19545  24175870.456    24175886.7044
  20810880.849   -22037585.036 9 -17156219.49047  20810883.731    20810891.7934
  21019360.535   -19963257.990 9 -15534899.29947  21019362.835    21019369.9154
  20780749.927   -20844715.435 9 -16231104.75747  20780751.974    20780760.0934
  21979503.176   -13176763.420 8 -10252570.09447  21979504.084    21979512.2404
  23157953.841    -7334823.793 8  -5706704.44846  23157957.370    23157967.3354
  21987741.361   -12769853.132 8  -9672073.04146  21987743.498    21987753.8114
 00  4 27  3 14  0.0000000  0  7 17 21 29 23 09 05 15
  24199056.456    -3341814.428 7  -2589724.18845  24199052.939    24199069.5534
  20800617.348   -22091517.630 9 -17198244.88047  20800620.649    20800628.5244
  21013110.128   -19996112.603 9 -15560500.27447  21013110.732    21013118.2064
  20785367.739   -20820447.703 9 -16212194.84547  20785370.049    20785378.0934
  21995006.182   -13095266.502 8 -10189066.05147  21995012.001    21995019.7644
  23146407.570    -7395508.805 8  -5753991.37146  23146409.259    23146420.0224
  21978590.938   -12817937.273 8  -9709541.17346  21978593.935    21978603.3734
 00  4 27  3 14 30.0000000  0  7 17 21 29 23 09 05 15
  24222243.969    -3219911.627 7  -2494735.31344  24222251.120    24222264.3874
  20790414.386   -22145139.635 9 -17240028.24047  20790416.772    20790424.8604
  21006896.648   -20028750.557 9 -15585932.41747  21006899.583    21006907.1084
  20790060.100   -20795775.848 9 -16192970.03647  20790064.949    20790073.2094
  22010585.032   -13013411.980 8 -10125283.32647  22010588.659    22010596.9064
  23134921.952    -7455875.525 8  -5801030.27946  23134921.656    23134932.8544
  21969552.867   -12865444.272 8  -9746559.59047  21969554.171    21969562.4474
 00  4 27  3 15  0.0000000  0  7 17 21 29 23 09 05 15
  24245453.391    -3097948.896 7  -2399699.68444  24245461.047    24245475.1174
  20780271.506   -22198446.452 9 -17281566.00147  20780272.568    20780280.8434
  21000728.806   -20061153.850 9 -15611181.73647  21000733.665    21000741.2284
  20794837.771   -20770692.913 9 -16173424.89847  20794837.814    20794846.3454
  22026227.602   -12931211.430 8 -10061231.01847  22026230.552    22026239.7954
  23123493.528    -7515903.906 8  -5847805.53646  23123498.641    23123509.5134
  21960621.283   -12912372.197 8  -9783126.76146  21960623.962    21960632.5464
 00  4 27  3 15 30.0000000  0  7 17 21 29 23 09 05 15
  24268675.033    -2975926.515 7  -2304617.63644  24268679.842    24268698.4454
  20770184.331   -22251444.949 9 -17322863.51647  20770187.226    20770195.5944
  20994610.145   -20093322.895 9 -15636248.51547  20994612.063    20994619.7974
  20799684.706   -20745204.838 9 -16153564.08047  20799688.147    20799696.7344
  22041937.866   -12848660.194 8  -9996905.42347  22041940.225    22041948.8754
  23112139.672    -7575577.474 8  -5894304.33146  23112142.778    23112154.1414
  21951801.216   -12958719.583 8  -9819241.55046  21951803.731    21951812.4724
 00  4 27  3 16  0.0000000  0  7 17 21 29 23 09 05 15
  24291903.511    -2853852.226 7  -2209495.14344  24291909.636    24291927.5824
  20760157.695   -22304143.698 9 -17363927.48347  20760159.211    20760167.1804
  20988533.325   -20125256.063 9 -15661131.50347  20988535.497    20988543.0874
  20804609.227   -20719334.349 9 -16133405.27647  20804611.248    20804619.5584
  22057713.971   -12765747.376 8  -9932298.08447  22057717.228    22057726.7164
  23100855.627    -7634890.986 8  -5940522.54946  23100856.339    23100866.4024
  21943091.826   -13004484.409 8  -9854902.46446  21943094.294    21943104.0734
 00  4 27  3 16 30.0000000  0  8 17 21 30 29 23 09 05 15
  24315137.884    -2731752.742 7  -2114352.99344  24315144.597    24315162.4724
  20750191.074   -22356519.632 9 -17404739.90847  20750192.147    20750200.2564
  24290634.326     -102351.56717
  20982501.637   -20156954.111 9 -15685831.26547  20982503.599    20982510.9854
  20809602.899   -20693089.637 9 -16112954.87047  20809605.579    20809613.6074
  22073564.384   -12682461.176 8  -9867399.79847  22073566.037    22073575.1084
  23089634.148    -7693839.013 8  -5986456.01846  23089638.039    23089648.1004
  21934493.480   -13049665.223 8  -9890108.27146  21934497.153    21934505.8364
 00  4 27  3 17  0.0000000  0  8 17 21 30 29 23 09 05 15
  24338380.161    -2609640.553 7  -2019200.99945  24338384.189    24338398.8814
  20740284.626   -22408568.358 9 -17445297.35947  20740287.693    20740295.2254
  24272672.477     -196744.332 7   -137957.73955  24272673.842    24272688.9644
  20976510.508   -20188433.828 9 -15710360.95547  20976512.900    20976520.3244
  20814668.169   -20666478.265 9 -16092218.75047  20814669.677    20814677.7704
  22089488.168   -12598791.650 8  -9802202.80547  22089488.384    22089496.7414
  23078488.974    -7752416.132 8  -6032100.44546  23078491.481    23078501.4424
  21926010.159   -13094260.412 8  -9924857.71546  21926011.196    21926019.8694
 00  4 27  3 17 30.0000000  0  9 17 21 30 29 23 09 05 15 25
  24361628.147    -2487525.101 7  -1924046.42745  24361623.326    24361638.3824
  20730443.389   -22460288.884 9 -17485599.07847  20730445.766    20730453.2474
  24254719.210     -291124.693 8   -211500.59845  24254718.318    24254729.2074
  20970561.157   -20219704.030 9 -15734727.33447  20970562.634    20970570.0004
  20819800.215   -20639510.438 9 -16071204.87747  20819801.311    20819809.6424
  22105478.203   -12514730.818 8  -9736700.90047  22105484.949    22105493.7454
  23067414.163    -7810620.367 8  -6077454.31146  23067415.740    23067426.1274
  21917634.298   -13138268.306 8  -9959149.53347  21917637.248    21917645.8044
  24727641.840    -3114984.10017  -2403027.02255  24727643.471    24727654.4514
 00  4 27  3 18  0.0000000  0  9 17 21 30 29 23 09 05 15 25
  24384857.845    -2365407.218 7  -1828889.98844  24384861.934    24384876.9424
  20720665.741   -22511660.709 9 -17525629.06347  20720670.041    20720677.8964
  24236750.426     -385493.522 7   -285034.56745  24236758.793    24236771.2694
  20964650.845   -20250760.165 9 -15758926.91547  20964653.161    20964660.5244
  20824998.647   -20612184.490 9 -16049911.95047  20825001.253    20825009.6254
  22121550.089   -12430294.477 8  -9670906.39747  22121552.717    22121561.6024
  23056409.232    -7868448.766 8  -6122515.30646  23056410.685    23056422.5724
  21909371.435   -13181687.239 8  -9992982.43847  21909374.255    21909383.7474
  24707820.147    -3219141.850 8  -2484188.80245  24707824.261    24707834.3394
 00  4 27  3 18 30.0000000  0  9 17 21 30 29 23 09 05 15 25
  24408105.701    -2243274.450 7  -1733721.90944  24408101.705    24408116.3634
  20710956.378   -22562687.102 9 -17565389.88347  20710959.905    20710967.6344
  24218799.919     -479837.438 8   -358549.10845  24218805.852    24218816.4244
  20958779.640   -20281613.907 9 -15782968.80047  20958781.788    20958789.3294
  20830271.381   -20584481.104 9 -16028324.92047  20830273.290    20830281.3234
  22137684.655   -12345503.927 8  -9604835.88547  22137687.518    22137695.7474
  23045478.397    -7925884.679 8  -6167270.47946  23045481.984    23045492.3534
  21901223.597   -13224515.729 8 -10026355.26147  21901223.909    21901233.1514
  24688021.807    -3323203.382 7  -2565275.56045  24688020.094    24688032.0564
 00  4 27  3 19  0.0000000  0  8 21 30 29 23 09 05 15 25
  20701309.428   -22613390.964 9 -17604899.38347  20701311.256    20701319.2064
  24200848.804     -574141.390 8   -432032.53645  24200860.501    24200872.6234
  20952944.236   -20312268.442 9 -15806855.43147  20952948.001    20952955.9764
  20835617.465   -20556393.746 9 -16006438.68547  20835618.335    20835626.2854
  22153886.652   -12260360.156 8  -9538490.13647  22153890.052    22153898.9404
  23034632.308    -7982920.451 8  -6211713.85546  23034627.998    23034638.5944
  21893184.219   -13266752.026 8 -10059266.61647  21893187.409    21893196.0414
  24668242.573    -3427159.365 7  -2646280.01045  24668237.774    24668249.8364
 00  4 27  3 19 30.0000000  0  8 21 30 29 23 09 05 15 25
  20691723.245   -22663762.073 9 -17644149.59147  20691725.737    20691734.0284
  24182924.581     -668402.289 8   -505482.47645  24182922.715    24182933.6184
  20947152.040   -20342712.202 9 -15830577.81147  20947154.986    20947162.6214
  20841034.765   -20527909.159 9 -15984242.93047  20841038.709    20841046.7684
  22170156.560   -12174869.768 8  -9471874.32647  22170158.722    22170167.4054
  23023848.524    -8039553.853 8  -6255843.69446  23023850.736    23023861.3964
  21885262.888   -13308394.519 8 -10091715.27447  21885262.425    21885272.6074
  24648464.609    -3531006.430 7  -2727199.66945  24648473.982    24648486.5534
 00  4 27  3 20  0.0000000  0  8 21 30 29 23 09 05 15 25
  20682201.599   -22713798.641 9 -17683139.12048  20682204.095    20682212.8254
  24164989.089     -762614.561 8   -578894.49245  24164995.421    24165005.4364
  20941399.508   -20372942.161 9 -15854133.57247  20941402.229    20941409.8184
  20846534.825   -20499011.817 9 -15961725.54447  20846537.771    20846545.8884
  22186491.000   -12089034.786 8  -9404989.97147  22186492.390    22186501.0124
  23013144.438    -8095791.838 8  -6299665.41946  23013148.586    23013158.1994
  21877450.654   -13349441.932 8 -10123700.23047  21877451.501    21877460.7354
  24628723.981    -3634754.612 7  -2808042.27445  24628730.949    24628746.3614
 00  4 27  3 20 30.0000000  0  8 21 30 29 23 09 05 15 25
  20672741.698   -22763511.069 9 -17721876.06548  20672744.115    20672752.7464
  24147075.501     -856762.317 8   -652256.20445  24147078.289    24147091.1174
  20935686.642   -20402961.745 9 -15877525.43447  20935689.821    20935696.7564
  20852114.502   -20469696.874 9 -15938882.75547  20852116.084    20852124.2614
  22202893.460   -12002841.911 8  -9337826.72747  22202894.625    22202902.7454
  23002518.597    -8151630.014 8  -6343175.60546  23002523.649    23002533.3284
  21869751.305   -13389892.845 8 -10155220.39847  21869753.436    21869763.4544
  24609016.181    -3738402.473 7  -2888806.70645  24609008.058    24609021.3254
 00  4 27  3 21  0.0000000  0  8 21 30 29 23 09 05 15 25
  20663345.922   -22812893.739 9 -17760356.06048  20663347.474    20663355.3564
  24129177.481     -950830.748 8   -725556.10245  24129177.784    24129190.3384
  20930018.890   -20432752.115 9 -15900738.69247  20930020.974    20930028.1614
  20857771.415   -20439973.956 9 -15915722.06947  20857772.043    20857780.5194
  22219361.507   -11916275.081 8  -9270372.10446  22219367.124    22219375.7154
  22991970.927    -8207075.324 8  -6386379.66146  22991972.233    22991983.1444
  21862169.713   -13429745.511 8 -10186274.35946  21862170.255    21862179.1434
  24589298.279    -3841958.198 7  -2969499.30745  24589303.237    24589316.0584
 00  4 27  3 21 30.0000000  0  8 21 30 29 23 09 05 15 25
  20654010.051   -22861943.644 9 -17798576.75348  20654013.379    20654021.4424
  24111291.795    -1044820.958 8   -798795.06345  24111291.468    24111303.6744
  20924394.878   -20462304.275 9 -15923766.36147  20924397.048    20924404.7134
  20863501.707   -20409855.587 9 -15892253.22847  20863503.497    20863512.1284
  22235910.182   -11829339.532 8  -9202630.16546  22235911.503    22235918.4764
  22981495.877    -8262132.014 8  -6429280.87646  22981495.528    22981506.1354
  21854697.095   -13468998.784 8 -10216861.26846  21854699.815    21854709.5584
  24569617.230    -3945430.979 7  -3050127.30845  24569612.781    24569625.8154
 00  4 27  3 22  0.0000000  0  8 21 30 29 23 09 05 15 25
  20644739.285   -22910674.922 9 -17836549.16948  20644739.934    20644748.2464
  24093418.470    -1138735.920 8   -871975.40745  24093420.558    24093433.4844
  20918814.518   -20491635.668 9 -15946621.96647  20918815.662    20918822.8104
  20869307.573   -20379345.723 9 -15868479.33347  20869309.526    20869317.7524
  22252517.305   -11742051.368 8  -9134613.43746  22252521.497    22252529.6774
  22971087.034    -8316809.724 8  -6471886.79246  22971090.624    22971100.7784
  21847343.611   -13507651.039 8 -10246979.84847  21847345.077    21847354.4714
  24549940.952    -4048818.595 8  -3130688.89645  24549938.667    24549952.2014
 00  4 27  3 22 30.0000000  0  8 21 30 29 23 09 05 15 25
  20635525.151   -22959096.445 9 -17874280.22048  20635525.263    20635533.9184
  24075560.603    -1232573.286 8   -945095.25045  24075563.696    24075575.3284
  20913271.394   -20520752.234 9 -15969310.21447  20913274.780    20913282.1864
  20875185.980   -20348449.536 9 -15844404.39047  20875188.596    20875197.0034
  22269194.225   -11654418.643 8  -9066328.22946  22269196.671    22269205.7924
  22960758.857    -8371108.271 8  -6514197.25846  22960758.148    22960768.5614
  21840102.407   -13545700.796 8 -10276628.93247  21840104.384    21840113.5584
  24530285.853    -4152101.824 8  -3211169.19145  24530285.045    24530297.6064
 00  4 27  3 23  0.0000000  0  8 21 30 29 23 09 05 15 25
  20626370.209   -23007198.666 9 -17911762.45148  20626372.025    20626380.0724
  24057716.135    -1326355.816 8  -1018172.36845  24057717.340    24057729.8634
  20907773.205   -20549657.749 9 -15991833.98747  20907774.661    20907781.8254
  20881138.911   -20317169.245 9 -15820030.14447  20881141.047    20881149.5774
  22285934.338   -11566456.619 8  -8997786.45046  22285935.867    22285944.5564
  22950491.933    -8425050.725 8  -6556230.25446  22950493.078    22950503.4124
  21832973.599   -13583146.791 8 -10305807.57847  21832977.433    21832987.9494
  24510653.888    -4255269.849 8  -3291559.75245  24510653.101    24510664.3384
 00  4 27  3 23 30.0000000  0  8 21 30 29 23 09 05 15 25
  20617277.408   -23054975.115 9 -17948990.83848  20617280.174    20617288.8234
  24039863.933    -1420105.824 8  -1091224.16045  24039877.204    24039889.6134
  20902307.822   -20578369.907 9 -16014207.09447  20902311.138    20902318.5094
  20887168.802   -20285491.721 9 -15795346.38347  20887169.355    20887177.4514
  22302729.401   -11478190.997 8  -8929008.07246  22302732.441    22302741.1124
  22940295.535    -8478647.297 8  -6597993.74146  22940293.283    22940303.0594
  21825966.415   -13619987.768 8 -10334514.81547  21825967.907    21825978.0814
  24491046.679    -4358300.318 8  -3371843.09345  24491046.635    24491059.0724
 00  4 27  3 24  0.0000000  0  8 21 30 29 23 09 05 15 25
  20608252.067   -23102407.065 9 -17985950.76948  20608254.385    20608262.9144
  24022044.098    -1513829.962 8  -1164255.80245  24022043.055    24022054.3814
  20896881.389   -20606896.630 9 -16036435.80947  20896882.294    20896889.8204
  20893274.775   -20253402.258 9 -15770341.62247  20893275.713    20893284.0914
  22319583.222   -11389625.826 8  -8859996.28846  22319585.238    22319593.7184
  22930155.873    -8531893.982 8  -6639484.58246  22930160.109    22930170.8824
  21819069.158   -13656222.595 8 -10362749.70447  21819071.690    21819082.1494
  24471465.348    -4461182.139 8  -3452010.60445  24471469.115    24471480.6114
 00  4 27  3 24 30.0000000  0  8 21 30 29 23 09 05 15 25
  20599296.718   -23149476.044 9 -18022627.86948  20599297.832    20599306.0644
  24004211.818    -1607527.700 8  -1237266.87745  24004212.550    24004223.1264
  20891488.865   -20635223.992 9 -16058509.08847  20891491.271    20891499.4024
  20899457.037   -20220904.363 9 -15745018.61047  20899459.933    20899468.1344
  22336493.458   -11300745.682 8  -8790739.04446  22336498.638    22336508.0484
  22920091.578    -8584781.293 8  -6680695.39546  22920096.777    22920107.5104
  21812293.009   -13691849.702 8 -10390511.06547  21812292.631    21812301.9614
  24451917.046    -4563921.372 7  -3532066.99845  24451917.861    24451929.8194
 00  4 27  3 25  0.0000000  0  8 21 30 29 23 09 05 15 25
  20590409.713   -23196172.093 9 -18059014.37748  20590412.054    20590419.9084
  23986385.297    -1701195.126 8  -1310254.33045  23986387.056    23986399.3934
  20886138.044   -20663337.301 9 -16080415.56747  20886141.675    20886150.0354
  20905721.724   -20187998.938 9 -15719378.03047  20905721.609    20905730.3074
  22353469.689   -11211560.307 8  -8721243.99146  22353469.828    22353479.2474
  22910099.981    -8637297.192 8  -6721616.78846  22910103.284    22910113.4444
  21805625.603   -13726867.818 8 -10417797.91147  21805629.240    21805638.1054
  24432390.856    -4666529.416 7  -3612021.19945  24432391.638    24432404.6304
 00  4 27  3 25 30.0000000  0  8 21 30 29 23 09 05 15 25
  20581593.045   -23242497.703 9 -18095112.24548  20581596.453    20581604.4514
  23968570.284    -1794809.519 8  -1383200.45445  23968572.285    23968584.7844
  20880829.119   -20691239.832 9 -16102157.78647  20880832.387    20880840.2324
  20912057.926   -20154678.320 9 -15693413.93947  20912061.820    20912070.8024
  22370494.735   -11122069.930 8  -8651511.24646  22370499.958    22370507.5724
  22900186.418    -8689402.476 8  -6762218.23546  22900187.578    22900198.5044
  21799081.252   -13761275.557 8 -10444609.11147  21799081.404    21799091.0834
  24412887.785    -4769009.902 8  -3691875.93845  24412889.316    24412903.4804
 00  4 27  3 26  0.0000000  0  8 21 30 29 23 09 05 15 25
  20572848.914   -23288455.940 9 -18130923.83748  20572850.790    20572859.0664
  23950764.803    -1888350.988 8  -1456089.75846  23950772.691    23950784.4654
  20875561.476   -20718930.131 9 -16123734.64347  20875563.346    20875570.3734
  20918475.899   -20120957.416 9 -15667137.94147  20918478.818    20918487.4654
  22387587.722   -11032259.094 8  -8581528.79646  22387590.303    22387599.4914
  22890356.279    -8741074.457 8  -6802482.04746  22890355.527    22890365.7724
  21792649.635   -13795072.015 8 -10470943.96647  21792651.157    21792659.4104
  24393396.894    -4871371.419 7  -3771638.07545  24393411.073    24393422.2354
 00  4 27  3 26 30.0000000  0  8 21 30 29 23 09 05 15 25
  20564171.445   -23334059.100 9 -18166458.74448  20564172.766    20564180.6474
  23932988.751    -1981804.742 8  -1528910.68846  23932988.868    23933000.9464
  20870331.946   -20746406.532 9 -16145144.80247  20870334.461    20870341.7194
  20924967.027   -20086840.935 9 -15640553.69347  20924971.156    20924979.8954
  22404737.835   -10942144.795 8  -8511309.88946  22404738.259    22404746.9724
  22880603.986    -8792305.729 8  -6842402.45246  22880606.166    22880616.5674
  21786328.388   -13828255.789 8 -10496801.45147  21786335.214    21786344.3184
  24373956.535    -4973608.553 8  -3851303.25145  24373956.785    24373968.5314
 00  4 27  3 27  0.0000000  0  8 21 30 29 23 09 05 15 25
  20555560.007   -23379308.917 9 -18201718.32648  20555561.896    20555569.6974
  23915225.969    -2075159.325 8  -1601654.38446  23915223.418    23915236.2684
  20865143.130   -20773669.348 9 -16166388.52347  20865146.594    20865153.6684
  20931536.250   -20052325.217 9 -15613658.35147  20931539.470    20931548.2494
  22421939.923   -10851736.967 8  -8440862.26746  22421942.825    22421952.3544
  22870943.289    -8843082.110 8  -6881968.39646  22870944.300    22870953.6204
  21780133.497   -13860825.786 8 -10522180.63447  21780137.250    21780146.9674
  24354521.896    -5075710.195 7  -3930862.83645  24354526.568    24354539.2424
 00  4 27  3 27 30.0000000  0  8 21 30 29 23 09 05 15 25
  20547019.874   -23424187.697 9 -18236688.78248  20547021.570    20547029.6434
  23897479.466    -2168411.490 8  -1674318.24446  23897477.764    23897490.4484
  20859994.423   -20800727.875 9 -16187473.05247  20859997.480    20860004.8194
  20938180.511   -20017419.229 9 -15586458.90247  20938182.103    20938190.6704
  22439197.177   -10761023.982 8  -8370176.85746  22439203.479    22439213.4474
  22861362.948    -8893407.344 8  -6921182.79146  22861366.582    22861376.5924
  21774053.258   -13892780.927 8 -10547080.70947  21774056.593    21774065.8774
  24335114.601    -5177684.685 7  -4010323.35045  24335120.650    24335134.0234
 00  4 27  3 28  0.0000000  0  8 21 30 29 23 09 05 15 25
  20538550.097   -23468689.671 9 -18271365.62448  20538552.795    20538561.2504
  23879746.267    -2261563.902 8  -1746904.39046  23879752.534    23879763.6994
  20854887.978   -20827566.386 9 -16208386.13947  20854890.185    20854897.4974
  20944893.937   -19982139.063 9 -15558967.88647  20944895.451    20944904.0294
  22456518.304   -10670002.210 8  -8299250.85346  22456524.852    22456534.6924
  22851870.339    -8943300.446 8  -6960060.46946  22851871.513    22851882.2454
  21768088.809   -13924120.193 8 -10571500.88347  21768092.947    21768101.8584
  24315740.510    -5279552.056 8  -4089700.34745  24315736.865    24315749.6734
 00  4 27  3 28 30.0000000  0  8 21 30 29 23 09 05 15 25
  20530157.073   -23512803.022 9 -18305739.64848  20530158.736    20530166.5984
  23862040.647    -2354610.854 8  -1819408.35746  23862045.614    23862057.8634
  20849825.264   -20854175.295 9 -16229120.33647  20849826.661    20849834.0014
  20951678.597   -19946478.056 9 -15531180.11947  20951681.543    20951690.0824
  22473906.139   -10578675.523 8  -8228087.24746  22473903.382    22473913.2614
  22842459.162    -8992768.785 8  -6998607.15546  22842459.112    22842468.7394
  21762245.400   -13954842.446 8 -10595440.25447  21762246.908    21762256.0514
  24296370.173    -5381315.664 8  -4168996.49045  24296372.567    24296384.7554
 00  4 27  3 29  0.0000000  0  8 21 30 29 23 09 05 15 25
  20521839.294   -23556517.404 9 -18339802.78648  20521840.367    20521848.1064
  23844357.904    -2447549.774 8  -1891828.13146  23844359.312    23844372.1724
  20844803.195   -20880556.919 9 -16249677.42247  20844806.260    20844813.6364
  20958536.078   -19910444.505 9 -15503102.05047  20958538.270    20958546.8314
  22491341.269   -10487022.896 8  -8156669.64046  22491345.346    22491354.0304
  22833125.139    -9041812.370 8  -7036822.88546  22833126.240    22833137.1044
  21756518.381   -13984946.322 8 -10618897.77347  21756518.895    21756526.8394
  24277023.116    -5482989.215 8  -4248222.50545  24277024.170    24277036.4674
 00  4 27  3 29 30.0000000  0  8 21 30 29 23 09 05 15 25
  20513593.052   -23599833.698 9 -18373555.72748  20513597.325    20513604.7924
  23826691.480    -2540393.699 8  -1964173.87946  23826691.926    23826703.5814
  20839825.651   -20906714.862 9 -16270060.20848  20839828.851    20839836.0424
  20965464.567   -19874037.913 9 -15474733.31747  20965466.303    20965474.7704
  22508845.265   -10395043.788 8  -8084997.63946  22508847.740    22508858.0014
  22823871.125    -9090433.626 8  -7074709.50146  22823873.866    22823884.2994
  21750905.928   -14014431.084 8 -10641872.87147  21750907.811    21750915.8304
  24257694.607    -5584572.221 8  -4327377.98445  24257694.010    24257704.4594
 00  4 27  3 30  0.0000000  0  8 21 30 29 23 09 05 15 25
  20505423.348   -23642776.231 9 -18407017.42748  20505425.702    20505433.6494
  23809045.637    -2633142.860 8  -2036445.80846  23809042.216    23809054.4634
  20834889.673   -20932653.671 9 -16290272.23648  20834892.806    20834900.1114
  20972466.214   -19837238.486 9 -15446058.47547  20972469.282    20972477.3884
  22526406.433   -10302752.750 8  -8013082.59046  22526410.241    22526419.0984
  22814696.583    -9138632.213 8  -7112266.76846  22814702.232    22814712.7684
  21745411.257   -14043295.587 8 -10664364.63547  21745414.484    21745422.7684
  24238379.462    -5686039.250 8  -4406443.11145  24238384.922    24238396.4514
 00  4 27  3 30 30.0000000  0  8 21 30 29 23 09 05 15 25
  20497322.817   -23685346.774 9 -18440189.27048  20497325.218    20497332.9444
  23791406.859    -2725794.910 8  -2108642.05846  23791411.476    23791423.9674
  20829993.286   -20958387.957 9 -16310324.87448  20829995.539    20830002.7804
  20979547.338   -19800034.665 9 -15417068.50547  20979548.992    20979556.9924
  22544023.758   -10210162.856 8  -7940934.65546  22544029.472    22544039.8234
  22805605.417    -9186405.285 8  -7149492.46246  22805610.525    22805620.3324
  21740036.668   -14071539.015 8 -10686372.49547  21740040.124    21740048.2364
  24219104.535    -5787363.908 8  -4485397.25845  24219101.993    24219115.1794
 00  4 27  3 31  0.0000000  0  8 21 30 29 23 09 05 15 25
  20489291.798   -23727548.433 9 -18473073.66548  20489293.772    20489302.0674
  23773788.218    -2818358.555 8  -2180769.41746  23773796.205    23773807.7534
  20825135.121   -20983913.808 9 -16330215.10348  20825138.138    20825145.7964
  20986705.779   -19762419.577 9 -15387758.06647  20986706.440    20986715.2694
  22561701.150   -10117283.885 8  -7868561.49046  22561704.065    22561713.3254
  22796604.098    -9233743.130 8  -7186379.00046  22796602.546    22796612.5554
  21734783.587   -14099160.121 8 -10707895.41447  21734784.297    21734792.8464
  24199844.685    -5888538.925 8  -4564234.73645  24199849.061    24199861.5574
 00  4 27  3 31 30.0000000  0  8 21 30 29 23 09 05 15 25
  20481330.807   -23769379.205 9 -18505669.05248  20481333.547    20481341.7974
  23756194.985    -2910827.968 8  -2252823.36845  23756199.600    23756211.0734
  20820318.786   -21009223.264 9 -16349936.72848  20820321.523    20820329.3474
  20993946.217   -19724372.655 9 -15358111.14747  20993946.683    20993955.3884
  22579424.098   -10024137.591 8  -7795980.00446  22579429.152    22579438.2354
  22787676.046    -9280651.074 8  -7222930.58846  22787676.152    22787686.1914
  21729646.112   -14126157.852 8 -10728932.58047  21729646.512    21729655.2744
  24180625.469    -5989553.120 8  -4642946.95445  24180627.131    24180639.4094
 00  4 27  3 32  0.0000000  0  8 21 30 29 23 09 05 15 25
  20473442.678   -23810831.232 9 -18537969.33548  20473445.862    20473453.9844
  23738625.849    -3003182.992 8  -2324788.18246  23738625.008    23738636.6924
  20815546.406   -21034316.960 9 -16369490.19948  20815547.120    20815554.2434
  21001266.020   -19685896.408 9 -15328129.68747  21001268.596    21001277.4094
  22597199.208    -9930742.795 8  -7723204.87046  22597201.988    22597211.5214
  22778825.346    -9327141.261 8  -7259156.63046  22778828.560    22778838.8094
  21724622.419   -14152531.506 8 -10749483.45647  21724627.440    21724636.4184
  24161432.193    -6090395.059 8  -4721524.93545  24161437.109    24161450.1534
 00  4 27  3 32 30.0000000  0  8 21 30 29 23 09 05 15 25
  20465631.944   -23851889.214 9 -18569962.56648  20465632.566    20465640.7294
  23721071.089    -3095422.353 8  -2396662.87446  23721072.921    23721084.6544
  20810812.786   -21059182.909 9 -16388866.29148  20810815.090    20810822.8384
  21008667.746   -19647007.913 9 -15297826.98947  21008668.976    21008677.3714
  22615014.748    -9837103.989 8  -7650239.60946  22615020.924    22615029.5194
  22770058.754    -9373197.742 8  -7295044.73046  22770064.882    22770075.7444
  21719725.083   -14178280.352 8 -10769547.48547  21719728.467    21719736.6614
  24142283.493    -6191068.173 8  -4799971.37345  24142280.426    24142292.4274
 00  4 27  3 33  0.0000000  0  8 21 30 29 23 09 05 15 25
  20457892.548   -23892550.701 9 -18601646.83548  20457894.855    20457903.0184
  23703542.113    -3187537.993 8  -2468441.15646  23703544.273    23703555.1204
  20806125.425   -21083822.128 9 -16408065.69848  20806126.332    20806133.8754
  21016144.778   -19607714.778 9 -15267208.99347  21016146.166    21016154.5454
  22632882.385    -9743218.605 8  -7577082.18346  22632886.552    22632895.3964
  22761381.133    -9418815.235 8  -7330590.75446  22761384.392    22761394.9754
  21714946.628   -14203403.477 8 -10789123.92747  21714948.141    21714955.4824
  24123155.977    -6291573.448 8  -4878287.08245  24123154.717    24123166.5844
 00  4 27  3 33 30.0000000  0  8 21 30 29 23 09 05 15 25
  20450229.572   -23932819.019 9 -18633024.75348  20450232.407    20450240.4074
  23686038.575    -3279517.822 8  -2540113.59546  23686040.723    23686052.5334
  20801475.386   -21108257.938 9 -16427106.57848  20801476.831    20801483.7744
  21023695.006   -19568031.497 9 -15236286.99247  21023697.590    21023705.7874
  22650797.867    -9649086.623 8  -7503732.66246  22650799.468    22650809.0034
  22752779.439    -9464001.943 8  -7365801.11246  22752785.454    22752796.4844
  21710285.745   -14227899.814 9 -10808211.95647  21710286.353    21710294.7724
  24104063.568    -6391897.476 7  -4956461.51945  24104062.831    24104075.4134
 00  4 27  3 34  0.0000000  0  8 21 30 29 23 09 05 15 25
  20442639.401   -23972704.229 9 -18664104.13748  20442642.372    20442651.0094
  23668559.990    -3371358.132 8  -2611677.27446  23668563.205    23668575.4004
  20796861.550   -21132500.990 9 -16445997.31348  20796863.279    20796870.5454
  21031315.423   -19527985.636 9 -15205082.45347  21031318.350    21031326.3624
  22668762.017    -9554700.486 8  -7430185.06146  22668760.634    22668769.8674
  22744268.145    -9508743.573 8  -7400664.64946  22744272.227    22744281.7764
  21705741.637   -14251768.933 8 -10826811.29247  21705743.652    21705752.1914
  24085004.081    -6492037.188 7  -5034492.34545  24085005.578    24085018.3744
 00  4 27  3 34 30.0000000  0  8 21 30 29 23 09 05 15 25
  20435122.835   -24012215.576 9 -18694892.20148  20435123.597    20435132.1134
  23651110.075    -3463054.788 8  -2683129.07446  23651114.715    23651126.3574
  20792282.868   -21156557.225 9 -16464742.41848  20792284.985    20792292.6434
  21039006.479   -19487574.955 9 -15173593.63247  21039008.433    21039016.3084
  22686773.477    -9460038.430 8  -7356422.47846  22686774.601    22686784.0714
  22735844.606    -9553016.644 8  -7435163.06746  22735846.659    22735856.6114
  21701316.455   -14275009.963 8 -10844921.21747  21701320.056    21701329.2644
  24065978.678    -6592004.741 7  -5112388.97645  24065982.918    24065995.3424
 00  4 27  3 35  0.0000000  0  8 21 30 29 23 09 05 15 25
  20427674.890   -24051348.671 9 -18725385.53248  20427677.072    20427685.2024
  23633688.537    -3554599.022 8  -2754462.09046  23633693.199    23633705.7064
  20787738.219   -21180440.371 9 -16483352.68248  20787740.304    20787747.8794
  21046768.655   -19446783.829 9 -15141808.36847  21046770.626    21046778.4214
  22704841.570    -9365085.875 8  -7282433.53146  22704843.953    22704852.0204
  22727505.225    -9596837.896 8  -7469309.43546  22727507.811    22727518.3774
  21697014.717   -14297622.148 8 -10862541.09647  21697017.597    21697026.3684
  24046988.442    -6691810.204 8  -5190159.29046  24046991.715    24047003.9964
 00  4 27  3 35 30.0000000  0  8 21 30 29 23 09 05 15 25
  20420299.358   -24090100.038 9 -18755581.39648  20420302.391    20420310.9754
  23616300.017    -3645991.263 8  -2825676.67046  23616302.152    23616313.9794
  20783227.868   -21204138.718 9 -16501818.93648  20783230.655    20783238.0744
  21054603.139   -19405607.861 9 -15109723.22847  21054606.245    21054614.1564
  22722959.350    -9269852.783 8  -7208225.94446  22722965.554    22722974.5564
  22719253.672    -9640201.500 8  -7503099.19046  22719256.773    22719265.6194
  21692833.118   -14319604.673 8 -10879670.34647  21692834.976    21692843.7884
  24028028.559    -6791466.071 8  -5267813.05646  24028027.372    24028039.7144
 00  4 27  3 36  0.0000000  0  8 21 30 29 23 09 05 15 25
  20413001.730   -24128458.530 9 -18785471.12848  20413003.155    20413011.5434
  23598936.346    -3737240.837 8  -2896780.07146  23598938.563    23598949.4034
  20778757.805   -21227633.831 9 -16520126.80348  20778759.811    20778767.5954
  21062517.129   -19364035.731 9 -15077329.38347  21062516.923    21062525.4094
  22741139.167    -9174334.991 8  -7133796.55146  22741142.303    22741151.1274
  22711094.508    -9683095.170 8  -7536522.76046  22711093.782    22711104.2774
  21688768.055   -14340956.804 8 -10896308.37347  21688771.275    21688780.8284
  24009081.688    -6890995.559 8  -5345368.34346  24009087.627    24009100.2744
 00  4 27  3 36 30.0000000  0  8 21 30 29 23 09 05 15 25
  20405778.020   -24166411.889 9 -18815045.17648  20405781.059    20405789.1854
  23581599.715    -3828353.592 8  -2967776.87846  23581600.037    23581610.9954
  20774326.198   -21250919.563 9 -16538271.50548  20774329.004    20774336.0284
  21070503.569   -19322053.620 9 -15044616.07947  21070505.627    21070514.3594
  22759369.756    -9078534.428 8  -7059146.79946  22759372.109    22759380.8144
  22703012.754    -9725527.002 8  -7569586.45446  22703019.293    22703027.8424
  21684827.670   -14361678.047 8 -10912454.77747  21684829.257    21684836.8884
  23990167.368    -6990405.818 8  -5422830.76446  23990169.967    23990181.6374
 00  4 27  3 37  0.0000000  0  8 21 30 29 23 09 05 15 25
  20398634.573   -24203952.856 9 -18844297.88248  20398637.049    20398645.2964
  23564287.973    -3919332.510 8  -3038669.37946  23564286.865    23564298.7654
  20769935.586   -21273987.600 9 -16556246.58648  20769939.015    20769946.1174
  21078568.569   -19279663.694 9 -15011585.00847  21078572.453    21078580.8234
  22777653.378    -8982467.523 8  -6984289.53846  22777653.443    22777662.8434
  22695029.471    -9767512.852 8  -7602302.63546  22695029.308    22695039.0734
  21681005.864   -14381767.603 8 -10928108.98247  21681005.875    21681013.2974
  23971271.605    -7089693.270 8  -5500197.48145  23971275.476    23971286.6844
 00  4 27  3 37 30.0000000  0  8 21 30 29 23 09 05 15 25
  20391567.444   -24241092.703 9 -18873238.02148  20391569.586    20391577.9964
  23546991.945    -4010186.603 8  -3109464.59646  23546997.220    23547009.0384
  20765587.492   -21296834.333 9 -16574049.20348  20765591.357    20765598.3914
  21086715.383   -19236869.429 9 -14978238.85447  21086716.210    21086724.6434
  22795981.646    -8886141.118 8  -6909230.08246  22795983.596    22795992.3214
  22687122.081    -9809040.271 8  -7634661.60146  22687126.264    22687137.1384
  21677299.550   -14401224.816 8 -10943270.44147  21677302.659    21677311.4224
  23952411.121    -7188849.020 8  -5577461.54845  23952407.243    23952417.8934
 00  4 27  3 38  0.0000000  0  8 21 30 29 23 09 05 15 25
  20384576.542   -24277829.271 9 -18901863.90848  20384578.563    20384587.0384
  23529731.448    -4100913.877 8  -3180161.02746  23529732.859    23529744.5364
  20761281.484   -21319470.582 9 -16591687.80548  20761283.675    20761291.0664
  21094935.061   -19193661.089 9 -14944570.05547  21094937.879    21094946.6894
  22814366.018    -8789543.143 8  -6833958.98546  22814365.555    22814374.3324
  22679309.935    -9850115.635 8  -7666668.30446  22679310.123    22679319.8194
  21673717.544   -14420049.147 8 -10957938.74747  21673720.473    21673729.5514
  23933559.542    -7287850.593 8  -5654605.52145  23933567.818    23933578.0004
 00  4 27  3 38 30.0000000  0  8 21 30 29 23 09 05 15 25
  20377663.399   -24314162.068 9 -18930175.16648  20377664.869    20377673.0144
  23512487.592    -4191511.902 8  -3250756.72746  23512493.011    23512503.1234
  20757011.738   -21341898.698 9 -16609164.24248  20757015.683    20757023.5204
  21103237.027   -19150034.010 9 -14910574.96347  21103239.966    21103248.3854
  22832790.033    -8692686.351 8  -6758486.21846  22832796.261    22832806.1114
  22671577.808    -9890738.958 8  -7698322.78146  22671580.371    22671589.4134
  21670256.199   -14438239.986 8 -10972113.40547  21670259.406    21670267.3174
  23914761.349    -7386679.222 8  -5731614.72645  23914761.885    23914772.8064
 00  4 27  3 39  0.0000000  0  8 21 30 29 23 09 05 15 25
  20370826.377   -24350084.473 9 -18958166.64848  20370828.981    20370837.2534
  23495277.495    -4281981.569 8  -3321252.38845  23495276.156    23495286.8724
  20752783.510   -21364123.012 9 -16626481.90248  20752786.540    20752793.8474
  21111622.417   -19105981.327 9 -14876248.21947  21111623.005    21111631.5204
  22851270.868    -8595584.398 8  -6682822.41346  22851274.397    22851284.3164
  22663934.458    -9930896.394 8  -7729614.23246  22663937.921    22663947.0694
  21666916.851   -14455797.251 8 -10985794.37547  21666918.112    21666926.7284
  23895981.812    -7485327.453 8  -5808483.31446  23895989.477    23896000.6294
 00  4 27  3 39 30.0000000  0  8 21 30 29 23 09 05 15 25
  20364071.852   -24385587.583 9 -18985831.39648  20364073.123    20364081.4574
  23478082.040    -4372317.559 8  -3391643.94645  23478085.131    23478096.5214
  20748593.224   -21386149.940 9 -16643645.74348  20748595.172    20748602.1844
  21120085.908   -19061503.326 9 -14841590.06547  21120086.967    21120095.4324
  22869795.375    -8498246.583 8  -6606974.82146  22869797.772    22869806.6134
  22656384.412    -9970570.844 8  -7760529.33846  22656388.258    22656397.7754
  21663698.567   -14472719.995 8 -10998980.90447  21663698.130    21663705.8404
  23877255.327    -7583794.568 8  -5885210.77446  23877252.704    23877262.8224
 00  4 27  3 40  0.0000000  0  8 21 30 29 23 09 05 15 25
  20357397.690   -24420657.342 9 -19013158.47248  20357399.407    20357407.7734
  23460917.835    -4462505.686 8  -3461920.27845  23460923.196    23460934.2294
  20744440.147   -21407975.245 9 -16660652.47548  20744441.910    20744449.1564
  21128626.633   -19016613.394 9 -14806610.93947  21128629.626    21128637.9394
  22888362.410    -8400677.875 8  -6530947.32746  22888364.477    22888374.2754
  22648932.207   -10009756.201 8  -7791063.32346  22648932.241    22648941.0234
  21660594.153   -14489007.913 8 -11011672.78047  21660598.171    21660607.1204
  23858546.421    -7682076.950 8  -5961794.32646  23858550.089    23858560.3034
 00  4 27  3 40 30.0000000  0  8 21 30 29 23 09 05 15 25
  20350805.638   -24455297.880 9 -19040151.09648  20350807.758    20350815.8484
  23443789.482    -4552531.825 8  -3532070.36845  23443791.595    23443803.1994
  20740323.660   -21429597.536 9 -16677500.99647  20740326.689    20740334.0804
  21137245.781   -18971328.570 9 -14771324.09147  21137246.696    21137254.9434
  22906970.185    -8302892.508 8  -6454751.00746  22906972.778    22906981.9984
  22641566.023   -10048441.835 8  -7821207.91446  22641569.724    22641579.3604
  21657614.299   -14504660.524 8 -11023869.60947  21657619.334    21657629.0294
  23839884.116    -7780182.698 8  -6038240.19045  23839880.014    23839890.5894
 00  4 27  3 41  0.0000000  0  8 21 30 29 23 09 05 15 25
  20344294.318   -24489514.460 9 -19066813.35948  20344296.452    20344304.6504
  23426688.773    -4642375.582 7  -3602078.34045  23426693.518    23426704.7064
  20736246.724   -21451021.324 9 -16694194.85147  20736250.362    20736257.5184
  21145937.056   -18925652.924 9 -14735732.71547  21145938.246    21145947.4154
  22925627.156    -8204883.009 8  -6378380.02446  22925623.079    22925632.1474
  22634303.070   -10086632.051 8  -7850966.45946  22634302.601    22634311.9254
  21654761.555   -14519677.320 9 -11035571.02447  21654763.097    21654770.5824
  23821238.054    -7878116.120 8  -6114551.80245  23821243.007    23821254.3864
 00  4 27  3 41 30.0000000  0  8 21 30 29 23 09 05 15 25
  20337862.088   -24523314.939 9 -19093151.39348  20337864.395    20337872.6514
  23409637.155    -4732026.700 8  -3671936.20945  23409634.926    23409645.6014
  20732211.554   -21472236.571 9 -16710726.19747  20732212.936    20732220.4344
  21154702.281   -18879595.206 9 -14699843.62747  21154703.277    21154711.9014
  22944311.088    -8106631.038 8  -6301820.10646  22944320.568    22944329.1384
  22627127.726   -10124337.874 8  -7880347.55746  22627127.108    22627136.5514
  21652022.997   -14534058.021 9 -11046776.78247  21652026.376    21652034.3854
  23802642.416    -7975878.131 8  -6190729.85546  23802640.940    23802651.7454
 00  4 27  3 42  0.0000000  0  8 21 30 29 23 09 05 15 25
  20331508.826   -24556695.755 9 -19119162.41848  20331512.187    20331520.6604
  23392608.802    -4821486.172 8  -3741644.71446  23392611.589    23392623.2494
  20728216.188   -21493227.909 9 -16727083.07948  20728218.635    20728226.1054
  21163538.276   -18833157.688 9 -14663658.58047  21163540.417    21163548.1034
  22963058.879    -8008137.855 8  -6225072.23646  22963061.937    22963072.0964
  22620035.957   -10161569.156 8  -7909358.88446  22620041.991    22620052.2434
  21649408.883   -14547802.283 9 -11057486.54647  21649411.245    21649419.0004
  23784071.458    -8073450.954 8  -6266760.47046  23784072.098    23784084.1964
 00  4 27  3 42 30.0000000  0  8 21 30 29 23 09 05 15 25
  20325240.874   -24589644.330 9 -19144836.64148  20325242.562    20325250.7274
  23375621.221    -4910767.440 8  -3811214.39446  23375621.761    23375632.6094
  20724263.832   -21513997.665 9 -16743267.29748  20724266.125    20724273.7154
  21172449.799   -18786322.133 9 -14627163.37947  21172452.261    21172460.7164
  22981843.576    -7909424.008 8  -6148152.42946  22981846.642    22981857.0024
  22613045.378   -10198332.000 8  -7938005.19846  22613046.901    22613056.6244
  21646913.070   -14560909.970 8 -11067700.34547  21646916.351    21646925.2524
  23765542.596    -8170839.300 8  -6342647.35446  23765540.559    23765550.8484
 00  4 27  3 43  0.0000000  0  8 21 30 29 23 09 05 15 25
  20319054.873   -24622148.876 9 -19170164.85448  20319056.829    20319064.9854
  23358659.060    -4999876.828 8  -3880650.14346  23358665.112    23358674.6434
  20720353.938   -21534540.562 9 -16759274.75148  20720357.208    20720364.9184
  21181438.644   -18739077.994 9 -14590349.80747  21181442.787    21181451.6144
  23000670.015    -7810491.458 8  -6071062.19346  23000672.663    23000683.1014
  22606135.181   -10234627.478 8  -7966287.34546  22606139.566    22606149.2314
  21644542.213   -14573380.508 8 -11077417.64447  21644542.861    21644551.8374
  23747043.931    -8268035.391 8  -6418384.47646  23747044.109    23747055.5044
 00  4 27  3 43 30.0000000  0  8 21 30 29 23 09 05 15 25
  20312956.732   -24654195.215 9 -19195136.02548  20312959.012    20312966.9854
  23341738.615    -5088817.402 8  -3949954.36046  23341739.492    23341750.4224
  20716490.646   -21554845.442 9 -16775096.73648  20716493.574    20716500.8584
  21190506.094   -18691430.335 9 -14553221.79547  21190509.845    21190518.5684
  23019533.847    -7711358.351 8  -5993815.68046  23019537.574    23019546.9924
  22599324.077   -10270443.587 8  -7994195.92246  22599323.695    22599333.3744
  21642289.449   -14585213.564 8 -11086638.19647  21642291.247    21642299.8964
  23728580.620    -8365033.022 8  -6493966.87746  23728586.088    23728597.3114
 00  4 27  3 44  0.0000000  0  8 21 30 29 23 09 05 15 25
  20306945.502   -24685782.534 9 -19219749.52748  20306948.087    20306956.0664
  23324837.203    -5177582.294 8  -4019121.64446  23324847.714    23324859.6024
  20712670.002   -21574925.717 9 -16790743.70248  20712671.986    20712679.3754
  21199652.697   -18643369.444 9 -14515771.78647  21199655.461    21199664.0784
  23038433.023    -7612055.705 8  -5916437.04846  23038434.739    23038443.9894
  22592599.426   -10305766.331 8  -8021720.07346  22592601.924    22592612.0794
  21640159.239   -14596409.101 9 -11095361.93447  21640161.069    21640170.3264
  23710157.105    -8461829.534 8  -6569392.53546  23710166.396    23710178.5464
 00  4 27  3 44 30.0000000  0  8 21 30 29 23 09 05 15 25
  20301019.571   -24716925.611 9 -19244016.85348  20301021.523    20301029.4144
  23307990.016    -5266154.366 8  -4088138.68346  23307993.369    23308004.2044
  20708888.529   -21594795.416 9 -16806226.58448  20708891.172    20708898.4044
  21208880.565   -18594882.080 9 -14477989.45547  21208882.641    21208890.7194
  23057367.635    -7512570.405 8  -5838916.07646  23057365.538    23057375.4614
  22585970.079   -10340579.282 8  -8048846.98146  22585976.821    22585987.7234
  21638151.347   -14606966.951 9 -11103588.81747  21638151.897    21638160.2624
  23691784.651    -8558446.523 8  -6644678.32646  23691781.157    23691791.7574
 00  4 27  3 45  0.0000000  0  8 21 30 29 23 09 05 15 25
  20295173.474   -24747645.442 9 -19267954.38548  20295175.660    20295183.6664
  23291183.230    -5354505.951 8  -4156983.97946  23291180.910    23291191.7314
  20705146.051   -21614455.239 9 -16821545.92148  20705149.937    20705157.3064
  21218186.242   -18545982.694 9 -14439886.07447  21218187.826    21218196.2054
  23076326.314    -7412884.605 8  -5761238.88446  23076335.383    23076345.2624
  22579446.271   -10374876.145 8  -8075571.75546  22579451.258    22579461.0334
  21636257.960   -14616886.840 8 -11111318.57647  21636263.394    21636273.5394
  23673428.271    -8654883.044 8  -6719823.52646  23673428.730    23673440.1534
 00  4 27  3 45 30.0000000  0  8 21 30 29 23 09 05 15 25
  20289406.710   -24777945.494 9 -19291564.81748  20289409.708    20289418.1134
  23274413.473    -5442630.047 8  -4225651.95446  23274410.193    23274421.6864
  20701443.669   -21633913.147 9 -16836707.92648  20701446.892    20701454.5874
  21227567.871   -18496675.177 9 -14401464.67347  21227570.573    21227579.3704
  23095341.117    -7312996.770 8  -5683404.26346  23095342.520    23095353.4724
  22573014.964   -10408663.217 8  -8101899.29846  22573021.683    22573031.4344
  21634494.903   -14626168.727 8 -11118551.23647  21634497.081    21634506.6454
  23655112.101    -8751149.659 8  -6794836.29846  23655110.780    23655120.9894
 00  4 27  3 46  0.0000000  0  8 21 30 29 23 09 05 15 25
  20283722.025   -24807826.597 9 -19314848.79748  20283723.775    20283731.9324
  23257676.360    -5530525.276 8  -4294141.56246  23257684.433    23257695.8404
  20697776.692   -21653192.159 9 -16851730.51048  20697778.686    20697786.0994
  21237027.816   -18446959.512 9 -14362725.24947  21237031.185    21237039.9784
  23114392.000    -7212893.321 8  -5605401.64446  23114392.874    23114402.9534
  22566684.226   -10441957.267 8  -8127842.66846  22566686.276    22566696.1044
  21632849.916   -14634812.457 8 -11125286.59247  21632853.070    21632862.4664
  23636818.679    -8847244.417 8  -6869715.19646  23636823.191    23636834.4754
 00  4 27  3 46 30.0000000  0  8 21 30 29 23 09 05 15 25
  20278118.883   -24837271.221 9 -19337792.66148  20278120.688    20278128.8244
  23240996.101    -5618196.107 8  -4362456.34446  23241001.690    23241012.4274
  20694141.132   -21672297.014 9 -16866617.40548  20694143.380    20694150.6344
  21246565.394   -18396844.775 9 -14323674.85247  21246567.623    21246576.5374
  23133484.311    -7112542.964 8  -5527206.61246  23133488.682    23133498.2534
  22560439.087   -10474769.872 8  -8153410.87046  22560441.720    22560451.5864
  21631326.057   -14642817.897 8 -11131524.59347  21631328.734    21631338.4984
  23618570.986    -8943159.272 8  -6944453.86646  23618571.045    23618582.5134
 00  4 27  3 47  0.0000000  0  8 21 30 29 23 09 05 15 25
  20272603.046   -24866258.249 9 -19360379.95848  20272604.848    20272612.6844
  23224357.725    -5705657.391 8  -4430607.85046  23224357.895    23224368.9534
  20690539.330   -21691227.785 9 -16881368.66648  20690540.608    20690548.1474
  21256173.067   -18346347.573 9 -14284326.42747  21256177.100    21256185.8064
  23152627.070    -7011958.486 8  -5448829.14046  23152628.443    23152638.4664
  22554285.835   -10507113.641 8  -8178613.75246  22554286.795    22554296.5394
  21629923.765   -14650184.895 8 -11137265.09747  21629926.851    21629936.9104
  23600358.915    -9038876.943 8  -7019038.92146  23600355.956    23600368.3234
 00  4 27  3 47 30.0000000  0  8 21 30 29 23 09 05 15 25
  20267175.036   -24894779.721 9 -19382604.47748  20267177.368    20267185.2784
  23207748.703    -5792926.379 8  -4498609.51046  23207752.089    23207761.8404
  20686970.119   -21709978.076 9 -16895979.25148  20686972.695    20686979.7254
  21265856.867   -18295464.830 9 -14244677.57647  21265859.727    21265868.3024
  23171804.159    -6911150.526 8  -5370277.56046  23171812.482    23171822.4004
  22548221.888   -10538983.988 8  -8203447.73246  22548222.711    22548232.0594
  21628644.502   -14656913.488 8 -11142508.14347  21628647.505    21628656.1114
  23582171.911    -9134392.443 8  -7093466.37946  23582180.431    23582192.2374
 00  4 27  3 48  0.0000000  0  8 21 30 29 23 09 05 15 25
  20261834.930   -24922833.443 9 -19404464.52148  20261838.524    20261846.6724
  23191174.096    -5880008.836 8  -4566465.82846  23191180.081    23191190.6184
  20683440.228   -21728533.272 9 -16910437.81048  20683441.980    20683449.1674
  21275614.521   -18244196.155 9 -14204728.00747  21275615.662    21275624.3554
  23191036.086    -6810120.192 8  -5291552.71846  23191038.282    23191048.2324
  22542247.003   -10570362.422 8  -8227898.41446  22542251.368    22542260.6744
  21627485.250   -14663003.565 8 -11147253.63647  21627487.031    21627497.4304
  23564043.483    -9229692.423 8  -7167725.94046  23564046.271    23564056.9214
 00  4 27  3 48 30.0000000  0  8 21 30 29 23 09 05 15 25
  20256586.645   -24950428.351 9 -19425967.04248  20256587.324    20256595.6514
  23174637.561    -5966905.248 8  -4634177.16346  23174643.247    23174654.5184
  20679951.891   -21746859.139 9 -16924717.68548  20679954.459    20679961.5374
  21285446.011   -18192537.238 9 -14164474.36447  21285446.136    21285454.6394
  23210307.103    -6708886.384 8  -5212669.30146  23210302.744    23210311.7754
  22536376.875   -10601229.335 8  -8251950.48846  22536377.262    22536386.9674
  21626447.464   -14668455.156 8 -11151501.63347  21626450.377    21626459.4274
  23545951.713    -9324781.740 8  -7241821.38446  23545951.442    23545961.4824
 00  4 27  3 49  0.0000000  0  8 21 30 29 23 09 05 15 25
  20251418.140   -24977581.913 9 -19447125.65548  20251420.473    20251428.5164
  23158141.056    -6053613.732 8  -4701742.08146  23158143.514    23158153.4384
  20676512.215   -21764934.460 9 -16938802.34848  20676514.812    20676521.9194
  21295347.513   -18140493.147 9 -14123920.56647  21295349.736    21295358.7004
  23229593.417    -6607483.657 8  -5133654.23646  23229598.714    23229608.5104
  22530600.007   -10631576.674 8  -8275597.70746  22530601.903    22530611.9114
  21625532.349   -14673268.353 8 -11155252.13047  21625534.762    21625543.3614
  23527892.291    -9419670.953 8  -7315760.89046  23527893.285    23527904.0164
 00  4 27  3 49 30.0000000  0  8 21 30 29 23 09 05 15 25
  20246332.211   -25004304.867 9 -19467948.72348  20246334.958    20246343.2514
  23141676.811    -6140119.744 8  -4769149.23546  23141682.410    23141692.7694
  20673122.320   -21782748.992 9 -16952683.78848  20673124.607    20673132.1024
  21305325.125   -18088057.283 9 -14083061.49747  21305328.323    21305336.9744
  23248930.054    -6505908.725 8  -5054505.00946  23248927.459    23248937.6934
  22524925.220   -10661403.114 8  -8298839.02746  22524925.999    22524936.1464
  21624737.435   -14677443.420 8 -11158505.40847  21624740.231    21624749.0154
  23509867.399    -9514371.360 8  -7389553.26546  23509870.203    23509883.1114
 00  4 27  3 50  0.0000000  0  8 21 30 29 23 09 05 15 25
  20241330.042   -25030594.920 9 -19488434.47248  20241332.288    20241340.3174
  23125256.692    -6226410.134 8  -4836388.35246  23125261.515    23125271.7724
  20669779.102   -21800316.703 9 -16966372.88048  20669781.522    20669789.2044
  21315376.706   -18035229.143 9 -14041896.76047  21315381.403    21315390.2834
  23268287.293    -6404158.376 8  -4975219.10446  23268289.668    23268299.9884
  22519348.596   -10690708.830 8  -8321674.58346  22519349.739    22519358.9794
  21624067.704   -14680980.308 9 -11161261.38847  21624067.958    21624076.3694
  23491878.406    -9608886.743 8  -7463201.46646  23491886.193    23491897.4524
 00  4 27  3 50 30.0000000  0  8 21 30 29 23 09 05 15 25
  20236408.827   -25056453.385 9 -19508583.91148  20236411.669    20236419.7474
  23108882.890    -6312469.109 8  -4903447.19046  23108885.166    23108895.2914
  20666479.223   -21817658.972 9 -16979886.31948  20666481.477    20666488.7204
  21325506.380   -17982008.003 9 -14000425.78247  21325508.530    21325517.6244
  23287681.453    -6302235.198 8  -4895798.51446  23287684.604    23287695.4374
  22513872.104   -10719497.765 8  -8344107.45646  22513871.692    22513881.0714
  21623512.236   -14683879.126 8 -11163520.17147  21623515.539    21623524.6124
  23473930.075    -9703224.405 8  -7536711.18146  23473934.771    23473945.3924
 00  4 27  3 51  0.0000000  0  8 21 30 29 23 09 05 15 25
  20231573.482   -25081867.073 9 -19528386.78648  20231575.444    20231583.8104
  23092554.861    -6398284.060 8  -4970315.86146  23092555.089    23092564.7554
  20663215.987   -21834807.409 9 -16993248.72848  20663218.195    20663225.3214
  21335705.789   -17928398.587 9 -13958652.26247  21335710.356    21335719.1244
  23307107.400    -6200121.874 8  -4816229.73646  23307117.100    23307126.4114
  22508487.814   -10747768.547 8  -8366136.57746  22508491.310    22508500.9924
  21623081.902   -14686140.024 8 -11165281.88447  21623085.477    21623093.8674
  23456020.841    -9797379.584 8  -7610078.67546  23456018.147    23456028.6194
 00  4 27  3 51 30.0000000  0  8 21 30 29 23 09 05 15 25
  20226824.041   -25106823.770 9 -19547833.55248  20226826.104    20226834.3044
  23076271.679    -6483838.584 8  -5036981.58446  23076274.422    23076284.2034
  20659984.956   -21851781.964 9 -17006475.66648  20659987.889    20659994.7494
  21345986.612   -17874386.850 9 -13916565.22847  21345988.674    21345997.3634
  23326586.282    -6097808.260 8  -4736504.88746  23326586.797    23326596.3404
  22503209.647   -10775512.314 8  -8387755.04346  22503211.595    22503221.2674
  21622774.034   -14687763.305 8 -11166546.75747  21622776.189    21622785.8354
  23438139.731    -9891334.327 8  -7683290.00746  23438138.692    23438150.2054
 00  4 27  3 52  0.0000000  0  8 21 30 29 23 09 05 15 25
  20222163.214   -25131313.925 9 -19566916.78748  20222165.812    20222173.9624
  23060041.142    -6569134.641 8  -5103445.91146  23060043.044    23060052.8044
  20656782.694   -21868598.427 9 -17019579.44448  20656787.553    20656794.4284
  21356343.835   -17819966.313 9 -13874159.65847  21356344.569    21356353.3084
  23346092.764    -5995310.452 8  -4656636.52146  23346090.577    23346101.5014
  22498032.135   -10802722.244 8  -8408957.54846  22498033.771    22498043.0064
  21622586.730   -14688749.034 8 -11167314.83747  21622588.610    21622596.8584
  23420291.555    -9985075.474 8  -7756334.89746  23420300.826    23420311.0494
 00  4 27  3 52 30.0000000  0  8 21 30 29 23 09 05 15 25
  20217595.137   -25155326.299 9 -19585627.72348  20217596.711    20217604.5844
  23043857.714    -6654166.560 8  -5169704.39546  23043861.317    23043872.3834
  20653619.427   -21885243.924 9 -17032549.98348  20653620.461    20653627.3834
  21366778.124   -17765134.833 9 -13831433.86647  21366778.787    21366787.1724
  23365622.815    -5892642.013 8  -4576635.20846  23365629.147    23365637.4894
  22492950.602   -10829406.598 8  -8429750.48046  22492955.796    22492964.6044
  21622519.344   -14689097.581 8 -11167586.39547  21622522.555    21622530.7844
  23402503.773   -10078590.077 8  -7829203.31746  23402504.590    23402514.6654
 00  4 27  3 53  0.0000000  0  8 21 30 29 23 09 05 15 25
  20213117.207   -25178855.230 9 -19603961.94248  20213119.161    20213126.9664
  23027727.911    -6738937.162 8  -5235759.25846  23027730.444    23027741.3374
  20650485.191   -21901709.165 9 -17045380.03248  20650487.161    20650494.2474
  21377288.061   -17709891.540 9 -13788387.19247  21377291.352    21377300.0634
  23385189.000    -5789814.599 8  -4496509.98446  23385195.915    23385204.7334
  22487974.013   -10855574.070 8  -8450140.65646  22487976.801    22487985.4694
  21622573.486   -14688809.242 8 -11167361.71847  21622577.256    21622586.3394
  23384751.331   -10171866.614 8  -7901886.18946  23384753.616    23384764.9384
 00  4 27  3 53 30.0000000  0  8 21 30 29 23 09 05 15 25
  20208730.104   -25201906.413 9 -19621923.88648  20208732.797    20208740.5314
  23011644.020    -6823456.742 8  -5301618.52846  23011646.989    23011656.6364
  20647388.923   -21917981.277 9 -17058059.61348  20647391.080    20647398.0144
  21387879.012   -17654232.657 9 -13745016.68247  21387882.883    21387891.7464
  23404788.391    -5686856.003 8  -4416282.54646  23404787.246    23404797.3114
  22483095.577   -10881231.625 8  -8470133.50446  22483094.209    22483103.5604
  21622748.668   -14687884.284 8 -11166640.96647  21622753.091    21622761.9924
  23367045.489   -10264899.057 8  -7974378.81346  23367051.131    23367061.5714
 00  4 27  3 54  0.0000000  0  8 21 30 29 23 09 05 15 25
  20204436.619   -25224482.633 9 -19639515.73748  20204436.782    20204444.3574
  22995608.493    -6907734.883 8  -5367289.67146  22995609.265    22995619.2014
  20644333.312   -21934047.751 9 -17070578.94048  20644333.811    20644340.3734
  21398547.458   -17598170.637 9 -13701332.03947  21398550.852    21398559.6614
  23424400.894    -5583766.548 8  -4335953.17346  23424405.040    23424414.9414
  22478302.302   -10906388.763 8  -8489736.42046  22478306.340    22478317.3824
  21623046.878   -14686323.149 8 -11165424.47847  21623050.136    21623058.7924
  23349390.204   -10357697.402 8  -8046689.05546  23349391.937    23349401.9304
 00  4 27  3 54 30.0000000  0  8 21 30 29 23 09 05 15 25
  20200229.018   -25246584.405 9 -19656737.88548  20200230.996    20200238.7614
  22979611.272    -6991773.568 8  -5432774.22046  22979617.328    22979627.0544
  20641315.736   -21949894.352 9 -17082926.91348  20641317.771    20641325.0684
  21409291.222   -17541716.560 9 -13657341.88347  21409293.756    21409302.3294
  23444050.839    -5480534.076 8  -4255512.35046  23444050.479    23444059.3004
  22473613.474   -10931046.421 8  -8508950.14346  22473614.576    22473624.3124
  21623468.934   -14684126.107 8 -11163712.47647  21623468.386    21623476.6334
  23331774.726   -10450271.126 8  -8118824.27946  23331776.962    23331785.8624
 00  4 27  3 55  0.0000000  0  8 21 30 29 23 09 05 15 25
  20196111.832   -25268213.452 9 -19673591.68048  20196114.841    20196123.0014
  22963668.031    -7075577.616 8  -5498075.95746  22963669.606    22963679.2694
  20638339.847   -21965520.304 9 -17095102.97548  20638344.328    20638351.4604
  21420108.820   -17484870.337 9 -13613046.16547  21420111.254    21420119.5824
  23463723.002    -5377153.781 8  -4174956.29546  23463723.061    23463732.1084
  22469018.239   -10955188.989 8  -8527762.47746  22469020.729    22469030.1814
  21624003.868   -14681293.651 8 -11161505.34447  21624007.421    21624016.1144
  23314197.383   -10542637.428 8  -8190797.84446  23314199.218    23314209.7654
 00  4 27  3 55 30.0000000  0  8 21 30 29 23 09 05 15 25
  20192089.596   -25289359.209 9 -19690068.88248  20192091.047    20192098.9544
  22947764.859    -7159148.696 8  -5563196.15146  22947766.375    22947775.6614
  20635413.021   -21980913.429 9 -17107097.59848  20635414.977    20635422.7004
  21431001.595   -17427632.837 9 -13568445.55647  21431003.319    21431012.1014
  23483422.217    -5273619.512 8  -4094280.27746  23483425.132    23483434.3834
  22464528.785   -10978796.805 8  -8546158.13346  22464528.571    22464537.5844
  21624664.165   -14677826.275 8 -11158803.48947  21624666.454    21624676.4054
  23296660.769   -10634813.431 8  -8262623.14046  23296659.240    23296668.7314
 00  4 27  3 56  0.0000000  0  8 21 30 29 23 09 05 15 25
  20188159.297   -25310007.662 9 -19706158.56948  20188161.905    20188169.6844
  22931909.077    -7242477.009 8  -5628127.17746  22931909.883    22931918.9074
  20632528.498   -21996071.052 9 -17118908.72848  20632530.771    20632538.0834
  21441964.658   -17370006.756 9 -13523542.15847  21441969.126    21441977.9784
  23503162.966    -5169913.287 8  -4013470.29546  23503158.935    23503169.7814
  22460139.106   -11001856.817 8  -8564126.93446  22460140.621    22460149.1824
  21625444.281   -14673724.555 8 -11155607.36147  21625447.658    21625455.8014
  23279144.018   -10726815.492 8  -8334312.92346  23279151.008    23279161.2344
 00  4 27  3 56 30.0000000  0  8 21 30 29 23 09 05 15 25
  20184325.027   -25330157.641 9 -19721859.84348  20184327.287    20184335.1444
  22916096.441    -7325552.248 8  -5692861.00946  22916100.558    22916110.4654
  20629690.038   -22010989.479 9 -17130533.48048  20629691.917    20629699.2404
  21453010.333   -17311983.611 9 -13478329.36747  21453011.050    21453019.7204
  23522922.426    -5066047.813 8  -3932536.25046  23522924.396    23522934.3074
  22455854.810   -11024360.420 8  -8581662.17746  22455858.185    22455866.4634
  21626346.569   -14668988.601 8 -11151916.99947  21626348.076    21626356.9844
  23261678.263   -10818642.252 8  -8405866.11446  23261676.912    23261686.3134
 00  4 27  3 57  0.0000000  0  8 21 30 29 23 09 05 15 25
  20180584.525   -25349818.231 9 -19737179.77748  20180585.783    20180594.2504
  22900335.851    -7408351.966 8  -5757380.13746  22900343.637    22900354.1584
  20626894.121   -22025680.490 9 -17141981.01648  20626896.406    20626903.7754
  21464126.610   -17253553.959 9 -13432799.81547  21464129.560    21464138.5544
  23542713.590    -4962031.759 8  -3851484.83746  23542718.165    23542728.7934
  22451678.398   -11046300.388 8  -8598758.21446  22451682.538    22451690.6734
  21627367.925   -14663618.993 8 -11147732.89047  21627370.675    21627380.2594
  23244231.898   -10910278.917 8  -8477271.18146  23244238.326    23244248.4924
 00  4 27  3 57 30.0000000  0  8 21 30 29 23 09 05 15 25
  20176933.239   -25369002.780 9 -19752128.77248  20176934.927    20176943.5874
  22884639.957    -7490864.236 8  -5821675.28646  22884642.574    22884652.3244
  20624138.600   -22040159.220 9 -17153263.15048  20624141.016    20624148.4484
  21475324.607   -17194719.260 9 -13386954.65447  21475325.555    21475334.4914
  23562531.241    -4857859.418 8  -3770311.61546  23562541.491    23562551.5354
  22447610.436   -11067684.122 8  -8615420.82546  22447613.351    22447622.2804
  21628512.895   -14657616.194 8 -11143055.37547  21628513.014    21628521.6164
  23226837.806   -11001703.319 8  -8548510.81346  23226840.924    23226851.7154
 00  4 27  3 58  0.0000000  0  8 21 30 29 23 09 05 15 25
  20173369.226   -25387728.244 9 -19766720.04048  20173371.834    20173380.4694
  22868995.685    -7573071.497 8  -5885732.77446  22868999.675    22869007.6604
  20621417.837   -22054449.084 9 -17164398.09248  20621421.494    20621428.9994
  21486594.228   -17135489.367 9 -13340801.55447  21486596.843    21486605.8934
  23582393.042    -4753528.816 8  -3689015.10346  23582395.822    23582405.1914
  22443640.928   -11088536.224 8  -8631669.16246  22443644.691    22443654.0004
  21629772.538   -14650980.998 8 -11137885.08047  21629775.347    21629783.7894
  23209490.314   -11092889.891 8  -8619565.21646  23209489.074    23209499.2144
 00  4 27  3 58 30.0000000  0  8 21 30 29 23 09 05 15 25
  20169893.184   -25406002.348 9 -19780959.59348  20169894.342    20169902.6674
  22853413.479    -7654962.158 8  -5949543.59246  22853415.293    22853424.1104
  20618730.607   -22068570.052 9 -17175401.43148  20618734.478    20618741.8414
  21497938.198   -17075868.707 9 -13294343.94647  21497942.283    21497950.9084
  23602269.327    -4649032.215 8  -3607589.19445  23602280.107    23602290.0924
  22439777.285   -11108868.823 8  -8647512.69946  22439776.301    22439785.1034
  21631154.812   -14643713.991 8 -11132222.46747  21631158.738    21631167.1624
  23192180.394   -11183820.446 8  -8690420.09746  23192185.815    23192195.5684
 00  4 27  3 59  0.0000000  0  9 11 21 30 29 23 09 05 15 25
  24603025.433     -657544.02117   -499866.57455  24603028.633    24603036.7254
  20166502.524   -25423816.672 9 -19794840.88148  20166504.213    20166512.6094
  22837884.801    -7736538.977 8  -6013109.80246  22837891.423    22837901.9884
  20616072.724   -22082545.992 9 -17186291.74748  20616074.676    20616082.6814
  21509358.001   -17015863.924 9 -13247587.03147  21509360.925    21509370.1604
  23622205.801    -4544354.145 8  -3526021.93345  23622199.115    23622210.0994
  22436001.425   -11128685.720 8  -8662954.39646  22436004.762    22436014.2454
  21632659.230   -14635815.856 8 -11126068.11847  21632661.473    21632670.7804
  23174928.565   -11274491.395 8  -8761072.67946  23174930.326    23174940.3494
 00  4 27  3 59 30.0000000  0  9 11 21 30 29 23 09 05 15 25
  24591092.459     -720267.504 7   -548741.92045  24591094.331    24591103.8534
  20163204.114   -25441149.749 9 -19808347.16848  20163206.126    20163214.2594
  22822424.306    -7817818.467 8  -6076444.34646  22822424.882    22822434.0724
  20613441.052   -22096370.025 9 -17197063.69648  20613444.329    20613451.9554
  21520847.421   -16955491.015 9 -13200543.24947  21520849.346    21520858.2654
  23642143.873    -4439508.327 8  -3444323.91245  23642151.447    23642160.9844
  22432330.033   -11147990.995 8  -8677997.42846  22432330.810    22432340.6574
  21634285.644   -14627286.954 8 -11119422.22047  21634285.034    21634293.3854
  23157723.159   -11364912.536 8  -8831530.66346  23157723.880    23157734.4084
 00  4 27  4  0  0.0000000  0  9 11 21 30 29 23 09 05 15 25
  24579234.648     -782565.547 7   -597285.75745  24579239.283    24579246.6514
  20160000.538   -25457980.791 9 -19821462.26248  20160003.159    20160011.5044
  22807010.965    -7898807.169 8  -6139552.32346  22807012.741    22807022.7154
  20610844.769   -22110023.905 9 -17207703.03548  20610846.419    20610853.5904
  21532403.763   -16894758.325 9 -13153219.13347  21532405.895    21532415.1494
  23662124.254    -4334515.211 8  -3362511.09745  23662130.326    23662140.1254
  22428750.051   -11166782.235 8  -8692639.91846  22428754.940    22428764.2214
  21636024.293   -14618128.036 8 -11112285.36847  21636027.679    21636036.5154
  23140558.992   -11455092.376 8  -8901800.56146  23140563.863    23140573.2664
 00  4 27  4  0 30.0000000  0  9 11 21 30 29 23 09 05 15 25
  24567461.183     -844416.980 7   -645481.61045  24567468.150    24567477.3484
  20156894.587   -25474303.320 9 -19834181.11348  20156897.254    20156905.3824
  22791648.431    -7979515.241 8  -6202441.60546  22791654.392    22791663.7794
  20608281.190   -22123479.714 9 -17218188.06748  20608285.585    20608292.9964
  21544031.940   -16833651.146 9 -13105603.21147  21544034.350    21544043.4884
  23682130.390    -4229393.213 8  -3280597.87445  23682134.758    23682144.7544
  22425281.300   -11185034.182 8  -8706862.16646  22425281.673    22425291.0204
  21637887.340   -14608340.123 8 -11104658.43447  21637889.777    21637899.0574
  23123445.783   -11545041.113 8  -8971890.34346  23123446.904    23123456.4124
 00  4 27  4  1  0.0000000  0  9 11 21 30 29 23 09 05 15 25
  24555779.752     -905822.084 7   -693329.65545  24555781.653    24555792.4754
  20153885.703   -25490118.082 9 -19846504.29548  20153887.837    20153895.9154
  22776346.870    -8059951.639 8  -6265119.23146  22776348.357    22776357.9104
  20605767.163   -22136702.778 9 -17228491.74948  20605769.481    20605776.9884
  21555733.553   -16772155.680 8 -13057684.72747  21555736.766    21555745.4094
  23702157.554    -4124177.041 8  -3198611.26945  23702156.661    23702166.5994
  22421910.716   -11202732.236 8  -8720652.81947  22421914.678    22421923.8734
  21639869.249   -14597923.715 8 -11096541.76947  21639871.806    21639881.1504
  23106373.757   -11634754.539 8  -9041796.74046  23106374.436    23106384.9194
